[[{"header":{"parameterUnit":"m.s-1","parameterCategory":1,"la1":30.6,"la2":28.766,"lo1":-90.7593,"lo2":-88.6598,"dy":0.0162,"dx":0.0183,"nx":116,"ny":114,"refTime":"2024-01-31T18:00:00:Z","depth":0,"parameterNumber":2,"parameterNumberName":"U-component_of_WINDS"},"data":[0.0,0.0,0.0,0.0,0.0,0.0,0.0,0.0,0.0,0.0,0.0,0.0,0.0,0.0,0.0,0.0,0.0,0.0,0.0,0.0,0.0,0.0,0.0,0.0,0.0,0.0,0.0,0.0,0.0,0.0,0.0,0.0,0.0,0.0,0.0,0.0,0.0,0.0,0.0,0.0,0.0,0.0,0.0,0.0,0.0,0.0,0.0,0.0,0.0,0.0,0.0,0.0,0.0,0.0,0.0,0.0,0.0,0.0,0.0,0.0,0.0,0.0,0.0,0.0,0.0,0.0,0.0,0.0,0.0,0.0,0.0,0.0,0.0,0.0,0.0,0.0,0.0,0.0,0.0,0.0,0.0,0.0,0.0,0.0,0.0,0.0,0.0,0.0,0.0,0.0,0.0,0.0,0.0,0.0,0.0,0.0,0.0,0.0,0.0,0.0,0.0,0.0,0.0,0.0,0.0,0.0,0.0,0.0,0.0,0.0,0.0,0.0,0.0,0.0,0.0,0.0,0.0,0.0,0.0,0.0,0.0,0.0,0.0,0.0,0.0,0.0,0.0,0.0,0.0,0.0,0.0,0.0,0.0,0.0,0.0,0.0,0.0,0.0,0.0,0.0,0.0,0.0,0.0,0.0,0.0,0.0,0.0,0.0,0.0,0.0,0.0,0.0,0.0,0.0,0.0,0.0,0.0,0.0,0.0,0.0,0.0,0.0,0.0,0.0,0.0,0.0,0.0,0.0,0.0,0.0,0.0,0.0,0.0,0.0,0.0,0.0,0.0,0.0,0.0,0.0,0.0,0.0,0.0,0.0,0.0,0.0,0.0,0.0,0.0,0.0,0.0,0.0,0.0,0.0,0.0,0.0,0.0,0.0,0.0,0.0,0.0,0.0,0.0,0.0,0.0,0.0,0.0,0.0,0.0,0.0,0.0,0.0,0.0,0.0,0.0,0.0,0.0,0.0,0.0,0.0,0.0,0.0,0.0,0.0,0.0,0.0,0.0,0.0,0.0,0.0,0.0,0.0,0.0,0.0,0.0,0.0,0.0,0.0,0.0,0.0,0.0,0.0,0.0,0.0,0.0,0.0,0.0,0.0,0.0,0.0,0.0,0.0,0.0,0.0,0.0,0.0,0.0,0.0,0.0,0.0,0.0,0.0,0.0,0.0,0.0,0.0,0.0,0.0,0.0,0.0,0.0,0.0,0.0,0.0,0.0,0.0,0.0,0.0,0.0,0.0,0.0,0.0,0.0,0.0,0.0,0.0,0.0,0.0,0.0,0.0,0.0,0.0,0.0,0.0,0.0,0.0,0.0,0.0,0.0,0.0,0.0,0.0,0.0,0.0,0.0,0.0,0.0,0.0,0.0,0.0,0.0,0.0,0.0,0.0,0.0,0.0,0.0,0.0,0.0,0.0,0.0,0.0,0.0,0.0,0.0,0.0,0.0,0.0,0.0,0.0,0.0,0.0,0.0,0.0,0.0,0.0,0.0,0.0,0.0,0.0,0.0,0.0,0.0,0.0,0.0,0.0,0.0,0.0,0.0,0.0,0.0,0.0,0.0,0.0,0.0,0.0,0.0,0.0,0.0,0.0,0.0,0.0,0.0,0.0,0.0,0.0,0.0,0.0,0.0,0.0,0.0,0.0,0.0,0.0,0.0,0.0,0.0,0.0,0.0,0.0,0.0,0.0,0.0,0.0,0.0,0.0,0.0,0.0,0.0,0.0,0.0,0.0,0.0,0.0,0.0,0.0,0.0,0.0,0.0,0.0,0.0,0.0,0.0,0.0,0.0,0.0,0.0,0.0,0.0,0.0,0.0,0.0,0.0,0.0,0.0,0.0,0.0,0.0,0.0,0.0,0.0,0.0,0.0,0.0,0.0,0.0,0.0,0.0,0.0,0.0,0.0,0.0,0.0,0.0,0.0,0.0,0.0,0.0,0.0,0.0,0.0,0.0,0.0,0.0,0.0,0.0,0.0,0.0,0.0,0.0,0.0,0.0,0.0,0.0,0.0,0.0,0.0,0.0,0.0,0.0,0.0,0.0,0.0,0.0,0.0,0.0,0.0,0.0,0.0,0.0,0.0,0.0,0.0,0.0,0.0,0.0,0.0,0.0,0.0,0.0,0.0,0.0,0.0,0.0,0.0,0.0,0.0,0.0,0.0,0.0,0.0,0.0,0.0,0.0,0.0,0.0,0.0,0.0,0.0,0.0,0.0,0.0,0.0,0.0,0.0,0.0,0.0,0.0,0.0,0.0,0.0,0.0,0.0,0.0,0.0,0.0,0.0,0.0,0.0,0.0,0.0,0.0,0.0,0.0,0.0,0.0,0.0,0.0,0.0,0.0,0.0,0.0,0.0,0.0,0.0,0.0,0.0,0.0,0.0,0.0,0.0,0.0,0.0,0.0,0.0,0.0,0.0,0.0,0.0,0.0,0.0,0.0,0.0,0.0,0.0,0.0,0.0,0.0,0.0,0.0,0.0,0.0,0.0,0.0,0.0,0.0,0.0,0.0,0.0,0.0,0.0,0.0,0.0,0.0,0.0,0.0,0.0,0.0,0.0,0.0,0.0,0.0,0.0,0.0,0.0,0.0,0.0,0.0,0.0,0.0,0.0,0.0,0.0,0.0,0.0,0.0,0.0,0.0,0.0,0.0,0.0,0.0,0.0,0.0,0.0,0.0,0.0,0.0,0.0,0.0,0.0,0.0,0.0,0.0,0.0,0.0,0.0,0.0,0.0,0.0,0.0,0.0,0.0,0.0,0.0,0.0,0.0,0.0,0.0,0.0,0.0,0.0,0.0,0.0,0.0,0.0,0.0,0.0,0.0,0.0,0.0,0.0,0.0,0.0,0.0,0.0,0.0,0.0,0.0,0.0,0.0,0.0,0.0,0.0,0.0,0.0,0.0,0.0,0.0,0.0,0.0,0.0,0.0,0.0,0.0,0.0,0.0,0.0,0.0,0.0,0.0,0.0,0.0,0.0,0.0,0.0,0.0,0.0,0.0,0.0,0.0,0.0,0.0,0.0,0.0,0.0,0.0,0.0,0.0,0.0,0.0,0.0,0.0,0.0,0.0,0.0,0.0,0.0,0.0,0.0,0.0,0.0,0.0,0.0,0.0,0.0,0.0,0.0,0.0,0.0,0.0,0.0,0.0,0.0,0.0,0.0,0.0,0.0,0.0,0.0,0.0,0.0,0.0,0.0,0.0,0.0,0.0,0.0,0.0,0.0,0.0,0.0,0.0,0.0,0.0,0.0,0.0,0.0,0.0,0.0,0.0,0.0,0.0,0.0,0.0,0.0,0.0,0.0,0.0,0.0,0.0,0.0,0.0,0.0,0.0,0.0,0.0,0.0,0.0,0.0,0.0,0.0,0.0,0.0,0.0,0.0,0.0,0.0,0.0,0.0,0.0,0.0,0.0,0.0,0.0,0.0,0.0,0.0,0.0,0.0,0.0,0.0,0.0,0.0,0.0,0.0,0.0,0.0,0.0,0.0,0.0,0.0,0.0,0.0,0.0,0.0,0.0,0.0,0.0,0.0,0.0,0.0,0.0,0.0,0.0,0.0,0.0,0.0,0.0,0.0,0.0,0.0,0.0,0.0,0.0,0.0,0.0,0.0,0.0,0.0,0.0,0.0,0.0,0.0,0.0,0.0,0.0,0.0,0.0,0.0,0.0,0.0,0.0,0.0,0.0,0.0,0.0,0.0,0.0,0.0,0.0,0.0,0.0,0.0,0.0,0.0,0.0,0.0,0.0,0.0,0.0,0.0,0.0,0.0,0.0,0.0,0.0,0.0,0.0,0.0,0.0,0.0,0.0,0.0,0.0,0.0,0.0,0.0,0.0,0.0,0.0,0.0,0.0,0.0,0.0,0.0,0.0,0.0,0.0,0.0,0.0,0.0,0.0,0.0,0.0,0.0,0.0,0.0,0.0,0.0,0.0,0.0,0.0,0.0,0.0,0.0,0.0,0.0,0.0,0.0,0.0,0.0,0.0,0.0,0.0,0.0,0.0,0.0,0.0,0.0,0.0,0.0,0.0,0.0,0.0,0.0,0.0,0.0,0.0,0.0,0.0,0.0,0.0,0.0,0.0,0.0,0.0,0.0,0.0,0.0,0.0,0.0,0.0,0.0,0.0,0.0,0.0,0.0,0.0,0.0,0.0,0.0,0.0,0.0,0.0,0.0,0.0,0.0,0.0,0.0,0.0,0.0,0.0,0.0,0.0,0.0,0.0,0.0,0.0,0.0,0.0,0.0,0.0,0.0,0.0,0.0,0.0,0.0,0.0,0.0,0.0,0.0,0.0,0.0,0.0,0.0,0.0,0.0,0.0,0.0,0.0,0.0,0.0,0.0,0.0,0.0,0.0,0.0,0.0,0.0,0.0,0.0,0.0,0.0,0.0,0.0,0.0,0.0,0.0,0.0,0.0,0.0,0.0,0.0,0.0,0.0,0.0,0.0,0.0,0.0,0.0,0.0,0.0,0.0,0.0,0.0,0.0,0.0,0.0,0.0,0.0,0.0,0.0,0.0,0.0,0.0,0.0,0.0,0.0,0.0,0.0,0.0,0.0,0.0,0.0,0.0,0.0,0.0,0.0,0.0,0.0,0.0,0.0,0.0,0.0,0.0,0.0,0.0,0.0,0.0,0.0,0.0,0.0,0.0,0.0,0.0,0.0,0.0,0.0,0.0,0.0,0.0,0.0,0.0,0.0,0.0,0.0,0.0,0.0,0.0,0.0,0.0,0.0,0.0,0.0,0.0,0.0,0.0,0.0,0.0,0.0,0.0,0.0,0.0,0.0,0.0,0.0,0.0,0.0,0.0,0.0,0.0,0.0,0.0,0.0,0.0,0.0,0.0,0.0,0.0,0.0,0.0,0.0,0.0,0.0,0.0,0.0,0.0,0.0,0.0,0.0,0.0,0.0,0.0,0.0,0.0,0.0,0.0,0.0,0.0,0.0,0.0,0.0,0.0,0.0,0.0,0.0,0.0,0.0,0.0,0.0,0.0,0.0,0.0,0.0,0.0,0.0,0.0,0.0,0.0,0.0,0.0,0.0,0.0,0.0,0.0,0.0,0.0,0.0,0.0,0.0,0.0,0.0,0.0,0.0,0.0,0.0,0.0,0.0,0.0,0.0,0.0,0.0,0.0,0.0,0.0,0.0,0.0,0.0,0.0,0.0,0.0,0.0,0.0,0.0,0.0,0.0,0.0,0.0,0.0,0.0,0.0,0.0,0.0,0.0,0.0,0.0,0.0,0.0,0.0,0.0,0.0,0.0,0.0,0.0,0.0,0.0,0.0,0.0,0.0,0.0,0.0,0.0,0.0,0.0,0.0,0.0,0.0,0.0,0.0,0.0,0.0,0.0,0.0,0.0,0.0,0.0,0.0,0.0,0.0,0.0,0.0,0.0,0.0,0.0,0.0,0.0,0.0,0.0,0.0,0.0,0.0,0.0,0.0,0.0,0.0,0.0,0.0,0.0,0.0,0.0,0.0,0.0,0.0,0.0,0.0,0.0,0.0,0.0,0.0,0.0,0.0,0.0,0.0,0.0,0.0,0.0,0.0,0.0,0.0,0.0,0.0,0.0,0.0,0.0,0.0,0.0,0.0,0.0,0.0,0.0,0.0,0.0,0.0,0.0,0.0,0.0,0.0,0.0,0.0,0.0,0.0,0.0,0.0,0.0,0.0,0.0,0.0,0.0,0.0,0.0,0.0,0.0,0.0,0.0,0.0,0.0,0.0,0.0,0.0,0.0,0.0,0.0,0.0,0.0,0.0,0.0,0.0,0.0,0.0,0.0,0.0,0.0,0.0,0.0,0.0,0.0,0.0,0.0,0.0,0.0,0.0,0.0,0.0,0.0,0.0,0.0,0.0,0.0,0.0,0.0,0.0,0.0,0.0,0.0,0.0,0.0,0.0,0.0,0.0,0.0,0.0,0.0,0.0,0.0,0.0,0.0,0.0,0.0,0.0,0.0,0.0,0.0,0.0,0.0,0.0,0.0,0.0,0.0,0.0,0.0,0.0,0.0,0.0,0.0,0.0,0.0,0.0,0.0,0.0,0.0,0.0,0.0,0.0,0.0,0.0,0.0,0.0,0.0,0.0,4.4239,0.0,0.0,0.0,0.0,0.0,0.0,0.0,0.0,0.0,0.0,0.0,0.0,0.0,0.0,0.0,0.0,0.0,0.0,0.0,0.0,0.0,0.0,0.0,0.0,0.0,0.0,0.0,3.5493,3.5493,3.5493,3.5493,3.5493,3.5493,3.5493,3.5493,3.5493,3.5064,3.5045,3.5493,3.543,3.5758,0.0,0.0,0.0,0.0,0.0,0.0,0.0,0.0,0.0,0.0,0.0,0.0,0.0,0.0,0.0,0.0,0.0,0.0,0.0,0.0,0.0,0.0,0.0,0.0,0.0,0.0,0.0,0.0,0.0,0.0,0.0,0.0,0.0,0.0,0.0,0.0,0.0,0.0,0.0,0.0,0.0,0.0,0.0,0.0,0.0,0.0,0.0,0.0,0.0,0.0,0.0,0.0,0.0,0.0,0.0,0.0,0.0,0.0,0.0,0.0,0.0,0.0,0.0,0.0,0.0,0.0,0.0,0.0,0.0,0.0,0.0,0.0,0.0,0.0,0.0,4.4682,0.0,0.0,0.0,0.0,0.0,0.0,0.0,0.0,0.0,0.0,0.0,0.0,0.0,0.0,0.0,0.0,0.0,0.0,0.0,0.0,0.0,0.0,0.0,0.0,3.5493,3.5493,3.5493,3.5493,3.5493,3.5493,3.5493,3.5493,3.5493,3.5493,3.5493,3.5493,3.5584,3.5718,3.6464,3.7067,0.0,0.0,0.0,0.0,0.0,0.0,0.0,0.0,0.0,0.0,0.0,0.0,0.0,0.0,0.0,0.0,0.0,0.0,0.0,0.0,0.0,0.0,0.0,0.0,0.0,0.0,0.0,0.0,0.0,0.0,0.0,0.0,0.0,0.0,0.0,0.0,0.0,0.0,0.0,0.0,0.0,0.0,0.0,0.0,0.0,0.0,0.0,0.0,0.0,0.0,0.0,0.0,0.0,0.0,0.0,0.0,0.0,0.0,0.0,0.0,0.0,0.0,0.0,0.0,0.0,0.0,0.0,0.0,4.4519,4.5299,4.6396,4.6455,4.6493,4.6513,4.708,4.7176,4.6801,4.5494,0.0,0.0,0.0,0.0,0.0,0.0,0.0,0.0,0.0,0.0,0.0,0.0,0.0,0.0,0.0,0.0,0.0,0.0,0.0,0.0,0.0,3.5493,3.5493,3.5493,3.5493,3.5493,3.5493,3.5493,3.5493,3.5493,3.5493,3.5493,3.5493,3.5493,3.5853,3.6546,3.7094,3.743,0.0,0.0,0.0,0.0,0.0,0.0,0.0,0.0,0.0,0.0,0.0,0.0,0.0,0.0,0.0,0.0,0.0,0.0,0.0,0.0,0.0,0.0,0.0,0.0,0.0,0.0,0.0,0.0,0.0,0.0,0.0,0.0,0.0,0.0,0.0,0.0,0.0,0.0,0.0,0.0,0.0,0.0,0.0,0.0,0.0,0.0,0.0,0.0,4.2784,4.3936,0.0,0.0,0.0,0.0,0.0,0.0,0.0,0.0,0.0,0.0,0.0,0.0,0.0,4.2062,4.3397,4.477,4.569,4.614,4.7897,4.9026,4.9529,4.9871,5.0029,4.999,4.9356,0.0,4.6931,4.7415,0.0,0.0,0.0,0.0,0.0,0.0,0.0,0.0,0.0,0.0,0.0,0.0,0.0,0.0,0.0,0.0,0.0,0.0,0.0,0.0,0.0,3.6353,3.6719,3.6219,3.7488,3.77,3.6276,3.6642,3.6488,3.5532,3.5493,3.5493,3.5493,3.5493,3.6142,3.743,3.7976,0.0,0.0,0.0,0.0,0.0,0.0,0.0,0.0,0.0,0.0,0.0,0.0,0.0,0.0,0.0,0.0,0.0,0.0,0.0,0.0,0.0,0.0,0.0,0.0,0.0,0.0,0.0,0.0,0.0,0.0,0.0,0.0,0.0,0.0,0.0,0.0,0.0,0.0,0.0,0.0,0.0,0.0,0.0,0.0,0.0,0.0,0.0,0.0,4.0612,4.1914,4.3081,4.1725,4.019,0.0,0.0,0.0,0.0,0.0,0.0,0.0,0.0,0.0,4.2337,4.3121,4.4017,4.5045,4.6524,4.7445,4.7847,4.8977,4.9719,5.0116,5.0523,5.0702,5.0683,5.0298,4.9583,4.8665,4.8258,4.7569,4.6627,0.0,0.0,0.0,0.0,4.3929,4.4623,0.0,0.0,0.0,0.0,0.0,0.0,0.0,0.0,0.0,0.0,0.0,0.0,3.5359,3.6925,3.7721,3.7264,3.8953,3.9128,3.6955,3.706,3.6669,3.5441,3.5249,3.518,3.518,3.5603,3.643,3.768,0.0,0.0,0.0,0.0,0.0,0.0,0.0,0.0,0.0,0.0,0.0,0.0,0.0,0.0,0.0,0.0,0.0,0.0,0.0,0.0,0.0,0.0,0.0,0.0,0.0,0.0,0.0,0.0,0.0,0.0,0.0,0.0,0.0,0.0,0.0,0.0,0.0,0.0,0.0,0.0,0.0,0.0,0.0,0.0,0.0,0.0,0.0,0.0,0.0,4.0572,4.1642,4.2515,4.2168,4.1136,0.0,0.0,0.0,0.0,0.0,0.0,4.2984,4.3004,4.325,4.3811,4.4983,4.5904,4.6504,4.7702,4.8343,4.8454,4.8859,4.9144,4.9315,4.9712,4.9952,5.0029,5.0029,4.9771,4.9267,4.8815,4.8273,4.7703,4.7241,4.6525,4.5767,4.5651,4.5863,4.6345,0.0,0.0,0.0,0.0,0.0,0.0,0.0,0.0,0.0,0.0,0.0,3.3333,3.5287,3.6763,3.7869,3.8537,3.8766,3.8365,3.7165,3.5875,3.5145,3.5122,3.4563,3.4257,3.4257,3.5834,3.668,3.6776,0.0,0.0,0.0,0.0,0.0,0.0,0.0,0.0,0.0,0.0,0.0,0.0,0.0,0.0,0.0,0.0,0.0,0.0,0.0,0.0,0.0,0.0,0.0,0.0,0.0,0.0,0.0,0.0,0.0,0.0,0.0,0.0,0.0,0.0,0.0,0.0,0.0,0.0,0.0,0.0,0.0,0.0,0.0,0.0,0.0,0.0,0.0,0.0,0.0,0.0,0.0,4.3416,4.4998,0.0,0.0,0.0,0.0,4.2379,4.2774,4.3435,4.4341,4.441,4.5167,4.6836,4.6946,4.7387,4.8159,4.8269,4.7937,4.7181,4.7607,4.7564,4.7165,4.7567,4.7934,4.8222,4.8222,4.7818,4.7297,4.9219,4.9289,4.8126,4.7665,4.6993,4.6225,4.5765,4.6609,4.7991,0.0,0.0,0.0,0.0,0.0,0.0,0.0,0.0,0.0,3.166,3.31,3.438,3.5111,3.7395,3.8772,3.8464,3.9965,4.0053,3.8007,3.709,3.6385,3.5888,3.4798,3.4449,3.5026,3.6142,3.6622,0.0,0.0,0.0,0.0,0.0,0.0,0.0,0.0,0.0,0.0,0.0,0.0,0.0,0.0,0.0,0.0,0.0,0.0,0.0,0.0,0.0,0.0,0.0,0.0,0.0,0.0,0.0,0.0,0.0,0.0,0.0,0.0,0.0,0.0,0.0,0.0,0.0,0.0,0.0,0.0,0.0,0.0,0.0,0.0,0.0,0.0,0.0,0.0,0.0,0.0,0.0,0.0,4.4207,4.4865,0.0,4.3338,4.3877,4.4423,4.4668,4.6225,4.7103,4.6947,4.6943,4.6759,4.6355,4.6337,4.6464,4.6759,4.6759,4.6446,4.5822,4.6047,4.5864,4.5364,4.5779,4.6052,4.6206,4.6992,4.6897,4.634,4.7573,4.8015,4.7916,4.8216,4.8164,4.7857,4.7377,4.7588,4.8106,0.0,0.0,0.0,0.0,0.0,0.0,0.0,0.0,3.1371,3.166,3.3287,3.4679,3.5358,3.7853,3.9231,3.8619,4.0115,3.9996,3.7349,3.6491,3.5742,3.4963,3.4174,3.4314,3.5455,0.0,0.0,0.0,0.0,0.0,0.0,0.0,0.0,0.0,0.0,0.0,0.0,0.0,0.0,0.0,0.0,0.0,3.4182,0.0,0.0,0.0,0.0,0.0,0.0,0.0,0.0,0.0,0.0,0.0,0.0,0.0,0.0,0.0,0.0,0.0,0.0,0.0,0.0,0.0,0.0,0.0,0.0,0.0,0.0,0.0,0.0,0.0,0.0,0.0,0.0,0.0,0.0,0.0,4.3839,4.4448,4.5185,4.5257,4.4407,4.5315,4.6288,4.7063,4.8525,4.9067,4.8356,4.7766,4.6875,4.5535,4.5223,4.5205,4.548,4.5059,4.4637,4.429,4.3917,4.3565,4.3204,4.3224,4.3268,4.3325,4.411,4.4131,4.3655,4.4737,4.5469,4.603,4.7579,4.8193,4.8183,4.8125,4.8106,4.8068,0.0,0.0,0.0,0.0,0.0,0.0,0.0,3.0398,3.0698,3.1545,3.2626,3.4035,3.5987,3.7939,3.9069,3.9024,3.9069,3.7931,3.5165,3.3902,3.2955,3.2241,3.2679,3.3737,0.0,0.0,0.0,0.0,0.0,0.0,0.0,0.0,0.0,0.0,0.0,0.0,0.0,0.0,0.0,0.0,0.0,0.0,3.4112,0.0,0.0,0.0,0.0,0.0,0.0,0.0,0.0,0.0,0.0,0.0,0.0,0.0,0.0,0.0,0.0,0.0,0.0,0.0,0.0,0.0,0.0,0.0,0.0,0.0,0.0,0.0,0.0,0.0,0.0,0.0,0.0,0.0,4.1035,4.3017,4.4437,4.4285,4.6121,4.7018,4.5993,4.7517,4.8781,4.9337,4.936,4.901,4.8222,4.6609,4.5324,4.4536,4.375,4.3679,4.4481,4.324,4.2587,4.2536,4.1265,4.0701,4.0701,3.986,3.9502,3.9576,3.9615,3.9454,3.928,4.0859,4.1805,4.2498,4.5644,4.6877,4.6966,4.7696,4.7966,4.785,0.0,0.0,0.0,0.0,0.0,0.0,0.0,3.0398,3.0475,3.0737,3.2245,3.3521,3.4054,3.5895,3.7081,3.7063,3.6776,3.6138,3.5064,3.3471,3.2568,3.249,0.0,0.0,0.0,0.0,0.0,0.0,0.0,0.0,0.0,0.0,0.0,0.0,0.0,0.0,0.0,0.0,0.0,0.0,0.0,0.0,3.4856,0.0,0.0,0.0,0.0,0.0,0.0,0.0,0.0,0.0,0.0,0.0,0.0,0.0,0.0,0.0,0.0,0.0,0.0,0.0,0.0,0.0,0.0,0.0,0.0,0.0,0.0,0.0,0.0,0.0,0.0,0.0,0.0,4.2308,4.3352,4.5103,4.6607,4.7478,4.7469,4.7075,4.6266,4.6866,4.7233,4.7118,4.7713,4.7377,4.5726,4.4073,4.2323,4.0409,3.9758,3.9543,3.9777,4.0206,3.9966,3.8986,3.8487,3.7772,3.6847,3.664,3.6546,3.6649,3.7832,3.8128,3.7935,3.952,4.0065,4.0249,4.2915,4.4121,4.4378,4.4876,4.5182,4.5105,0.0,0.0,0.0,0.0,0.0,0.0,0.0,3.0398,3.0533,3.091,3.2321,3.3424,3.3802,3.5002,3.5624,3.5275,3.4984,3.4316,3.3065,3.2212,0.0,0.0,0.0,0.0,0.0,0.0,0.0,0.0,0.0,0.0,0.0,0.0,0.0,0.0,0.0,0.0,0.0,0.0,0.0,0.0,0.0,0.0,3.3655,3.364,3.4154,3.4908,3.4843,3.5802,3.7016,3.6803,0.0,0.0,0.0,0.0,0.0,0.0,0.0,0.0,0.0,0.0,0.0,0.0,0.0,0.0,0.0,0.0,0.0,0.0,0.0,0.0,0.0,0.0,0.0,0.0,4.114,4.3431,4.4651,4.6086,4.7277,4.7996,4.6885,4.597,4.5802,4.5354,4.5189,4.5449,4.516,4.4527,4.3445,4.1325,3.9331,3.7489,3.6925,3.6663,3.6682,3.7114,3.6969,3.6214,3.53,3.444,3.3575,3.3028,3.2732,3.2692,3.4165,3.4684,3.4623,3.6397,3.7203,0.0,0.0,0.0,0.0,0.0,4.3451,4.3365,0.0,0.0,0.0,0.0,0.0,0.0,0.0,3.0256,3.0583,3.1448,3.2433,3.3391,3.4257,3.4513,3.4348,3.3587,3.3505,3.2525,0.0,0.0,0.0,0.0,0.0,0.0,0.0,0.0,0.0,0.0,0.0,0.0,0.0,0.0,0.0,0.0,0.0,0.0,0.0,0.0,0.0,0.0,0.0,0.0,3.1732,3.1602,3.2448,3.3685,3.359,3.4568,3.6137,3.7299,0.0,0.0,0.0,0.0,0.0,0.0,0.0,0.0,0.0,0.0,0.0,0.0,0.0,0.0,0.0,0.0,0.0,0.0,0.0,0.0,0.0,0.0,0.0,0.0,4.2058,4.4121,4.4834,4.5866,4.6573,4.6701,4.5096,4.4163,4.4592,4.336,4.2923,4.3871,4.2205,4.1174,4.1246,0.0,0.0,0.0,0.0,3.4261,3.433,3.3963,3.3751,3.3623,3.2013,3.1128,3.0847,2.9659,2.8996,2.8841,2.9955,3.0472,3.0682,3.2627,3.3881,3.4992,3.8862,4.0456,4.073,4.1642,4.2156,4.2256,0.0,0.0,0.0,0.0,0.0,0.0,0.0,2.9352,2.966,3.0544,3.1255,3.1948,3.26,3.2521,3.2279,3.1905,3.1556,3.0921,0.0,0.0,0.0,0.0,0.0,0.0,0.0,0.0,0.0,0.0,0.0,0.0,0.0,0.0,0.0,0.0,0.0,0.0,0.0,0.0,0.0,0.0,0.0,0.0,3.1762,3.1762,3.2563,3.3797,3.3725,3.5533,3.7792,3.6862,3.7669,3.904,3.9244,0.0,0.0,0.0,0.0,0.0,0.0,0.0,0.0,0.0,0.0,0.0,0.0,0.0,0.0,0.0,0.0,0.0,0.0,0.0,0.0,3.8608,4.0757,4.2479,4.2677,4.3273,4.4005,4.4871,4.3904,4.2771,4.1876,4.1525,4.1266,4.1194,4.0094,3.9195,3.859,3.5243,3.3051,3.2403,3.0951,3.0145,3.0159,3.0929,3.0737,2.9599,0.0,0.0,2.8945,2.8682,2.8822,2.9258,2.9365,2.9689,3.0196,3.1259,3.2145,3.3168,3.5939,3.7814,3.8888,3.8365,3.9458,4.0883,0.0,0.0,0.0,0.0,0.0,0.0,0.0,2.8486,2.8659,2.9083,2.9658,3.0285,3.1021,3.049,3.018,3.0391,2.989,0.0,0.0,0.0,0.0,0.0,0.0,0.0,0.0,0.0,0.0,0.0,0.0,0.0,0.0,0.0,0.0,0.0,0.0,0.0,0.0,0.0,0.0,0.0,0.0,0.0,2.9548,2.9275,2.9588,3.0299,3.0784,3.2687,3.5005,3.5701,3.7177,3.8902,3.9526,3.9773,3.9412,0.0,0.0,0.0,0.0,0.0,0.0,0.0,0.0,0.0,0.0,0.0,0.0,0.0,0.0,3.8089,0.0,0.0,3.8294,3.8811,3.9328,3.9805,4.0262,3.9831,4.0277,4.2446,4.1805,4.086,3.9931,3.892,3.8254,3.7961,3.6468,3.5208,3.4393,3.1737,2.9814,2.8846,2.8059,2.7465,2.7112,2.8297,2.8379,2.7322,2.7369,2.7022,2.6272,2.6027,2.6306,2.6969,2.7534,2.8139,2.8828,2.9875,3.0567,3.1038,3.2496,3.45,3.6499,3.6565,3.7404,3.8343,0.0,0.0,0.0,0.0,0.0,0.0,0.0,0.0,2.7755,2.8082,2.8364,2.8855,2.9684,2.8831,2.8461,2.9077,0.0,0.0,0.0,0.0,0.0,0.0,0.0,0.0,0.0,0.0,0.0,0.0,0.0,0.0,0.0,0.0,0.0,0.0,0.0,0.0,0.0,0.0,0.0,0.0,0.0,0.0,2.6962,2.6709,2.6665,2.6848,2.7466,2.9071,3.1188,3.3545,3.5776,3.7745,3.9029,4.034,4.0729,3.7209,3.8008,0.0,0.0,0.0,0.0,0.0,0.0,0.0,0.0,0.0,3.7592,3.775,3.835,3.8761,3.8543,3.7971,3.7721,3.8437,3.7542,3.6879,3.7268,3.628,3.6448,3.8934,3.903,3.8631,3.7966,3.6582,3.5564,3.5153,3.3156,3.1532,3.0524,2.8635,2.7028,2.5754,2.5634,2.5371,2.4906,2.5976,2.609,2.5314,2.5072,2.4612,2.3975,2.3639,2.3906,2.4722,2.5756,2.6547,2.717,2.8173,2.8693,2.89,2.9408,3.1113,3.3521,3.4929,3.5566,3.5757,0.0,0.0,0.0,0.0,0.0,0.0,0.0,0.0,0.0,2.8775,2.8398,2.8234,2.8883,2.8141,2.7774,0.0,0.0,0.0,0.0,0.0,0.0,0.0,0.0,0.0,0.0,0.0,0.0,0.0,0.0,0.0,0.0,0.0,0.0,0.0,0.0,0.0,0.0,0.0,0.0,0.0,0.0,0.0,2.602,2.6474,2.6876,2.7138,2.6381,2.7375,2.9213,2.9568,3.2037,3.5165,3.7142,3.8802,3.9467,3.7261,0.0,3.7687,3.3337,3.299,0.0,3.7784,3.7971,3.8287,0.0,0.0,4.1981,4.2014,4.2237,4.1864,3.9988,3.9052,3.7871,3.5588,3.5003,3.4409,3.323,3.3308,3.3415,3.3353,3.5349,3.6314,3.5161,3.5464,3.5195,3.4012,3.2443,3.0768,2.8946,2.6941,2.5555,2.4769,2.3701,2.3326,2.3747,2.3943,2.3535,2.2543,2.3366,2.3566,2.3246,2.3467,2.4184,2.5334,2.5459,2.5553,2.5647,2.5785,2.6235,2.6905,2.75,2.8305,2.9501,3.2165,3.3628,3.4284,0.0,0.0,0.0,0.0,0.0,0.0,0.0,0.0,0.0,0.0,2.7351,2.7426,2.8183,2.8155,0.0,0.0,0.0,0.0,0.0,0.0,0.0,0.0,0.0,0.0,0.0,0.0,0.0,0.0,0.0,0.0,0.0,0.0,0.0,0.0,0.0,0.0,0.0,0.0,0.0,0.0,0.0,0.0,2.7078,2.6692,2.6693,2.6647,2.4952,2.4778,0.0,0.0,2.9502,3.2288,3.4485,3.5933,3.6488,3.4735,3.5499,0.0,3.5892,0.0,0.0,0.0,3.9847,4.0634,4.1963,4.2099,4.1782,4.1118,4.1091,4.0521,3.8448,3.7132,3.5702,0.0,3.2358,3.1128,3.0128,2.984,2.9934,3.0486,3.1563,3.2398,3.2694,3.3029,3.2685,3.1313,2.9955,2.8393,2.6441,2.479,2.3428,2.245,2.1432,2.1158,2.1589,2.1516,2.1368,2.1211,2.1666,2.2066,2.2415,2.256,2.3384,2.4779,2.5233,2.5396,2.5396,2.5729,2.6148,2.6567,2.7122,2.7625,2.8213,3.0401,3.1597,3.2247,0.0,0.0,0.0,0.0,0.0,0.0,0.0,0.0,0.0,0.0,2.6755,2.6928,2.7794,0.0,0.0,0.0,0.0,0.0,0.0,0.0,0.0,0.0,0.0,0.0,0.0,0.0,0.0,0.0,0.0,0.0,0.0,0.0,0.0,0.0,0.0,0.0,0.0,0.0,0.0,0.0,0.0,0.0,2.8262,2.748,2.6677,2.5793,2.3835,2.3078,0.0,0.0,2.7196,2.967,3.1503,3.2897,3.3604,3.2256,3.3087,3.4857,3.6626,0.0,0.0,3.9238,4.0533,4.1369,4.1159,4.0854,4.0438,3.9679,3.9367,3.8663,3.6831,3.5307,3.3754,3.2016,3.0103,2.8471,2.7389,2.7292,2.7654,2.8517,2.9311,3.003,3.0766,3.1038,3.0606,2.926,2.8144,2.653,2.4264,2.3211,2.2018,2.0592,1.9786,1.9602,2.0163,1.9851,1.985,2.0234,2.0566,2.0978,2.1581,2.1999,2.2857,2.4,2.4533,2.4758,2.4831,2.5182,2.5768,2.6458,2.6674,2.725,2.8001,2.8996,2.9737,3.0368,0.0,0.0,0.0,0.0,0.0,0.0,0.0,0.0,0.0,0.0,0.0,0.0,0.0,0.0,0.0,0.0,0.0,0.0,0.0,0.0,0.0,0.0,0.0,0.0,0.0,0.0,0.0,0.0,0.0,0.0,0.0,0.0,0.0,0.0,0.0,0.0,0.0,0.0,0.0,0.0,0.0,0.0,2.89,2.8825,2.7226,2.4838,2.312,0.0,0.0,0.0,2.4902,2.7706,2.8281,2.9886,0.0,3.0781,3.0558,0.0,0.0,0.0,3.5652,3.8361,3.9132,3.9385,4.0142,3.9518,3.879,3.8723,3.8284,3.7407,3.6023,3.4638,3.2825,3.0045,2.8477,2.6868,2.4925,2.6196,2.7341,2.7295,2.9371,3.0451,0.0,2.9902,2.9772,2.8595,2.7825,2.6054,2.2922,2.2728,2.1822,1.9888,1.9113,1.9203,2.0204,1.949,1.9229,1.9338,2.0443,2.088,2.0728,2.2354,2.3065,2.315,2.3163,2.3163,2.3163,2.3175,2.4465,2.6323,2.5726,2.6716,2.8505,2.7891,2.8052,2.8781,0.0,0.0,0.0,0.0,0.0,0.0,0.0,0.0,0.0,0.0,0.0,0.0,0.0,0.0,0.0,0.0,0.0,0.0,0.0,0.0,0.0,0.0,0.0,0.0,0.0,0.0,0.0,0.0,0.0,0.0,0.0,0.0,0.0,0.0,0.0,0.0,0.0,0.0,0.0,0.0,0.0,0.0,3.1141,2.8851,2.7806,2.7157,0.0,0.0,0.0,0.0,0.0,0.0,2.6828,0.0,2.7618,2.7791,2.844,2.9604,3.2096,0.0,3.5363,3.6203,3.7184,3.7654,3.6614,3.6427,3.629,3.5393,3.4751,3.3993,3.2545,3.1177,2.9532,2.7186,2.6045,2.4943,2.3261,2.4213,2.5843,2.7953,2.923,0.0,0.0,0.0,0.0,2.7925,2.6753,2.5228,2.3331,2.2491,2.1341,1.9875,1.8924,1.8614,1.8939,1.8005,1.7658,1.8086,1.9857,2.1014,2.1491,2.2628,2.3078,2.3078,2.3078,2.3078,2.315,2.3555,2.4511,2.5771,2.5859,2.6747,2.7906,2.767,2.775,2.8111,0.0,0.0,0.0,0.0,0.0,0.0,0.0,0.0,0.0,0.0,0.0,0.0,0.0,0.0,0.0,0.0,0.0,0.0,0.0,0.0,0.0,0.0,0.0,0.0,0.0,0.0,0.0,0.0,0.0,0.0,0.0,0.0,0.0,0.0,0.0,0.0,0.0,0.0,0.0,0.0,0.0,0.0,3.0596,2.8274,2.7395,0.0,0.0,0.0,0.0,0.0,0.0,0.0,0.0,2.5394,2.5477,2.6778,2.7747,2.9001,3.1546,3.3421,3.4645,3.453,3.4798,3.4633,3.2835,3.2623,3.2678,3.2296,3.2072,3.1678,3.0923,2.9969,2.8523,2.6083,2.5232,2.4333,2.2968,2.3933,2.5766,2.8423,3.0198,3.1808,0.0,0.0,0.0,2.7742,2.6199,2.4698,2.3197,2.2014,2.0978,2.0168,1.9037,1.8409,1.8288,1.7346,1.7317,1.8281,1.9673,2.1068,2.2346,2.2857,2.2905,2.2566,2.271,2.2702,2.2552,2.3166,2.4363,2.5786,2.5895,2.6722,2.7919,2.7715,2.7625,2.7745,0.0,0.0,0.0,0.0,0.0,0.0,0.0,0.0,0.0,0.0,0.0,0.0,0.0,0.0,0.0,0.0,0.0,0.0,0.0,0.0,0.0,0.0,0.0,0.0,0.0,0.0,0.0,0.0,0.0,0.0,0.0,0.0,0.0,0.0,0.0,0.0,0.0,0.0,0.0,0.0,0.0,0.0,2.7886,2.7226,0.0,0.0,0.0,0.0,0.0,0.0,0.0,0.0,0.0,2.4303,2.5256,2.7683,2.8467,2.9132,3.1642,3.2872,3.3359,3.3115,3.1967,3.0539,2.8971,2.832,2.8372,2.9736,3.022,3.0503,0.0,0.0,2.9377,2.6702,2.5778,2.5007,2.3747,2.5095,2.6881,0.0,0.0,0.0,0.0,0.0,0.0,2.808,0.0,2.4523,2.2609,2.1452,2.0849,2.0798,1.9455,1.8578,1.8305,1.7625,1.8089,1.9843,1.9879,2.0973,2.3002,2.305,2.2464,2.155,2.213,2.2083,2.1632,2.2226,2.4036,2.6316,2.573,2.6694,2.8472,2.7814,2.7625,2.7695,0.0,0.0,0.0,0.0,0.0,0.0,0.0,0.0,0.0,0.0,0.0,0.0,0.0,0.0,0.0,0.0,0.0,0.0,0.0,0.0,0.0,0.0,0.0,0.0,0.0,0.0,0.0,0.0,0.0,0.0,0.0,0.0,0.0,0.0,0.0,0.0,0.0,0.0,0.0,0.0,0.0,0.0,3.0785,0.0,0.0,0.0,0.0,0.0,0.0,0.0,0.0,0.0,0.0,2.7821,2.7794,2.8984,2.9663,3.0036,3.0279,3.1108,3.1443,2.9304,2.7998,2.6818,2.5403,2.5791,2.6747,2.7624,2.8048,2.8206,0.0,0.0,0.0,2.5735,2.5557,0.0,2.3756,2.4623,0.0,0.0,0.0,3.252,3.3753,3.3548,0.0,0.0,2.7419,2.5743,2.3828,2.2276,2.126,2.0823,1.9786,1.9016,1.8619,1.8235,1.8284,1.887,1.9689,2.0766,2.1927,2.1889,2.1776,2.1555,2.2646,2.305,2.301,2.4126,2.5356,2.6454,2.6272,2.6875,2.7814,2.7634,2.7625,2.771,0.0,0.0,0.0,0.0,0.0,0.0,0.0,0.0,0.0,0.0,0.0,0.0,0.0,0.0,0.0,0.0,0.0,0.0,0.0,0.0,0.0,0.0,0.0,0.0,0.0,0.0,0.0,0.0,0.0,0.0,0.0,0.0,0.0,0.0,0.0,0.0,0.0,0.0,0.0,0.0,0.0,0.0,0.0,0.0,0.0,0.0,0.0,0.0,0.0,0.0,0.0,2.8633,3.0278,3.0212,2.9692,3.0626,0.0,3.0448,3.0072,3.0033,2.9446,2.6897,2.511,2.368,2.233,2.2784,2.3903,2.5388,2.5988,0.0,0.0,0.0,0.0,0.0,0.0,0.0,2.4962,2.5092,2.5986,0.0,2.9962,0.0,3.2698,3.3019,3.2111,0.0,2.7836,2.6079,2.4265,2.2817,2.1795,2.1198,2.0425,1.9608,1.8697,1.8227,1.834,1.8976,1.9614,2.0504,2.1487,2.1526,2.1399,2.1263,0.0,2.3071,2.3217,2.4463,2.5584,2.651,2.651,2.693,2.7625,2.7625,2.7625,2.766,0.0,0.0,0.0,0.0,0.0,0.0,0.0,0.0,0.0,0.0,0.0,0.0,0.0,0.0,0.0,0.0,0.0,0.0,0.0,0.0,0.0,0.0,0.0,0.0,0.0,0.0,0.0,0.0,0.0,0.0,0.0,0.0,0.0,0.0,0.0,0.0,0.0,0.0,0.0,0.0,0.0,0.0,0.0,0.0,0.0,0.0,0.0,0.0,0.0,0.0,3.1083,3.0542,3.2321,3.2109,3.1434,3.2326,3.1562,3.0431,3.0155,2.9109,2.7543,2.5239,2.3103,2.1282,2.0085,2.0224,2.1244,2.3639,0.0,0.0,2.7385,0.0,2.7913,2.7175,0.0,2.6568,2.6376,2.5984,2.6196,2.7551,2.9414,3.0638,3.0728,3.1837,3.1728,2.9737,2.7962,2.6175,2.4513,2.3268,2.2306,2.1625,2.1069,2.0143,1.8697,1.818,1.8437,1.9467,1.9556,2.0227,2.1383,2.1383,2.129,2.1116,2.2362,0.0,2.3181,2.4427,2.5597,2.6669,2.6669,2.7034,2.7625,2.7625,2.766,2.781,0.0,0.0,0.0,0.0,0.0,0.0,0.0,0.0,0.0,0.0,3.0852,3.0398,0.0,0.0,0.0,0.0,0.0,0.0,0.0,0.0,0.0,0.0,0.0,0.0,0.0,0.0,0.0,0.0,0.0,0.0,0.0,0.0,0.0,0.0,0.0,0.0,0.0,0.0,0.0,0.0,0.0,0.0,0.0,0.0,0.0,0.0,0.0,0.0,0.0,0.0,3.333,3.3916,3.5431,3.5042,3.3945,3.3556,3.2048,3.0155,2.8455,2.7382,2.6021,2.303,2.1724,2.1011,2.0603,2.1087,0.0,0.0,0.0,2.59,2.6759,2.7681,0.0,2.7097,0.0,0.0,0.0,0.0,2.624,0.0,0.0,0.0,0.0,0.0,0.0,0.0,0.0,2.7514,2.6162,2.4315,2.2601,2.1004,2.0862,2.0143,1.8697,1.9153,1.923,1.8861,1.9455,2.0182,2.0908,2.0908,2.1456,2.2427,2.3745,0.0,2.5193,2.6535,2.7187,2.7408,2.7408,2.7509,2.7625,2.7625,2.791,2.8415,0.0,0.0,0.0,0.0,0.0,0.0,0.0,3.0398,3.0717,3.1583,3.1352,3.1083,3.1083,3.1083,0.0,0.0,0.0,0.0,0.0,0.0,0.0,0.0,0.0,0.0,0.0,0.0,0.0,0.0,0.0,0.0,0.0,0.0,0.0,0.0,0.0,0.0,0.0,0.0,0.0,0.0,0.0,0.0,0.0,0.0,0.0,0.0,0.0,0.0,0.0,0.0,3.3614,3.4242,3.6118,3.5795,3.4476,3.3427,3.1589,2.955,2.7937,2.6659,2.5229,2.2959,2.1668,2.088,2.0523,0.0,0.0,0.0,0.0,2.523,2.5509,2.644,0.0,0.0,0.0,0.0,0.0,0.0,0.0,0.0,0.0,0.0,0.0,0.0,0.0,0.0,0.0,2.6609,2.5963,2.4006,2.2716,2.2236,2.1276,2.0502,1.9798,1.9798,1.962,1.9278,1.9633,2.0144,2.0795,2.0795,2.1694,2.3277,2.4258,0.0,2.5673,2.7056,2.7365,2.7096,2.749,2.7625,2.7705,2.8373,2.8827,2.92,0.0,0.0,0.0,0.0,0.0,0.0,0.0,3.0679,3.1064,3.2102,3.2237,3.2237,3.2237,3.2064,3.1679,0.0,0.0,0.0,0.0,0.0,0.0,0.0,0.0,0.0,0.0,0.0,0.0,0.0,0.0,0.0,0.0,0.0,0.0,0.0,0.0,0.0,0.0,0.0,0.0,0.0,0.0,0.0,0.0,0.0,0.0,0.0,0.0,0.0,0.0,0.0,3.3412,3.3451,3.5515,3.5278,3.391,3.2509,3.0717,2.8876,2.7588,2.6147,2.4624,2.2887,2.1813,2.0912,2.0292,2.0431,0.0,0.0,0.0,2.4296,2.4478,0.0,0.0,0.0,0.0,0.0,0.0,0.0,0.0,0.0,0.0,0.0,0.0,0.0,0.0,0.0,0.0,0.0,2.526,2.3662,2.2999,2.3477,2.2019,2.1099,2.0785,2.0284,2.0016,2.0016,1.9991,2.0446,2.1237,2.1358,2.2422,2.4127,2.4815,0.0,0.0,2.7096,2.7186,2.6677,2.7485,2.7885,2.8182,2.9373,3.0,3.0355,0.0,0.0,0.0,0.0,0.0,0.0,0.0,3.1583,3.216,3.3757,3.3968,3.3968,3.3968,3.3256,3.2756,0.0,0.0,0.0,0.0,0.0,0.0,0.0,0.0,0.0,0.0,0.0,0.0,0.0,0.0,0.0,0.0,0.0,0.0,0.0,0.0,0.0,0.0,0.0,0.0,0.0,0.0,0.0,0.0,0.0,0.0,0.0,0.0,0.0,0.0,0.0,0.0,3.2304,3.3862,3.3533,3.2334,3.0942,0.0,0.0,2.6856,2.5449,2.3813,2.1429,2.1162,2.1153,2.0073,0.0,0.0,0.0,2.329,2.3718,2.4374,0.0,0.0,0.0,0.0,0.0,0.0,0.0,0.0,0.0,0.0,0.0,0.0,0.0,0.0,0.0,0.0,0.0,2.4827,2.4289,2.3811,2.352,2.2864,2.1988,2.0785,2.0762,2.0713,2.0713,2.0706,2.1369,2.2526,2.3145,2.4141,2.5446,2.6117,0.0,0.0,2.7275,2.7186,2.6722,2.8008,2.887,2.9487,3.0219,3.1246,3.2147,0.0,0.0,0.0,0.0,0.0,0.0,3.0929,3.0987,3.1571,3.3263,3.3474,3.4051,3.5545,3.4968,3.4045,3.2987,0.0,0.0,0.0,0.0,0.0,0.0,0.0,0.0,0.0,0.0,0.0,0.0,0.0,0.0,0.0,0.0,0.0,0.0,0.0,0.0,0.0,0.0,0.0,0.0,0.0,0.0,0.0,0.0,0.0,0.0,0.0,0.0,0.0,0.0,0.0,0.0,3.1564,3.0956,0.0,0.0,2.842,2.6938,2.5959,2.5228,2.4344,2.2524,2.2065,2.1767,2.0964,0.0,0.0,2.1729,2.2648,2.3342,2.319,0.0,0.0,0.0,0.0,0.0,0.0,0.0,0.0,0.0,0.0,0.0,0.0,0.0,0.0,0.0,0.0,0.0,2.456,2.4131,2.4072,2.453,2.3655,2.2759,2.1979,2.1533,2.1356,2.1335,2.1315,2.1819,2.2709,2.2968,2.422,2.6168,2.6428,0.0,0.0,2.7682,2.7273,2.6186,2.7887,2.8965,2.9762,3.123,3.2329,3.3181,0.0,0.0,0.0,0.0,0.0,3.0533,3.084,3.0912,3.1514,3.3176,3.3385,3.423,3.6454,3.5988,3.5103,3.4103,3.3045,0.0,0.0,0.0,0.0,0.0,0.0,0.0,0.0,0.0,0.0,0.0,0.0,0.0,0.0,0.0,0.0,0.0,0.0,0.0,0.0,0.0,0.0,0.0,0.0,0.0,0.0,0.0,0.0,0.0,0.0,0.0,0.0,0.0,0.0,0.0,0.0,0.0,0.0,0.0,2.7684,2.6436,2.5716,2.538,2.4925,2.3688,2.3013,2.2457,0.0,0.0,0.0,2.1031,2.2118,2.2936,2.2508,0.0,0.0,0.0,0.0,0.0,0.0,0.0,0.0,0.0,0.0,0.0,0.0,0.0,0.0,0.0,0.0,0.0,2.4747,2.4145,2.4208,2.5173,2.4277,2.342,2.2694,2.2249,2.1992,2.1993,2.1993,2.2246,2.2717,2.3245,2.4491,2.6243,2.6779,0.0,0.0,2.8109,2.7595,2.6334,2.8088,2.9354,3.04,3.2164,3.3363,3.4234,0.0,0.0,0.0,0.0,0.0,0.0,3.1648,3.1842,3.2454,3.407,3.4299,3.4903,3.6512,3.5988,3.5815,3.6603,3.5141,0.0,0.0,0.0,0.0,0.0,0.0,0.0,0.0,0.0,0.0,0.0,0.0,0.0,0.0,0.0,0.0,0.0,0.0,0.0,0.0,0.0,0.0,0.0,0.0,0.0,0.0,0.0,0.0,0.0,0.0,0.0,0.0,0.0,0.0,0.0,0.0,0.0,0.0,0.0,2.737,2.7048,2.6426,2.5845,2.5188,2.4321,2.3821,2.3152,0.0,0.0,0.0,2.114,2.1691,2.2378,2.2666,2.2988,2.3594,0.0,0.0,0.0,0.0,0.0,0.0,0.0,0.0,0.0,0.0,0.0,0.0,0.0,0.0,0.0,2.548,2.4498,2.4296,2.5173,2.4657,2.3834,2.2694,2.2694,2.2694,2.2694,2.2694,2.2703,2.2768,2.4545,2.5443,2.5633,0.0,0.0,0.0,2.8482,2.8093,2.7627,2.8976,3.035,3.171,3.3008,3.4372,3.5459,0.0,0.0,0.0,0.0,0.0,0.0,0.0,3.1077,3.1661,3.3324,3.3561,3.4356,3.6474,3.5988,3.5834,3.6642,3.5161,0.0,0.0,0.0,0.0,0.0,0.0,0.0,0.0,0.0,0.0,0.0,0.0,0.0,0.0,0.0,0.0,0.0,0.0,0.0,0.0,0.0,0.0,0.0,0.0,0.0,0.0,0.0,0.0,0.0,0.0,0.0,0.0,0.0,0.0,0.0,0.0,0.0,0.0,0.0,0.0,0.0,2.6236,2.5905,2.5603,2.444,2.3838,2.3106,2.1786,0.0,0.0,0.0,0.0,2.2406,2.27,2.3006,2.358,2.4706,0.0,0.0,0.0,0.0,0.0,0.0,0.0,0.0,0.0,0.0,0.0,0.0,0.0,0.0,2.5479,2.4903,2.488,2.573,2.5221,2.4617,2.3891,2.3478,2.3334,2.3334,2.3334,2.3251,2.3142,2.4246,2.5123,0.0,0.0,0.0,0.0,2.8767,2.8629,2.824,2.9536,3.092,3.2331,3.3134,3.4347,3.5588,0.0,0.0,0.0,0.0,0.0,0.0,0.0,3.0742,3.1242,3.2532,3.2997,3.3991,3.6012,3.5815,3.582,3.6628,3.5468,0.0,0.0,0.0,0.0,0.0,0.0,0.0,0.0,0.0,0.0,0.0,0.0,0.0,0.0,0.0,0.0,0.0,0.0,0.0,0.0,0.0,0.0,0.0,0.0,0.0,3.6494,0.0,0.0,0.0,0.0,0.0,0.0,0.0,0.0,0.0,0.0,0.0,0.0,0.0,2.8763,2.7625,0.0,2.6553,2.6484,2.5553,2.4892,0.0,0.0,0.0,0.0,0.0,0.0,0.0,2.2717,2.3242,2.3808,2.4364,2.5309,0.0,0.0,0.0,0.0,0.0,0.0,0.0,0.0,0.0,0.0,0.0,0.0,0.0,2.5931,2.5313,2.5297,2.6229,2.5762,2.5144,2.4389,2.4074,2.3794,2.3595,2.3595,2.3489,2.3374,2.428,2.5182,0.0,0.0,0.0,0.0,2.8808,2.8903,2.9183,2.9674,3.0771,3.2205,3.3059,3.4167,3.5233,0.0,0.0,0.0,0.0,0.0,0.0,0.0,3.0823,3.1133,3.1816,3.2668,3.3761,3.5243,3.5455,3.5801,3.6551,0.0,0.0,0.0,0.0,0.0,0.0,0.0,0.0,0.0,0.0,0.0,0.0,3.5945,3.65,3.7046,0.0,0.0,0.0,0.0,0.0,0.0,0.0,0.0,0.0,0.0,3.5081,0.0,0.0,0.0,0.0,0.0,0.0,0.0,0.0,0.0,0.0,0.0,0.0,0.0,0.0,0.0,0.0,0.0,2.759,2.7524,2.7238,2.6617,0.0,0.0,0.0,0.0,0.0,0.0,0.0,2.2954,2.3774,2.4333,2.3931,2.5604,0.0,0.0,0.0,0.0,0.0,0.0,0.0,0.0,0.0,0.0,0.0,0.0,0.0,2.6629,2.5671,2.5581,2.6674,2.6297,2.5577,2.4511,2.443,2.4127,2.3578,2.3608,2.3542,2.3398,2.4678,2.5545,0.0,0.0,0.0,0.0,2.8683,2.9032,3.0327,2.9593,3.0212,3.162,3.2934,3.3863,3.4607,0.0,0.0,0.0,0.0,0.0,0.0,0.0,0.0,0.0,0.0,3.2667,3.3532,3.4422,3.5109,3.557,0.0,0.0,0.0,0.0,0.0,0.0,0.0,0.0,0.0,0.0,0.0,0.0,3.4512,3.5026,3.5606,3.6196,3.7015,0.0,0.0,0.0,0.0,0.0,0.0,0.0,0.0,3.6178,3.5982,0.0,0.0,0.0,0.0,3.3862,3.3403,0.0,0.0,0.0,0.0,0.0,0.0,0.0,0.0,2.9501,2.8759,2.8316,0.0,2.6762,2.668,2.6057,2.518,0.0,0.0,0.0,0.0,0.0,0.0,2.5253,2.575,2.5996,2.5515,0.0,0.0,0.0,0.0,0.0,0.0,0.0,0.0,0.0,0.0,0.0,0.0,0.0,2.6303,2.6689,2.6101,2.6034,2.6674,2.659,2.6245,2.5615,2.4831,2.4085,2.3471,2.3979,2.3849,2.3247,2.5009,2.5771,0.0,0.0,0.0,2.9228,2.8932,2.9648,3.0958,3.0813,3.1301,3.2193,3.3077,3.3863,3.4607,0.0,0.0,0.0,0.0,0.0,0.0,0.0,0.0,0.0,0.0,0.0,0.0,0.0,0.0,0.0,0.0,0.0,0.0,0.0,0.0,0.0,0.0,0.0,0.0,0.0,0.0,0.0,0.0,0.0,3.5578,0.0,0.0,0.0,0.0,0.0,0.0,0.0,0.0,0.0,0.0,3.5735,0.0,0.0,0.0,0.0,0.0,3.3368,3.2957,0.0,3.2169,3.1774,3.1352,0.0,0.0,0.0,0.0,2.9332,2.8938,2.8732,2.8029,2.7367,2.7381,2.6775,2.5984,0.0,0.0,0.0,0.0,0.0,0.0,0.0,0.0,0.0,0.0,0.0,0.0,0.0,0.0,0.0,0.0,0.0,0.0,0.0,0.0,0.0,0.0,0.0,2.6899,2.6982,2.6571,2.6438,2.6691,2.6691,2.647,2.5997,2.5411,2.4678,2.373,2.4422,2.4455,2.3935,2.5489,2.6286,0.0,0.0,0.0,2.9177,2.8657,2.9533,3.1157,3.0835,3.114,3.1867,3.2611,3.3355,3.41,0.0,0.0,0.0,0.0,0.0,0.0,0.0,0.0,0.0,0.0,0.0,0.0,0.0,0.0,0.0,0.0,0.0,0.0,0.0,0.0,0.0,0.0,0.0,0.0,0.0,0.0,0.0,0.0,0.0,0.0,0.0,0.0,0.0,0.0,0.0,0.0,0.0,0.0,0.0,0.0,3.4769,0.0,0.0,0.0,0.0,0.0,0.0,0.0,0.0,3.1506,3.1146,3.0925,3.0222,0.0,0.0,0.0,0.0,0.0,2.8994,2.8847,2.8664,2.8583,2.7962,2.7232,0.0,0.0,0.0,0.0,0.0,0.0,0.0,0.0,0.0,0.0,0.0,0.0,0.0,0.0,0.0,0.0,0.0,0.0,0.0,0.0,0.0,0.0,0.0,2.7461,2.7317,2.6985,2.6741,2.6691,2.6691,2.6505,2.612,2.6049,2.5419,2.4248,2.496,2.5151,2.4873,2.6068,2.6852,2.7303,0.0,0.0,2.942,2.8406,2.9262,3.114,3.0514,3.0649,3.1292,3.2138,3.2848,3.3525,0.0,0.0,0.0,0.0,0.0,0.0,0.0,0.0,0.0,0.0,0.0,0.0,0.0,0.0,0.0,0.0,0.0,0.0,0.0,0.0,0.0,0.0,0.0,0.0,0.0,0.0,0.0,0.0,0.0,0.0,3.6038,3.7317,3.7759,0.0,0.0,0.0,0.0,0.0,0.0,3.5844,3.5266,0.0,0.0,0.0,0.0,0.0,0.0,0.0,0.0,3.0643,2.9917,2.9342,2.9232,0.0,0.0,0.0,0.0,0.0,2.8994,2.9467,2.9834,2.9515,2.8606,2.7852,0.0,0.0,0.0,0.0,0.0,0.0,0.0,0.0,0.0,0.0,0.0,0.0,0.0,0.0,0.0,0.0,0.0,0.0,0.0,0.0,0.0,0.0,0.0,2.8216,2.7361,2.7255,2.7051,2.6725,2.6691,2.6657,2.659,2.6191,2.5615,2.4872,2.5543,2.5546,2.501,2.6514,2.7224,2.7303,0.0,2.812,2.9454,2.8985,2.9753,3.119,3.1072,3.1106,3.136,3.273,3.3305,3.3701,0.0,0.0,0.0,0.0,0.0,0.0,0.0,0.0,0.0,0.0,0.0,0.0,0.0,0.0,0.0,0.0,0.0,0.0,0.0,0.0,0.0,0.0,0.0,0.0,0.0,0.0,0.0,0.0,0.0,3.5848,3.5721,3.6754,3.7275,3.7244,0.0,0.0,0.0,0.0,3.5413,3.4945,0.0,0.0,0.0,0.0,0.0,0.0,0.0,0.0,0.0,0.0,2.93,2.9044,2.9182,0.0,0.0,0.0,0.0,0.0,2.9053,2.9278,2.9806,3.0932,3.038,0.0,0.0,0.0,0.0,0.0,0.0,0.0,0.0,0.0,0.0,0.0,0.0,0.0,0.0,0.0,0.0,0.0,0.0,0.0,0.0,0.0,0.0,0.0,0.0,0.0,2.8129,2.7816,2.753,2.7348,2.7348,2.7348,2.7348,2.6937,2.6252,2.533,2.605,2.6101,2.5686,2.7031,2.7619,2.7654,0.0,2.8725,2.9489,2.9564,3.0226,3.119,3.119,3.1427,3.1952,3.344,3.4193,3.4737,0.0,0.0,0.0,0.0,0.0,0.0,0.0,0.0,0.0,0.0,0.0,0.0,0.0,0.0,0.0,0.0,0.0,0.0,0.0,0.0,0.0,0.0,0.0,0.0,0.0,0.0,0.0,3.5185,3.593,3.6121,3.5799,3.6528,3.6872,0.0,0.0,0.0,0.0,3.5409,3.4988,3.387,0.0,0.0,0.0,0.0,0.0,0.0,0.0,0.0,0.0,0.0,0.0,0.0,0.0,0.0,0.0,2.9455,2.9425,2.9352,2.9145,2.9241,2.9853,0.0,0.0,0.0,0.0,0.0,0.0,0.0,0.0,0.0,0.0,0.0,0.0,0.0,0.0,0.0,0.0,0.0,0.0,0.0,0.0,0.0,0.0,0.0,0.0,0.0,0.0,0.0,2.8796,2.8348,2.8057,2.7897,2.7897,2.7897,2.7897,2.7589,2.7009,2.6133,2.6601,2.6845,2.6894,2.7674,2.8233,2.8607,2.8882,2.9347,2.9935,3.0043,3.0531,3.1207,3.1376,3.2002,3.2933,3.4066,3.4959,3.5844,0.0,0.0,0.0,0.0,0.0,0.0,0.0,0.0,0.0,0.0,0.0,0.0,0.0,0.0,0.0,0.0,0.0,0.0,0.0,0.0,0.0,0.0,0.0,0.0,0.0,3.5493,3.5474,3.5455,3.604,3.6406,3.665,3.7186,3.6907,3.5978,0.0,0.0,0.0,0.0,3.4636,3.3834,3.413,0.0,0.0,0.0,0.0,0.0,0.0,0.0,0.0,0.0,0.0,0.0,0.0,0.0,2.9435,2.9621,2.9547,2.9389,2.937,2.9915,3.064,0.0,0.0,0.0,0.0,0.0,0.0,0.0,0.0,0.0,0.0,0.0,0.0,0.0,0.0,0.0,0.0,0.0,0.0,0.0,0.0,0.0,0.0,0.0,0.0,0.0,0.0,0.0,2.8842,2.8769,2.8481,2.7926,2.7897,2.7897,2.7897,2.7869,2.7805,2.7723,2.7422,2.7849,2.8882,2.8542,2.9224,3.0612,2.9478,2.9819,3.11,3.0394,3.0531,3.1258,3.1935,3.3068,3.4336,3.4455,3.5283,3.6533,0.0,0.0,0.0,0.0,0.0,0.0,0.0,0.0,0.0,0.0,0.0,0.0,0.0,0.0,0.0,0.0,0.0,0.0,0.0,0.0,0.0,0.0,0.0,3.5301,3.4768,3.5282,3.5565,3.5565,3.5892,3.6615,3.7668,3.6476,0.0,0.0,0.0,0.0,0.0,0.0,3.4693,3.4073,3.4383,3.4811,0.0,0.0,0.0,0.0,0.0,0.0,0.0,0.0,2.9112,2.9291,0.0,0.0,2.9792,2.9868,2.9817,2.9738,2.9625,2.9814,3.047,0.0,0.0,0.0,0.0,0.0,0.0,0.0,0.0,0.0,0.0,0.0,0.0,0.0,0.0,0.0,0.0,0.0,0.0,0.0,0.0,0.0,0.0,0.0,0.0,0.0,0.0,0.0,2.969,2.9457,2.92,2.8842,2.8819,2.8742,2.8601,2.8334,2.8334,2.8576,2.7964,2.8581,3.0184,2.9467,2.98,3.0902,3.0894,3.1064,3.1352,3.1219,3.16,3.2423,3.3294,3.4235,3.5057,3.5538,3.6719,3.8198,0.0,0.0,0.0,0.0,0.0,0.0,0.0,0.0,0.0,0.0,0.0,0.0,0.0,0.0,0.0,0.0,0.0,0.0,0.0,0.0,0.0,0.0,0.0,3.5065,3.4807,3.5127,3.5278,3.5243,3.5795,3.6445,3.7147,0.0,0.0,0.0,0.0,0.0,0.0,0.0,0.0,3.412,3.4636,3.5114,0.0,0.0,0.0,0.0,0.0,0.0,0.0,0.0,2.9291,0.0,0.0,0.0,0.0,0.0,2.9846,2.9969,2.9829,2.9796,3.0309,3.2487,0.0,0.0,0.0,0.0,0.0,0.0,0.0,0.0,0.0,0.0,0.0,0.0,0.0,0.0,0.0,0.0,0.0,0.0,0.0,0.0,0.0,0.0,0.0,0.0,0.0,0.0,0.0,2.9985,2.9744,2.9494,2.9494,2.9373,2.9134,2.9112,2.932,2.9745,2.9248,2.9746,3.1029,3.043,3.0757,3.181,3.196,3.199,3.1979,3.2019,3.2632,3.3641,3.4449,3.5225,3.5985,3.6771,3.7901,3.9246,0.0,0.0,0.0,0.0,0.0,0.0,0.0,0.0,0.0,0.0,0.0,0.0,0.0,0.0,0.0,0.0,0.0,0.0,0.0,0.0,0.0,0.0,0.0,3.4797,3.5859,3.5039,3.4569,3.4505,3.5776,3.5817,3.4741,3.6076,0.0,0.0,0.0,0.0,0.0,0.0,0.0,3.3895,3.4755,3.4944,3.4714,0.0,0.0,0.0,0.0,0.0,0.0,0.0,2.957,0.0,0.0,0.0,0.0,0.0,2.9538,2.9999,2.9999,2.9999,3.0369,0.0,0.0,0.0,0.0,0.0,0.0,0.0,0.0,0.0,0.0,0.0,0.0,0.0,0.0,0.0,0.0,0.0,0.0,0.0,0.0,0.0,0.0,0.0,0.0,0.0,0.0,0.0,0.0,3.0206,3.0054,2.9731,2.9713,2.9607,2.9412,3.0213,3.088,3.1384,3.1427,3.1403,3.1403,3.1403,3.2284,3.3725,3.2545,3.2462,3.3184,3.2731,3.3438,3.4854,3.5196,3.6099,3.7317,3.8114,3.8722,3.9354,0.0,0.0,0.0,0.0,0.0,0.0,0.0,0.0,0.0,0.0,0.0,0.0,0.0,0.0,0.0,0.0,0.0,0.0,0.0,0.0,0.0,0.0,0.0,0.0,0.0,0.0,3.4608,3.4505,3.5205,3.5556,0.0,0.0,0.0,3.5525,0.0,0.0,0.0,0.0,0.0,3.4147,3.4813,3.4944,3.4734,0.0,0.0,0.0,0.0,0.0,0.0,0.0,0.0,0.0,0.0,0.0,0.0,3.0059,3.0143,3.0433,3.1028,0.0,0.0,0.0,0.0,0.0,0.0,0.0,0.0,0.0,0.0,0.0,0.0,0.0,0.0,0.0,0.0,0.0,0.0,0.0,0.0,0.0,0.0,0.0,0.0,0.0,0.0,0.0,0.0,0.0,0.0,3.046,3.0304,3.0054,2.9965,3.0097,3.0509,3.0753,3.1143,3.1685,3.2261,3.2711,3.3073,3.2504,3.2816,3.3788,3.3424,3.3387,3.367,3.4344,3.5007,3.5703,3.6368,3.741,3.8564,3.8798,3.9948,4.1439,0.0,0.0,0.0,0.0,0.0,0.0,0.0,0.0,0.0,0.0,3.1644,3.185,0.0,0.0,0.0,0.0,0.0,0.0,0.0,0.0,0.0,0.0,0.0,0.0,0.0,3.4746,3.4979,0.0,0.0,0.0,0.0,0.0,0.0,3.5343,0.0,3.5807,0.0,0.0,3.4705,3.3653,3.468,3.4944,3.4754,0.0,0.0,0.0,0.0,0.0,0.0,0.0,0.0,0.0,0.0,0.0,0.0,2.9506,2.989,3.0602,0.0,0.0,0.0,0.0,0.0,0.0,0.0,0.0,0.0,0.0,0.0,0.0,0.0,0.0,0.0,0.0,0.0,0.0,0.0,0.0,0.0,0.0,0.0,0.0,0.0,0.0,0.0,0.0,0.0,0.0,0.0,3.06,3.0462,3.0333,3.0561,3.0825,3.1116,3.1779,3.2222,3.2458,3.328,3.3776,3.3943,3.3345,3.3348,3.3807,3.3807,3.399,3.4348,3.5181,3.5933,3.6676,3.7614,3.8546,3.9504,4.014,4.1204,4.2359,0.0,0.0,3.0898,3.0898,0.0,0.0,0.0,0.0,0.0,0.0,3.1285,3.1434,0.0,0.0,0.0,0.0,0.0,0.0,0.0,0.0,0.0,0.0,0.0,0.0,0.0,0.0,0.0,0.0,0.0,0.0,0.0,0.0,3.6235,3.4982,0.0,3.548,0.0,3.4282,3.3747,3.2617,3.4206,3.4698,3.4527,3.5059,0.0,0.0,0.0,0.0,0.0,0.0,0.0,0.0,0.0,0.0,0.0,2.8236,2.9143,0.0,0.0,0.0,0.0,0.0,0.0,0.0,0.0,0.0,0.0,0.0,0.0,0.0,0.0,0.0,0.0,0.0,0.0,0.0,0.0,0.0,0.0,0.0,0.0,0.0,0.0,0.0,0.0,0.0,0.0,0.0,0.0,3.0801,3.0773,3.0633,3.141,3.1738,3.1584,3.3077,3.3741,3.3564,3.4356,3.4572,3.4242,3.3961,3.3815,3.3807,3.388,3.4376,3.5145,3.5538,3.6485,3.7814,3.8782,3.9556,4.0286,4.1754,4.2359,4.2506,0.0,0.0,3.0898,3.0898,0.0,0.0,0.0,0.0,0.0,0.0,0.0,0.0,0.0,0.0,0.0,0.0,0.0,0.0,0.0,0.0,0.0,0.0,0.0,0.0,0.0,0.0,0.0,0.0,0.0,0.0,0.0,0.0,0.0,3.4396,0.0,3.443,3.2871,3.3006,3.2502,3.1734,3.2519,3.2789,3.2789,3.3274,3.3872,0.0,0.0,0.0,0.0,0.0,0.0,0.0,0.0,2.8948,2.9083,2.8964,0.0,0.0,0.0,0.0,0.0,0.0,0.0,0.0,0.0,0.0,0.0,0.0,0.0,0.0,0.0,0.0,0.0,0.0,0.0,0.0,0.0,0.0,0.0,0.0,0.0,0.0,0.0,0.0,0.0,0.0,0.0,0.0,3.0898,3.2049,3.2396,3.1707,3.2415,3.3064,3.3659,3.3953,3.4312,0.0,3.4921,3.487,3.4572,3.4265,3.4012,3.3844,3.4486,3.5238,3.6083,3.6783,3.7986,3.9405,3.9639,4.0569,4.1827,4.2176,4.269,4.3259,0.0,0.0,0.0,0.0,0.0,0.0,0.0,0.0,0.0,0.0,0.0,0.0,0.0,0.0,0.0,0.0,0.0,0.0,0.0,0.0,0.0,0.0,0.0,0.0,0.0,0.0,0.0,0.0,0.0,0.0,0.0,0.0,0.0,3.4195,0.0,3.3728,3.2231,3.2231,3.1802,3.1238,3.2015,3.2329,3.2364,3.2766,3.3179,3.341,3.216,0.0,0.0,0.0,0.0,0.0,0.0,0.0,2.8591,2.8626,2.8927,0.0,0.0,0.0,0.0,0.0,0.0,0.0,0.0,0.0,0.0,0.0,0.0,0.0,0.0,0.0,0.0,0.0,0.0,0.0,0.0,0.0,0.0,0.0,0.0,0.0,0.0,0.0,0.0,0.0,0.0,3.2428,3.2109,3.2851,3.3094,3.2635,3.3315,3.3878,3.4308,3.4641,3.5163,3.5863,3.5863,3.5938,3.6065,3.5192,3.4654,3.4431,3.5275,3.6101,3.689,3.7342,3.8212,3.9405,4.0175,4.1001,4.1827,4.2598,4.313,4.3552,0.0,0.0,0.0,0.0,0.0,0.0,0.0,0.0,0.0,0.0,0.0,0.0,0.0,0.0,0.0,0.0,0.0,0.0,0.0,0.0,0.0,0.0,0.0,0.0,0.0,0.0,0.0,0.0,0.0,0.0,0.0,0.0,0.0,3.4547,0.0,0.0,3.1862,3.1542,3.1143,3.077,3.1694,3.2076,3.2092,3.2384,3.2564,3.2583,3.1775,3.1564,3.1564,3.0698,0.0,0.0,0.0,0.0,2.8179,2.8029,2.8072,0.0,0.0,0.0,0.0,0.0,0.0,0.0,0.0,0.0,0.0,0.0,0.0,0.0,0.0,0.0,0.0,0.0,0.0,0.0,0.0,0.0,0.0,0.0,0.0,0.0,0.0,0.0,0.0,0.0,0.0,3.3403,3.3379,3.3633,3.3691,3.3555,3.4218,3.4649,3.4757,3.5411,3.6142,3.693,3.693,3.7153,3.7583,3.6537,3.5789,3.534,3.6214,3.694,3.7526,3.7643,3.8248,3.9258,4.0598,4.1277,4.168,4.3002,4.3497,4.3608,0.0,0.0,0.0,0.0,0.0,0.0,0.0,0.0,0.0,0.0,3.0746,3.0698,0.0,0.0,0.0,0.0,0.0,0.0,3.0398,0.0,0.0,3.2078,3.3888,0.0,0.0,0.0,0.0,0.0,0.0,0.0,0.0,0.0,0.0,0.0,0.0,0.0,0.0,3.0602,2.9942,2.9883,3.0209,3.0323,3.0371,3.0625,3.1198,3.1756,3.0891,3.1064,3.1564,3.0698,3.0321,0.0,0.0,0.0,0.0,2.8205,0.0,0.0,0.0,0.0,0.0,0.0,0.0,0.0,0.0,0.0,0.0,0.0,0.0,0.0,0.0,0.0,0.0,0.0,0.0,0.0,0.0,0.0,0.0,0.0,0.0,0.0,0.0,0.0,0.0,0.0,3.3777,3.4027,3.3359,3.4785,3.5293,3.4531,3.529,3.5993,3.6632,3.6685,3.7089,3.7834,3.7834,3.7763,3.7621,3.8118,3.7678,3.6515,3.7333,3.7609,3.7562,3.8248,3.9423,4.0818,4.1038,4.1956,4.3204,4.3406,4.3497,4.3608,0.0,0.0,0.0,0.0,0.0,0.0,0.0,0.0,0.0,0.0,0.0,3.062,0.0,0.0,0.0,3.0398,3.0398,3.0417,3.0448,3.1351,3.1921,3.1948,3.3728,3.4707,0.0,0.0,0.0,0.0,0.0,0.0,0.0,3.6976,3.6941,0.0,0.0,0.0,0.0,0.0,0.0,3.0099,3.0182,3.0529,3.0906,3.0528,3.0948,3.1583,3.0717,0.0,0.0,0.0,3.0398,3.0398,3.0398,0.0,0.0,0.0,0.0,0.0,0.0,0.0,0.0,0.0,0.0,0.0,0.0,0.0,0.0,0.0,0.0,0.0,0.0,0.0,0.0,0.0,0.0,0.0,0.0,0.0,0.0,0.0,0.0,0.0,0.0,0.0,0.0,0.0,3.4635,3.5053,3.4765,3.5547,3.6055,3.6152,3.6462,3.6975,3.7721,3.7668,3.7993,3.8719,3.8719,3.8885,3.9207,3.9114,3.8556,3.7699,3.8507,3.8783,3.8686,3.8841,3.9608,4.0688,4.0974,4.1809,4.2873,4.3314,4.3791,4.4287,0.0,0.0,0.0,0.0,0.0,0.0,0.0,0.0,0.0,0.0,0.0,0.0,0.0,0.0,0.0,0.0,3.0448,3.0448,3.0467,3.1153,3.1581,3.1649,3.3398,3.4375,3.4375,0.0,0.0,0.0,0.0,0.0,3.5912,3.6978,3.698,0.0,3.5701,0.0,0.0,0.0,0.0,3.1044,3.1064,3.1333,3.166,3.1256,3.1371,3.1621,3.1006,0.0,0.0,0.0,3.0417,3.0379,3.014,2.9298,0.0,0.0,0.0,0.0,0.0,0.0,0.0,0.0,0.0,0.0,0.0,0.0,0.0,0.0,0.0,0.0,0.0,0.0,0.0,0.0,0.0,0.0,0.0,0.0,0.0,0.0,0.0,0.0,0.0,0.0,0.0,0.0,3.5276,3.5727,3.5845,3.6131,3.6601,3.7285,3.748,3.7909,3.8646,3.8788,3.9084,3.9604,3.9604,3.9912,4.0469,3.9873,3.9365,3.895,3.951,3.9668,3.9595,3.9583,4.0016,4.0802,4.1419,4.2149,4.2945,4.3424,4.4195,4.509,0.0,0.0,0.0,0.0,0.0,0.0,0.0,0.0,0.0,0.0,0.0,0.0,0.0,0.0,3.0583,3.0583,3.0525,3.0467,3.0398,3.0564,3.0656,3.067,3.2467,0.0,3.3476,0.0,0.0,0.0,0.0,0.0,3.3427,3.4986,3.5705,3.5676,3.631,3.6147,3.5243,0.0,0.0,0.0,3.2904,3.2442,3.1795,0.0,0.0,0.0,0.0,0.0,0.0,0.0,0.0,3.0352,2.9448,2.9206,2.8897,0.0,0.0,0.0,0.0,0.0,0.0,0.0,0.0,0.0,0.0,0.0,0.0,0.0,0.0,0.0,0.0,0.0,0.0,0.0,0.0,0.0,0.0,0.0,0.0,0.0,0.0,0.0,0.0,0.0,0.0,0.0,3.5545,3.5639,3.571,3.6626,3.7187,3.7305,3.8105,3.8873,3.9619,4.0254,4.0543,4.0431,4.0431,4.045,4.0489,4.045,4.0431,4.038,4.0176,3.9901,3.9656,4.0467,4.1278,4.2084,4.2875,4.3724,4.4444,4.4117,4.471,4.5819,0.0,0.0,0.0,0.0,0.0,0.0,0.0,0.0,0.0,0.0,0.0,0.0,0.0,3.0678,3.0637,3.0599,3.0539,3.0467,3.0398,3.0525,3.0598,3.0594,3.1899,3.2871,3.3398,0.0,0.0,0.0,0.0,3.4189,3.329,3.4373,3.4842,3.4803,3.5937,3.5407,3.3627,3.3517,0.0,0.0,0.0,0.0,0.0,0.0,0.0,0.0,0.0,0.0,0.0,0.0,0.0,3.041,2.9463,2.8902,2.8203,2.6261,2.5194,0.0,0.0,0.0,0.0,0.0,0.0,0.0,0.0,0.0,0.0,0.0,0.0,0.0,0.0,0.0,0.0,0.0,0.0,0.0,0.0,0.0,0.0,0.0,0.0,0.0,0.0,0.0,0.0,0.0,0.0,3.6113,3.732,3.7258,3.7734,3.8926,3.9277,3.9754,4.0402,4.0602,4.0639,4.0489,4.0489,4.0489,4.0489,4.0489,4.0489,4.0489,4.0389,4.0285,4.0214,4.0879,4.1632,4.2405,4.3056,4.3832,4.4655,4.5011,4.5754,4.6674,0.0,0.0,0.0,0.0,0.0,0.0,0.0,0.0,0.0,0.0,0.0,0.0,0.0,0.0,3.0728,3.063,3.0595,3.0525,3.0448,3.0564,3.0617,3.0594,3.1626,3.2578,3.3379,0.0,0.0,0.0,0.0,0.0,0.0,0.0,3.3602,3.3538,3.4596,0.0,0.0,0.0,0.0,3.3077,0.0,0.0,3.5104,0.0,0.0,0.0,0.0,0.0,0.0,0.0,0.0,3.1234,2.9727,2.8345,2.6981,2.5526,2.4962,0.0,0.0,0.0,0.0,0.0,0.0,0.0,0.0,0.0,0.0,0.0,0.0,0.0,0.0,0.0,0.0,0.0,0.0,0.0,0.0,0.0,0.0,0.0,0.0,0.0,0.0,0.0,0.0,0.0,0.0,0.0,3.8232,3.8111,3.8723,4.0293,4.0332,4.05,4.0866,4.0776,4.0677,4.0581,4.0508,4.0489,4.0489,4.0489,4.0489,4.0508,4.0796,4.0931,4.0989,4.1644,4.2374,4.3177,4.3833,4.46,4.5413,4.5829,4.6746,4.7865,0.0,3.2168,3.1894,3.1035,3.0898,3.0898,0.0,0.0,0.0,0.0,0.0,0.0,0.0,0.0,0.0,3.0703,3.069,3.0645,3.0518,3.0621,3.0675,3.0607,3.1606,3.2559,0.0,0.0,0.0,0.0,0.0,0.0,0.0,0.0,3.193,0.0,3.2358,3.3456,3.499,0.0,3.5505,3.6152,0.0,3.6194,3.6897,0.0,0.0,0.0,3.6959,3.6161,0.0,0.0,0.0,3.2847,3.0205,2.7563,2.5373,2.5019,0.0,0.0,0.0,0.0,0.0,0.0,0.0,0.0,0.0,0.0,0.0,0.0,0.0,0.0,0.0,0.0,0.0,0.0,0.0,0.0,0.0,0.0,0.0,0.0,0.0,0.0,0.0,0.0,0.0,0.0,3.7546,3.8113,3.8367,3.9189,4.0121,4.1172,4.1191,4.1133,4.0996,4.0878,4.077,4.0696,4.0581,4.0489,4.0489,4.0489,4.0508,4.0585,4.1431,4.1835,4.195,4.2797,4.3605,4.4393,4.5278,4.6163,4.6857,4.6524,4.7658,4.9356,3.1269,3.1269,3.1142,3.0804,3.0768,3.075,0.0,0.0,0.0,0.0,0.0,0.0,0.0,0.0,0.0,3.0703,3.0708,3.0652,3.0579,3.0607,3.0637,3.0665,3.095,3.1836,0.0,0.0,0.0,0.0,0.0,0.0,0.0,0.0,0.0,0.0,3.1504,3.1955,3.2422,3.343,0.0,0.0,3.6054,3.6664,0.0,0.0,0.0,0.0,0.0,3.6851,0.0,0.0,3.4497,3.2739,0.0,0.0,0.0,0.0,0.0,0.0,2.4554,0.0,0.0,0.0,0.0,0.0,2.451,2.5472,2.6432,0.0,0.0,0.0,0.0,0.0,0.0,0.0,0.0,0.0,0.0,0.0,0.0,0.0,0.0,0.0,0.0,0.0,0.0,0.0,3.8219,3.8618,4.0038,4.0513,4.0894,4.1191,4.1191,4.1133,4.0996,4.0955,4.0871,4.0696,4.0658,4.06,4.0489,4.0489,4.0835,4.145,4.17,4.2489,4.3624,4.3874,4.4105,4.4451,4.5951,4.6701,4.7029,4.8145,4.8913,4.949,3.0898,3.0855,3.0801,3.0709,3.0679,3.0674,0.0,0.0,0.0,0.0,0.0,0.0,0.0,0.0,0.0,0.0,3.0781,3.0739,3.0648,3.0695,3.0718,3.0691,3.0759,3.1445,0.0,0.0,0.0,0.0,0.0,0.0,0.0,0.0,0.0,0.0,0.0,0.0,0.0,0.0,0.0,0.0,3.5861,0.0,0.0,3.8396,3.8299,0.0,0.0,0.0,3.7007,3.6477,3.4477,0.0,0.0,0.0,0.0,0.0,0.0,0.0,0.0,0.0,0.0,0.0,0.0,0.0,2.5033,2.5767,2.6512,0.0,0.0,0.0,0.0,0.0,0.0,0.0,0.0,0.0,0.0,0.0,0.0,0.0,0.0,0.0,0.0,3.7815,3.8738,3.9258,3.9181,3.9638,4.0812,4.107,4.1191,4.1191,4.1191,4.1152,4.1074,4.1035,4.0932,4.082,4.1112,4.12,4.1143,4.1431,4.1854,4.2354,4.2701,4.3393,4.4335,4.4682,4.4836,4.497,4.6355,4.7105,4.7567,4.8913,4.9625,5.001,0.0,3.0775,3.0698,3.0679,3.0621,0.0,0.0,0.0,0.0,0.0,0.0,0.0,0.0,0.0,0.0,0.0,3.0898,3.0859,3.0723,3.082,0.0,3.0723,3.0828,3.1288,0.0,0.0,0.0,0.0,0.0,0.0,0.0,0.0,0.0,0.0,3.0646,3.0467,0.0,0.0,0.0,3.4792,3.5415,3.6987,0.0,0.0,3.896,0.0,3.913,3.8462,3.7103,3.6863,3.4272,0.0,0.0,0.0,0.0,0.0,2.5808,0.0,0.0,0.0,0.0,0.0,0.0,0.0,2.6286,2.6556,2.672,2.742,0.0,0.0,0.0,0.0,0.0,0.0,0.0,0.0,0.0,0.0,0.0,0.0,0.0,0.0,3.6988,3.8469,3.9469,3.96,4.0485,4.1058,4.1155,4.1362,4.1426,4.1348,4.1426,4.1426,4.1328,4.1211,4.1094,4.1015,4.1683,4.2017,4.2027,4.2758,4.3143,4.3278,4.3989,4.4355,4.4489,4.5278,4.5586,4.5701,4.6663,4.7471,4.8221,4.9183,5.0029,5.0702,3.0746,3.0719,3.066,3.0564,0.0,0.0,0.0,0.0,0.0,0.0,0.0,0.0,0.0,0.0,0.0,0.0,0.0,3.0898,3.0859,0.0,3.0779,3.0862,3.0775,3.1149,3.2028,0.0,0.0,0.0,0.0,0.0,0.0,0.0,0.0,0.0,0.0,0.0,0.0,0.0,0.0,3.2595,3.5143,0.0,3.6272,3.8574,3.8105,3.6421,3.7991,3.7735,3.6533,0.0,3.4758,3.3277,0.0,0.0,0.0,0.0,0.0,0.0,0.0,0.0,0.0,0.0,0.0,0.0,2.5257,2.5273,2.5372,0.0,0.0,0.0,0.0,0.0,0.0,0.0,0.0,0.0,0.0,0.0,0.0,0.0,0.0,0.0,3.8762,3.9681,4.06,4.142,4.2437,4.2761,4.2075,4.2791,4.2891,4.2187,4.2851,4.2871,4.2168,4.2148,4.1758,4.1016,4.1733,4.2054,4.2033,4.2761,4.3451,4.4066,4.422,4.4701,4.5355,4.5528,4.5586,4.574,4.7278,4.7971,4.8298,4.9875,5.0548,5.0702,3.0104,3.0398,3.0585,3.0374,0.0,0.0,0.0,0.0,0.0,0.0,0.0,0.0,0.0,0.0,0.0,0.0,0.0,0.0,0.0,0.0,3.0762,3.0898,3.0849,3.0976,3.133,3.1357,0.0,0.0,0.0,0.0,0.0,0.0,0.0,0.0,0.0,0.0,0.0,0.0,3.091,3.1756,3.4098,0.0,3.5372,3.7502,3.7379,3.621,3.7012,3.6458,3.5219,3.4297,3.3346,0.0,0.0,3.0443,2.9101,0.0,2.672,2.6405,0.0,0.0,0.0,2.5778,0.0,0.0,0.0,2.5338,2.5465,2.6445,2.6765,0.0,0.0,0.0,0.0,0.0,0.0,0.0,0.0,0.0,0.0,0.0,0.0,0.0,3.9277,4.0027,4.094,4.1974,4.2947,4.3343,4.3008,4.3437,4.3496,4.3066,4.3476,4.3496,4.3047,4.3047,4.2812,4.2363,4.3058,4.3385,4.3378,4.403,4.4566,4.4951,4.4951,4.5201,4.5586,4.5586,4.5586,4.5759,4.7451,4.8105,4.8317,5.0048,5.0702,5.0702,2.9187,2.9687,3.0036,2.995,0.0,0.0,0.0,0.0,0.0,0.0,0.0,0.0,0.0,0.0,0.0,0.0,0.0,0.0,0.0,0.0,0.0,3.0835,3.0835,3.0789,3.0652,3.066,3.0621,0.0,0.0,0.0,0.0,0.0,0.0,0.0,0.0,0.0,0.0,0.0,0.0,3.1877,0.0,3.4031,3.4554,3.6236,3.6323,3.558,3.557,3.4856,3.3747,3.2817,0.0,3.0943,3.2071,3.0668,0.0,0.0,0.0,0.0,0.0,0.0,0.0,0.0,0.0,2.5399,0.0,0.0,0.0,2.7103,0.0,0.0,0.0,0.0,0.0,0.0,0.0,0.0,0.0,0.0,0.0,0.0,0.0,0.0,0.0,3.995,4.0982,4.2005,4.3082,4.368,4.3672,4.4004,4.4121,4.3965,4.4101,4.4121,4.3945,4.3945,4.3867,4.3711,4.4397,4.4713,4.4722,4.5355,4.5605,4.5586,4.5586,4.5586,4.5586,4.5586,4.5701,4.599,4.7509,4.8105,4.8317,5.0048,5.0702,5.0702,2.8104,2.8189,2.8297,2.886,0.0,0.0,0.0,0.0,0.0,0.0,0.0,0.0,0.0,0.0,0.0,0.0,0.0,0.0,3.1786,0.0,0.0,0.0,3.0628,3.0598,3.0525,3.0525,3.0487,0.0,0.0,0.0,0.0,0.0,0.0,0.0,3.1641,0.0,0.0,0.0,3.3003,0.0,3.3647,3.3015,0.0,3.4687,3.4255,3.2308,3.2764,3.287,3.2653,0.0,3.1552,3.1418,0.0,3.0044,3.0037,0.0,0.0,0.0,0.0,0.0,0.0,0.0,2.5826,0.0,0.0,0.0,2.6322,2.5774,0.0,0.0,0.0,0.0,0.0,0.0,0.0,0.0,0.0,0.0,0.0,0.0,0.0,0.0,0.0,3.9696,4.1058,4.1936,4.3695,4.4393,4.3652,4.5137,4.5644,4.4883,4.5605,4.5625,4.4863,4.4844,4.4453,4.3711,4.4433,4.4754,4.4722,4.5451,4.5719,4.5586,4.5586,4.5586,4.5586,4.5586,4.6067,4.6836,4.7759,4.8105,4.8317,5.0048,5.0702,5.0702,2.7105,2.7524,2.7918,0.0,0.0,0.0,0.0,0.0,0.0,0.0,0.0,0.0,0.0,0.0,0.0,0.0,0.0,3.272,0.0,0.0,0.0,0.0,0.0,0.0,3.0506,3.0506,3.0467,3.0398,3.0417,0.0,0.0,0.0,0.0,0.0,3.1613,0.0,3.2717,0.0,0.0,0.0,0.0,0.0,0.0,3.3237,3.3181,3.1911,3.131,3.1551,3.1933,0.0,3.0497,0.0,0.0,0.0,0.0,0.0,0.0,0.0,0.0,0.0,0.0,0.0,0.0,0.0,2.6142,0.0,2.6062,0.0,0.0,0.0,0.0,0.0,0.0,0.0,2.9145,0.0,0.0,0.0,0.0,0.0,0.0,0.0,0.0,0.0,0.0,0.0,4.2482,4.3332,4.3593,4.4805,4.5566,4.5742,4.6113,4.6113,4.5762,4.5742,4.5566,4.5215,4.5449,4.5531,4.5511,4.5694,4.5776,4.5719,4.5624,4.5586,4.5586,4.5586,4.6105,4.699,4.7798,4.8413,4.899,5.024,5.0702,5.0702,2.6115,0.0,0.0,0.0,0.0,0.0,2.9804,3.0471,3.0828,0.0,0.0,0.0,3.1834,3.1507,0.0,0.0,0.0,3.3667,0.0,0.0,3.2377,0.0,0.0,0.0,0.0,0.0,3.0448,3.0398,0.0,0.0,0.0,0.0,0.0,0.0,0.0,3.2374,3.3228,0.0,0.0,3.4722,3.3441,3.2198,3.1181,3.1728,3.1959,3.18,3.0648,3.0695,3.1091,2.9613,2.9593,0.0,3.1014,0.0,0.0,0.0,0.0,0.0,2.7239,0.0,0.0,0.0,0.0,0.0,0.0,0.0,0.0,0.0,0.0,0.0,0.0,0.0,0.0,0.0,0.0,0.0,0.0,0.0,0.0,0.0,0.0,0.0,0.0,0.0,0.0,0.0,0.0,4.2124,4.3129,4.4292,4.5351,4.6269,4.6308,4.6308,4.6308,4.6308,4.6308,4.6308,4.6191,4.6133,4.6094,4.5957,4.5849,4.5796,4.5699,4.5624,4.5586,4.5586,4.6105,4.699,4.7798,4.8625,4.951,5.0375,5.0702,5.0702,2.5049,2.4965,0.0,0.0,0.0,0.0,3.0061,3.1167,3.1642,0.0,0.0,0.0,0.0,0.0,0.0,0.0,0.0,3.4526,3.5397,0.0,3.3737,0.0,0.0,3.0814,0.0,0.0,0.0,0.0,0.0,0.0,0.0,0.0,0.0,0.0,0.0,3.2384,3.3248,3.4112,3.4917,3.5665,3.5597,3.4394,3.2403,0.0,3.0151,3.1264,3.0772,0.0,0.0,2.9394,2.9179,0.0,0.0,0.0,0.0,0.0,0.0,0.0,0.0,0.0,0.0,2.6295,0.0,0.0,0.0,0.0,2.6796,0.0,0.0,0.0,0.0,0.0,0.0,0.0,0.0,0.0,0.0,0.0,0.0,0.0,0.0,0.0,0.0,0.0,0.0,0.0,0.0,0.0,4.2101,4.3953,4.5391,4.6269,4.6308,4.6308,4.6308,4.6308,4.6308,4.6308,4.6308,4.623,4.6094,4.6093,4.5969,4.5796,4.5796,4.5719,4.5586,4.5586,4.6105,4.699,4.7798,4.8625,4.951,5.0375,5.0702,5.0702,0.0,0.0,0.0,0.0,0.0,0.0,2.9,3.0054,0.0,0.0,0.0,0.0,0.0,0.0,3.3314,0.0,0.0,3.5488,3.6367,3.5161,0.0,0.0,0.0,3.2032,0.0,0.0,0.0,0.0,0.0,0.0,0.0,0.0,0.0,0.0,0.0,3.2154,0.0,0.0,0.0,0.0,0.0,3.3237,3.2018,0.0,0.0,3.0562,3.0546,3.0477,0.0,2.9466,2.9601,3.0102,3.0224,2.9893,2.9713,3.0934,3.0042,0.0,0.0,0.0,2.884,2.7824,0.0,0.0,0.0,0.0,0.0,0.0,0.0,0.0,0.0,0.0,0.0,0.0,0.0,0.0,0.0,0.0,0.0,0.0,0.0,0.0,0.0,0.0,0.0,0.0,3.7926,0.0,4.0354,4.213,4.3817,4.539,4.5996,4.6308,4.6308,4.6308,4.6308,4.6308,4.6308,4.6289,4.623,4.6133,4.6063,4.5982,4.5896,4.5815,4.5776,4.6297,4.699,4.7778,4.8625,4.949,5.0298,5.0587,5.0702,5.0702,2.4424,0.0,0.0,0.0,0.0,0.0,0.0,0.0,0.0,0.0,3.1223,0.0,3.3107,0.0,3.3811,0.0,3.522,3.5628,3.681,3.5393,0.0,3.5588,3.4031,0.0,0.0,0.0,0.0,0.0,0.0,3.0552,0.0,0.0,0.0,0.0,0.0,0.0,0.0,0.0,3.3804,0.0,0.0,3.2343,0.0,0.0,3.0698,3.0297,0.0,3.0464,3.0306,2.9732,2.993,3.0401,3.054,3.0261,3.0125,3.1327,3.0435,2.9177,2.9601,2.9766,0.0,2.8553,2.8272,0.0,2.8865,0.0,0.0,0.0,0.0,0.0,0.0,0.0,0.0,0.0,0.0,0.0,0.0,3.3264,0.0,0.0,0.0,0.0,0.0,0.0,0.0,3.6719,3.7041,3.7925,0.0,0.0,4.3037,4.4941,4.5859,4.6308,4.6308,4.6308,4.6308,4.6308,4.6308,4.6308,4.6308,4.6211,4.6152,4.6093,4.601,4.6099,4.6332,4.681,4.7471,4.8259,4.9086,4.974,5.0279,5.0587,5.0702,5.0702,2.4173,0.0,0.0,0.0,2.5155,0.0,0.0,0.0,3.1164,0.0,3.1422,3.1844,3.2166,3.2176,3.2882,3.4706,3.4461,0.0,3.6593,3.533,0.0,0.0,3.4197,3.3692,3.4474,0.0,0.0,0.0,0.0,0.0,0.0,0.0,0.0,0.0,0.0,0.0,3.126,3.1899,3.2638,3.3261,3.1915,3.1885,3.2377,3.024,2.9807,3.0385,3.0536,3.0331,3.0018,3.0133,3.0087,3.0009,3.0157,3.0375,3.0603,3.0676,3.0689,3.0621,3.0328,3.0007,2.9493,2.8407,0.0,0.0,0.0,0.0,3.0062,0.0,0.0,0.0,0.0,0.0,0.0,0.0,0.0,0.0,0.0,0.0,0.0,0.0,0.0,0.0,0.0,0.0,3.7584,3.6719,3.7569,3.8574,0.0,0.0,4.3086,4.4922,4.5801,4.6269,4.6308,4.6308,4.6308,4.6308,4.6308,4.6308,4.6308,4.6308,4.623,4.6113,4.6113,4.6521,4.7192,4.7133,4.7605,4.8433,4.9183,4.9471,4.9548,5.0375,5.0702,5.0702,2.3862,2.34,2.3123,0.0,2.4716,2.6657,0.0,0.0,0.0,0.0,3.0132,3.0631,3.0662,3.1177,3.1474,3.1397,3.2493,0.0,0.0,0.0,0.0,3.6615,3.5585,3.4822,3.4512,3.3897,0.0,3.2139,0.0,0.0,3.0717,0.0,0.0,0.0,0.0,0.0,2.9983,3.1327,3.2371,3.2994,3.1654,3.1238,0.0,0.0,2.9736,2.9922,3.0203,3.0253,3.0114,2.9905,2.982,2.9845,3.012,3.0243,3.0356,3.0559,3.051,3.0311,2.9883,2.9442,2.9047,2.8695,2.815,2.8058,0.0,0.0,0.0,0.0,0.0,0.0,0.0,0.0,0.0,0.0,0.0,0.0,0.0,0.0,0.0,3.5441,0.0,0.0,0.0,3.6628,3.6801,3.5892,3.668,3.7868,3.936,0.0,0.0,4.4785,4.5176,4.5644,4.6289,4.6308,4.6308,4.6308,4.6308,4.6308,4.6308,4.6308,4.6289,4.625,4.625,4.6678,4.74,4.8009,4.8663,4.9355,5.0202,5.0433,5.0375,5.0606,5.0702,5.0702,2.3165,0.0,0.0,2.2587,0.0,0.0,2.7227,0.0,0.0,2.9125,2.9272,0.0,3.0089,3.0851,3.1225,3.1023,3.1436,0.0,3.3623,0.0,0.0,3.643,3.5961,3.5275,3.4521,3.4392,0.0,3.2421,0.0,0.0,3.0402,0.0,0.0,0.0,0.0,2.8704,0.0,3.0824,3.2093,3.271,3.1325,0.0,0.0,2.9698,2.9357,2.9696,2.9809,2.9847,2.981,2.9645,2.957,2.9588,2.9791,2.9937,3.0049,3.0207,3.0177,3.0007,2.9642,2.9337,2.9088,2.8938,2.8693,2.8895,3.0406,3.0656,3.1286,0.0,0.0,0.0,0.0,0.0,0.0,0.0,0.0,0.0,0.0,0.0,0.0,0.0,3.5676,0.0,0.0,3.6551,3.6666,3.6084,3.7243,3.8411,0.0,0.0,0.0,4.4238,4.5117,4.5801,4.6308,4.5918,4.5918,4.6308,4.5918,4.5937,4.6308,4.6308,4.6308,4.6328,4.6699,4.7324,4.8124,4.8935,4.9664,5.0337,5.0818,5.0875,5.0702,5.076,5.0741,5.0702,2.2209,0.0,0.0,0.0,0.0,0.0,0.0,2.6819,0.0,2.8815,0.0,2.8543,2.9624,3.0414,3.109,3.1657,0.0,3.132,3.3816,3.2747,3.307,3.543,3.5427,3.502,3.4347,3.4425,0.0,0.0,0.0,0.0,0.0,0.0,0.0,0.0,0.0,0.0,0.0,3.0373,3.1675,3.2397,3.0899,3.0757,3.1214,2.9118,2.8783,2.9457,2.9275,2.9291,2.9392,2.9372,2.9351,2.9351,2.9392,2.957,2.975,2.9782,2.977,2.9696,2.9466,2.9344,2.9206,2.898,2.9441,3.0216,3.1182,3.1701,3.2661,3.4948,3.5507,3.5847,0.0,0.0,0.0,0.0,0.0,0.0,0.0,0.0,0.0,0.0,0.0,0.0,0.0,0.0,3.6897,3.6873,3.8435,3.9435,0.0,0.0,0.0,4.3725,4.5292,4.623,4.6465,0.0,4.5723,4.6465,4.5586,4.5566,4.6308,4.6308,4.6367,4.6504,4.7266,4.8164,4.9121,4.9766,5.0478,5.1181,5.1106,5.0952,5.0721,5.0875,5.0837,5.0721,0.0,0.0,0.0,0.0,0.0,2.2702,2.297,2.5265,2.6771,2.6199,2.6806,2.7334,2.7388,2.8037,2.8651,2.9042,2.9631,0.0,0.0,0.0,0.0,3.3609,3.3537,3.346,3.3423,3.3963,3.3541,0.0,0.0,0.0,0.0,0.0,0.0,0.0,0.0,0.0,2.9834,2.9893,0.0,3.1942,3.003,2.9344,2.9372,2.8354,2.8084,2.821,2.8166,2.87,2.9372,2.9156,2.9067,2.9112,2.933,2.9434,2.9514,2.9677,2.9608,2.939,2.9016,2.8742,2.8554,2.8522,2.8605,2.917,3.0986,3.1674,3.2527,3.4637,3.5314,3.5968,3.7424,0.0,0.0,0.0,0.0,0.0,0.0,0.0,0.0,0.0,0.0,3.7238,0.0,0.0,3.7147,3.7738,3.8781,3.9665,0.0,0.0,0.0,0.0,4.4984,0.0,0.0,0.0,4.7226,4.7363,4.6484,4.6152,4.6308,4.6308,4.6699,4.7383,4.7539,4.8496,4.998,5.0117,5.0542,5.1132,5.1099,5.0952,5.0721,5.0972,5.0914,5.0779,0.0,0.0,0.0,0.0,0.0,0.0,0.0,2.3176,0.0,2.5684,2.5954,2.6445,2.7261,2.7685,2.8211,2.9005,2.917,2.9798,3.113,3.1269,3.1856,3.314,3.3034,0.0,3.2234,3.3417,3.3051,3.1009,0.0,0.0,0.0,0.0,0.0,0.0,0.0,2.8048,0.0,0.0,0.0,3.1073,2.9737,2.9187,2.9033,2.7909,2.7654,2.7897,2.7897,2.8192,2.8603,2.8464,2.8533,2.8707,2.8837,2.9034,2.9203,2.9314,2.927,2.916,2.8948,2.8808,2.8707,2.8707,2.8707,2.9193,3.0992,3.1506,3.2283,3.4541,3.5122,3.5695,3.7218,3.7482,0.0,0.0,0.0,0.0,0.0,0.0,0.0,0.0,0.0,0.0,0.0,0.0,0.0,0.0,0.0,4.0031,0.0,0.0,0.0,0.0,0.0,0.0,0.0,0.0,0.0,4.8262,4.6933,4.6777,4.7637,4.7187,4.7441,4.8301,4.875,4.9414,5.0234,5.0644,5.0949,5.1166,5.1231,5.1099,5.0932,5.1085,5.1042,5.101,0.0,1.5386,0.0,0.0,1.6691,0.0,1.9831,2.1338,2.3172,2.5584,2.5493,2.5898,2.7689,2.7897,2.8301,2.9343,2.9074,2.9503,3.0996,3.0799,3.1134,3.2317,3.2394,3.2064,3.131,3.2809,3.2648,0.0,0.0,0.0,0.0,0.0,0.0,0.0,0.0,0.0,0.0,0.0,3.1054,3.0221,2.9332,2.8902,2.8714,2.7381,2.712,2.7512,2.7619,2.7648,2.7648,2.7736,2.8047,2.8402,2.8496,2.8749,2.8994,2.8994,2.8994,2.8994,2.8994,2.8994,2.8994,2.8994,2.8994,2.936,3.0815,3.1274,3.199,3.4055,3.4999,3.5813,3.6998,3.7566,0.0,0.0,0.0,0.0,0.0,0.0,0.0,0.0,0.0,0.0,0.0,0.0,0.0,0.0,0.0,4.0415,3.9854,4.1912,4.3587,0.0,0.0,4.7109,4.8887,0.0,4.8223,4.8887,4.7519,4.7461,4.8613,4.8105,4.8359,4.9219,4.9902,5.0293,5.0508,5.1133,5.1328,5.1209,5.1342,5.1276,5.1122,5.1211,5.1173,5.1228,0.0,0.0,0.0,0.0,0.0,0.0,1.956,2.0515,2.2076,2.4902,2.5253,2.5898,2.7689,2.7897,2.8084,2.8498,2.9228,2.9334,2.8508,2.9851,3.0381,2.9693,3.039,3.0976,3.1279,3.2175,3.2542,0.0,0.0,0.0,0.0,0.0,0.0,0.0,0.0,0.0,0.0,2.9687,2.9967,2.9898,2.82,2.7494,2.7389,2.6451,2.6123,2.6229,2.6674,2.6808,2.6873,2.7224,2.7833,2.8471,2.8839,2.8952,2.8994,2.8994,2.8994,2.8994,2.8994,2.8994,2.8994,2.8994,2.8994,2.9214,3.0118,3.087,3.1659,3.2632,3.5067,3.7098,3.7471,3.8427,3.8796,0.0,0.0,0.0,0.0,0.0,0.0,0.0,0.0,0.0,0.0,3.7661,0.0,0.0,3.9065,4.0835,4.1527,4.1931,4.293,4.4651,0.0,4.7012,4.8887,4.8828,4.8828,4.8906,4.873,4.832,4.7754,4.8457,4.9258,5.0078,5.0156,5.0605,5.1289,5.1367,5.1328,5.1211,5.1344,5.1274,5.1122,5.1308,5.1266,5.1344,0.0,0.0,0.0,0.0,0.0,0.0,0.0,2.0718,2.2157,2.4315,2.4941,2.5898,2.7689,2.7897,2.8247,2.9099,2.9561,2.9735,2.9612,3.0251,3.0467,3.0106,3.0383,3.0785,3.1291,3.2095,3.254,0.0,0.0,0.0,0.0,0.0,0.0,0.0,0.0,2.8541,2.8303,2.8488,2.8513,2.8311,2.6763,2.6417,2.6686,2.5844,2.5726,2.6068,2.6539,2.6841,2.7115,2.753,2.7851,2.8156,2.8515,2.8815,2.8994,2.8994,2.8994,2.8994,2.8994,2.8994,2.8994,2.8994,2.8994,2.9195,3.0026,3.0815,3.1623,3.243,3.4246,3.61,3.7375,3.8095,3.8418,0.0,0.0,0.0,0.0,0.0,0.0,0.0,0.0,0.0,0.0,3.8854,3.9046,3.9719,0.0,4.0642,4.0989,4.1646,4.3281,4.606,0.0,4.7354,5.0254,4.9805,4.9844,5.0391,4.9902,4.9746,4.9883,4.9746,5.0137,5.0918,5.0918,5.1094,5.1406,5.1406,5.1367,5.1328,5.1387,5.1342,5.1351,5.1954,5.2133,5.231,0.9327,0.0,1.0886,0.0,1.4815,1.6991,1.9503,2.0948,2.2312,2.3971,2.4759,2.5898,2.7689,2.7897,2.8283,2.923,2.9609,2.9832,2.986,3.0348,3.0523,3.0299,3.0461,0.0,3.1317,3.2163,3.2733,3.3054,3.1689,0.0,0.0,2.9094,2.8887,0.0,2.8585,2.793,2.7273,2.7359,2.7135,2.6737,2.5612,2.5545,2.6032,2.5449,2.5524,2.6068,2.6539,2.6971,2.7348,2.7765,2.7982,2.8102,2.8446,2.8773,2.8994,2.8994,2.8994,2.8994,2.8994,2.8994,2.8994,2.8994,2.8994,2.914,2.9732,3.065,3.1753,3.2958,3.4192,3.5589,3.7387,3.807,3.8386,3.8388,0.0,0.0,0.0,0.0,0.0,0.0,3.9528,3.9253,4.0081,3.9869,4.0158,0.0,0.0,0.0,4.1258,4.2165,0.0,0.0,0.0,0.0,0.0,4.9896,5.0098,5.1035,5.0703,5.0723,5.1035,5.0703,5.0859,5.1406,5.1406,5.1406,5.1406,5.1406,5.1406,5.1406,5.1406,5.1406,5.1504,5.2383,5.2697,5.2948,0.8011,1.0046,1.2289,1.38,1.5369,1.7157,1.9381,2.0847,2.2304,2.3967,2.4788,2.5898,2.7689,2.7897,2.8048,2.8385,2.9251,2.933,2.8195,2.9748,3.0338,0.0,0.0,3.0922,3.1395,3.2314,3.3154,3.3897,0.0,0.0,3.1934,3.025,2.8768,2.7483,2.8431,2.7952,2.6332,2.6347,2.5992,2.5473,2.4776,2.4858,2.5381,2.5259,2.5524,2.6068,2.6539,2.6971,2.7348,2.7765,2.8129,2.8471,2.8863,2.8994,2.8994,2.8994,2.8994,2.8994,2.8994,2.8994,2.8994,2.8994,2.8994,2.8994,2.8994,3.0246,3.2022,3.4212,3.5337,3.633,3.7721,3.87,3.9092,3.8502,0.0,0.0,0.0,0.0,0.0,0.0,3.8631,3.8387,3.9316,4.0057,0.0,0.0,0.0,0.0,0.0,0.0,0.0,4.453,4.5358,0.0,4.8714,4.8716,4.9219,5.0215,5.1016,5.0976,5.0234,5.1035,5.1387,5.1406,5.1406,5.1406,5.1406,5.1406,5.1406,5.1406,5.1406,5.1406,5.1504,5.2383,5.2695,5.2949,0.7807,1.0504,1.3059,1.49,1.7156,1.9044,2.0247,2.1553,2.2804,2.4051,2.4798,2.5898,2.7689,2.7897,2.8265,0.0,2.902,2.9091,0.0,2.9788,2.9936,3.0234,3.0018,3.0185,3.0836,3.1098,3.1856,3.3141,0.0,0.0,0.0,2.8312,2.7341,2.7245,2.6684,2.5676,2.4286,2.4199,2.4377,2.4721,2.4002,2.4389,2.5381,2.5259,2.5524,2.6104,2.6839,2.7348,2.7765,2.8129,2.8489,2.8839,2.8952,2.8994,2.8994,2.8994,2.8994,2.8994,2.8994,2.8994,2.8994,2.8994,2.8994,2.8994,2.8994,3.0397,3.2244,3.4293,3.504,3.5888,3.7674,3.8238,3.8405,3.8388,3.9071,0.0,0.0,0.0,0.0,0.0,3.9546,3.9533,4.1016,4.1432,0.0,0.0,0.0,0.0,0.0,0.0,0.0,0.0,4.7529,0.0,5.0181,4.9702,4.9926,5.0898,5.123,5.1269,5.1035,5.1289,5.1406,5.1406,5.1406,5.1406,5.1406,5.1406,5.1406,5.1406,5.1406,5.1758,5.2383,5.3262,5.3965,5.4648,0.8624,1.1353,1.3767,1.534,1.7649,1.9521,2.0293,2.1871,2.3286,2.4084,2.4958,2.6092,2.7718,2.7897,0.0,2.9587,2.9219,2.9365,3.0443,3.0081,3.0076,3.0587,3.016,3.0115,3.055,3.0876,0.0,3.2081,3.0983,3.0124,2.9493,2.7634,2.6607,2.6413,2.5415,2.4229,2.2998,2.3405,2.3734,2.4019,2.4067,2.4589,2.5325,2.5474,2.5799,2.6315,2.6889,2.7409,2.7926,2.8129,2.8558,2.8994,2.8994,2.8994,2.8994,2.8994,2.8994,2.8994,2.8994,2.8994,2.8994,2.8994,2.8994,2.914,2.9769,3.1113,3.2727,3.435,3.4926,3.5687,3.7651,3.8007,3.8194,3.8766,3.926,3.9496,3.9197,0.0,0.0,0.0,0.0,0.0,0.0,4.2859,4.3266,0.0,0.0,0.0,0.0,0.0,0.0,4.818,4.8145,0.0,5.0413,5.0003,5.0271,5.1191,5.1348,5.1406,5.1406,5.1406,5.1406,5.1406,5.1406,5.1406,5.1406,5.1406,5.1406,5.1426,5.1758,5.2226,5.2851,5.4043,5.4824,5.543,1.0305,1.2655,1.4566,0.0,1.7289,0.0,1.9769,2.1983,2.3727,2.4249,2.5317,2.6488,2.7765,2.7897,2.8373,2.9588,0.0,0.0,0.0,3.0498,3.053,3.0601,3.0549,3.0475,3.0419,3.1254,3.1405,3.079,3.0314,2.9868,2.9471,2.7898,2.6404,2.5057,2.4493,2.347,2.2292,2.3579,2.3834,2.3427,2.4665,2.5188,2.5259,2.5762,2.6262,2.6691,2.6741,2.7255,2.7897,2.7954,2.843,2.8994,2.8994,2.8994,2.8994,2.8994,2.903,2.9067,2.9067,2.9067,2.9067,2.9067,2.9067,2.9512,3.1109,3.226,3.3343,3.4484,3.4926,3.5703,3.7574,3.7969,3.8328,3.9372,3.9584,3.9671,3.9755,0.0,0.0,0.0,0.0,0.0,0.0,4.4292,4.4783,0.0,0.0,0.0,0.0,0.0,4.6856,4.6561,4.7662,4.8702,4.9663,4.9817,5.0331,5.1191,5.1348,5.1406,5.1406,5.1406,5.1406,5.1406,5.1406,5.1406,5.1406,5.1406,5.1406,5.1484,5.2363,5.2734,5.2988,5.4687,5.5332,5.5508,0.0,0.0,1.6841,1.7361,1.9359,2.1165,2.1749,2.3154,2.4514,2.546,2.5826,2.6488,2.7765,2.7897,2.8306,2.9395,2.9023,2.9125,3.0051,2.9754,2.9828,3.049,2.9939,2.9592,2.9574,2.9601,2.9645,2.9692,2.9172,2.875,2.8394,2.6568,2.504,2.3876,2.3301,2.2324,2.1146,2.2328,2.283,2.287,2.3626,2.4443,2.5221,2.5335,2.5928,2.6791,2.7396,2.7754,2.7982,2.8533,2.8858,2.8994,2.8994,2.8994,2.8994,2.8994,2.9439,2.9934,2.9934,2.9934,2.9934,2.9934,2.9934,3.0338,3.1953,3.2836,3.3559,3.4524,3.5088,3.5739,3.6801,3.7546,3.8223,3.888,3.9545,3.9686,3.8783,3.9255,0.0,0.0,4.1737,4.3189,4.43,4.5312,4.5574,0.0,0.0,0.0,0.0,4.7155,4.8296,4.9177,4.9476,4.9901,5.0414,5.0568,5.0843,5.1191,5.1348,5.1406,5.1406,5.1406,5.1406,5.1406,5.1406,5.1406,5.1406,5.1406,5.1406,5.1484,5.2363,5.3105,5.3828,5.4902,5.5723,5.6328,1.2775,1.5563,1.7839,1.8371,2.0285,2.1997,2.2819,2.3983,2.5067,2.5888,2.6191,2.674,2.7765,2.7897,2.8264,2.9138,2.9005,2.9154,2.9807,2.9588,2.9669,3.0247,2.9851,2.9608,2.9608,2.9319,2.8965,2.8532,2.7948,2.7607,2.7428,2.5935,2.4701,2.3792,2.2941,2.221,2.1517,2.2498,2.297,2.3086,2.4248,2.4921,2.5259,2.5709,2.6229,2.6791,2.7409,2.7736,2.8035,2.8956,2.9412,2.9622,2.9989,3.0099,3.0099,3.0099,3.0155,3.0283,3.065,3.0742,3.0742,3.0742,3.1035,3.1556,3.2576,3.3421,3.4168,3.4756,3.5207,3.5872,3.7065,3.768,3.8297,3.9242,3.9795,3.9811,3.8999,3.9577,0.0,4.115,4.2518,4.3891,4.5131,4.5893,4.6002,4.5293,4.6086,0.0,4.6308,4.735,4.852,4.9781,4.9999,5.0294,5.0702,5.0837,5.1005,5.1191,5.1269,5.1348,5.1406,5.1816,5.1777,5.1426,5.1816,5.1777,5.1406,5.1406,5.1621,5.207,5.2949,5.3828,5.4707,5.5566,5.6191,5.6601,1.4202,1.6412,1.8275,1.9077,2.059,2.213,2.3417,2.4489,2.5411,2.6049,2.6505,2.7083,2.7811,2.7954,2.8255,2.8929,2.9203,2.9434,2.9643,2.9678,2.9763,2.9954,2.9954,2.9954,2.9954,2.9544,2.8732,2.7564,2.6982,2.6691,2.6691,2.5672,2.4831,2.4153,2.3094,2.2555,2.2485,2.3187,2.3455,2.3593,2.5275,2.5664,2.5297,2.6245,2.6691,2.6928,2.7319,2.7805,2.8397,2.9431,3.0046,3.0503,3.1182,3.1384,3.1403,3.1549,3.1091,3.0705,3.1403,3.1568,3.1568,3.1568,3.2125,3.2748,3.3087,3.4001,3.4813,3.5034,3.54,3.6122,3.7546,3.8027,3.8581,3.9794,4.0081,4.0062,3.9778,0.0,4.1113,4.266,4.3515,4.4587,4.6134,4.6417,4.6432,4.6305,4.6546,4.6845,4.7146,4.7572,4.8306,4.9456,4.9827,5.0225,5.0702,5.0837,5.099,5.1193,5.1209,5.1348,5.1621,5.2363,5.2305,5.1641,5.2383,5.2285,5.1601,5.1601,5.2031,5.2793,5.3652,5.4453,5.5215,5.6074,5.6484,5.6601,1.7062,1.8188,1.9159,2.0332,2.1195,2.2236,2.3871,2.4713,2.5524,2.647,2.6954,2.7378,2.784,2.8156,2.8515,2.8952,2.904,2.916,2.9434,2.9607,2.9713,2.9748,2.9748,2.9748,2.9748,2.8842,2.8066,2.7344,2.6922,2.6691,2.6691,2.5672,2.4831,2.4138,2.3127,2.2667,2.266,2.2791,2.3159,2.3717,2.4387,2.4886,2.5259,2.5888,2.6716,2.7673,2.8078,2.8928,2.9923,3.0435,3.0875,3.1237,3.1347,3.1384,3.1531,3.221,3.2339,3.2265,3.2394,3.2412,3.2412,3.2412,3.2668,3.3125,3.3841,3.4542,3.5053,3.5088,3.5856,3.6603,3.6853,3.8104,3.9181,3.9384,3.998,4.0422,4.037,0.0,4.2977,4.3918,4.5565,4.7008,4.8,4.767,4.7581,4.8059,4.7522,4.7438,4.7985,4.8147,4.8598,4.9475,4.9561,4.9949,5.0683,5.0837,5.097,5.1125,5.1171,5.166,5.25,5.2637,5.2637,5.2519,5.2637,5.2617,5.25,5.25,5.2578,5.2793,5.3652,5.4082,5.4316,5.5176,5.5976,5.6601,1.7458,1.8656,1.9809,2.0709,2.1831,2.3101,2.4531,2.5265,2.5872,2.6624,2.6873,2.7115,2.753,2.7908,2.8264,2.8633,2.8863,2.9044,2.9178,2.927,2.9395,2.9514,2.9551,2.9341,2.8901,2.8327,2.7694,2.6971,2.6791,2.6691,2.6691,2.5672,2.5035,2.4658,2.3303,2.304,2.3625,2.2973,2.3256,2.4221,2.5053,2.556,2.594,2.7155,2.7973,2.8524,2.9126,2.9744,3.0361,3.1409,3.1871,3.2118,3.2559,3.2687,3.2761,3.3146,3.3256,3.3256,3.3256,3.3256,3.3264,3.3432,3.3542,3.3825,3.4521,3.4907,3.5253,3.5844,3.6358,3.6988,3.793,3.8757,3.9604,4.0508,4.095,0.0,0.0,4.3374,4.4586,4.4951,4.6661,4.7983,4.8448,4.8243,4.8102,4.8169,4.799,4.789,4.7922,4.8179,4.8676,4.9475,4.9924,5.0336,5.0702,5.076,5.0875,5.0991,5.1541,5.2065,5.2637,5.3633,5.3594,5.2754,5.3691,5.3574,5.2695,5.2695,5.3242,5.4082,5.4023,5.457,5.5449,5.5859,5.625,5.6601,1.8183,1.9297,2.049,2.133,2.2551,2.3836,2.5173,2.5726,2.6156,2.6624,2.6791,2.6971,2.7272,2.7648,2.7992,2.8264,2.8558,2.8791,2.8863,2.8863,2.9003,2.9289,2.9228,2.8828,2.8154,2.7883,2.7409,2.6691,2.6691,2.6691,2.6691,2.5672,2.5221,2.5128,2.3578,2.3586,2.4655,2.3586,2.3926,2.5295,2.615,2.6631,2.6895,2.8401,2.9157,2.947,3.0109,3.056,3.1082,3.231,3.2792,3.2999,3.3605,3.3807,3.3844,3.4027,3.4082,3.4045,3.3844,3.3807,3.385,3.4123,3.4246,3.4449,3.4981,3.5138,3.5468,3.6498,3.6873,3.7526,3.9258,3.9738,4.0373,4.1854,0.0,0.0,0.0,4.4662,4.574,4.6124,4.7605,4.8709,4.9023,4.8895,4.871,4.8489,4.8409,4.8268,4.7988,4.8181,4.8676,4.9475,5.0272,5.0702,5.0702,5.0702,5.0856,5.1203,5.1911,5.2547,5.3144,5.4609,5.4531,5.3379,5.4726,5.4531,5.3301,5.3301,5.4082,5.5234,5.4551,5.5117,5.6308,5.6308,5.6426,5.6601,2.1016,2.1069,2.1357,2.2961,2.3343,2.3959,2.5664,2.5961,2.6156,2.6624,2.7019,2.7272,2.7303,2.7648,2.7897,2.7926,2.7954,2.8102,2.842,2.8446,2.8615,2.8998,2.8664,2.8298,2.7936,2.753,2.7147,2.6691,2.6691,2.6691,2.6691,2.5672,2.5221,2.5144,2.4032,2.4253,2.5461,2.476,2.5546,2.7272,2.7232,2.7543,2.813,2.8777,2.9657,3.0578,3.0647,3.1656,3.3021,3.3105,3.3403,3.3715,3.377,3.3807,3.3954,3.4679,3.4899,3.4734,3.4009,3.3807,3.385,3.4123,3.4423,3.4734,3.5034,3.5289,3.5691,3.6531,3.7334,3.8411,4.0085,4.1066,4.1931,4.2854,0.0,0.0,4.4105,4.5009,4.6182,4.774,4.8874,4.9836,5.0625,5.0125,4.9819,5.0106,4.9058,4.8511,4.8785,4.8477,4.8676,4.9475,5.0272,5.0702,5.0702,5.0702,5.1144,5.201,5.2088,5.3113,5.4902,5.5058,5.5117,5.5117,5.5234,5.5234,5.5117,5.5117,5.5176,5.5293,5.5234,5.5273,5.539,5.539,5.5918,5.6601,2.1552,2.2545,2.3305,2.3358,2.4537,2.5579,2.5947,2.6262,2.6521,2.6691,2.6841,2.6939,2.6939,2.7303,2.753,2.753,2.7754,2.8047,2.8394,2.8394,2.8565,2.8994,2.8615,2.8237,2.7897,2.7517,2.7115,2.6691,2.6691,2.6539,2.6262,2.5524,2.5012,2.4688,2.4362,2.4747,2.56,2.5345,2.6092,2.7518,2.7858,2.8329,2.9013,2.9967,3.0611,3.1099,3.1616,3.2225,3.284,3.339,3.3662,3.3807,3.3807,3.4137,3.4724,3.5569,3.544,3.5045,3.5293,3.4578,3.385,3.4123,3.4445,3.4906,3.5662,3.6051,3.6776,3.8661,3.9315,4.0085,4.1797,4.2374,4.2874,4.3701,0.0,4.4143,4.4989,4.5855,4.6836,4.7971,4.8913,4.9856,5.0818,5.0337,4.9978,4.9919,4.9158,4.8661,4.8532,4.864,4.893,4.9475,5.052,5.119,5.1452,5.1433,5.1895,5.2799,5.3395,5.4164,5.5002,5.5615,5.5683,5.5332,5.5879,5.5801,5.5293,5.5293,5.5625,5.6055,5.5508,5.5625,5.6113,5.6113,5.6328,5.6601,2.2497,2.3671,2.4507,2.4277,2.5455,2.6401,2.6262,2.647,2.6691,2.6691,2.6691,2.6691,2.6691,2.6939,2.7115,2.7115,2.7348,2.766,2.8029,2.8272,2.8565,2.8994,2.8615,2.8237,2.7897,2.7517,2.7115,2.6691,2.6691,2.647,2.5977,2.5449,2.4894,2.442,2.4336,2.4792,2.5615,2.5615,2.6581,2.8135,2.8566,2.9202,2.9992,3.087,3.1351,3.1714,3.229,3.2697,3.2996,3.3606,3.3807,3.3844,3.41,3.4926,3.5899,3.6486,3.6248,3.5917,3.6505,3.5642,3.4668,3.5011,3.5262,3.5702,3.6625,3.6995,3.7757,4.0027,4.0489,4.1104,4.3104,4.347,4.3739,4.4566,4.4701,4.4913,4.5509,4.6567,4.749,4.8029,4.9106,5.0067,5.0779,5.0393,4.9967,4.9652,4.9193,4.8709,4.8344,4.8692,4.9206,4.99,5.0817,5.1767,5.2722,5.2452,5.276,5.3626,5.432,5.4858,5.5323,5.6007,5.6105,5.5742,5.6348,5.6269,5.5703,5.5703,5.6055,5.6543,5.5937,5.6074,5.6601,5.6601,5.6601,5.6601,2.4184,2.4389,2.4736,2.5815,2.6013,2.6139,2.6624,2.6691,2.6691,2.6691,2.6691,2.6691,2.6691,2.6691,2.6691,2.6691,2.6691,2.6873,2.7255,2.7984,2.8565,2.8975,2.859,2.8237,2.7897,2.75,2.7083,2.6691,2.6691,2.647,2.5961,2.5449,2.491,2.4389,2.3852,2.4358,2.5615,2.5615,2.7072,2.9406,2.9406,3.0123,3.119,3.119,3.1731,3.2484,3.2484,3.3057,3.3807,3.3807,3.3807,3.3954,3.4752,3.6156,3.7477,3.7526,3.7507,3.7507,3.7526,3.6927,3.6445,3.6975,3.709,3.7256,3.7878,3.8007,3.8507,4.0162,4.0527,4.1296,4.3835,4.4316,4.4586,4.5451,4.5605,4.5605,4.5605,4.7048,4.8105,4.8105,4.9644,5.0683,5.0683,5.0336,4.9924,4.9551,4.9108,4.8709,4.8344,4.8692,4.9501,5.0778,5.114,5.2341,5.4472,5.3645,5.3645,5.4511,5.4511,5.5088,5.6207,5.6199,5.6361,5.6601,5.6601,5.6601,5.6601,5.6601,5.6601,5.6601,5.6601,5.6601,5.6601,5.6601,5.6601,5.6601,2.4184,2.4697,2.5182,2.5888,2.6262,2.6556,2.6691,2.6691,2.6691,2.6691,2.6691,2.6691,2.6691,2.6691,2.6691,2.6691,2.6691,2.6873,2.7255,2.8264,2.8633,2.8246,2.8102,2.788,2.747,2.7083,2.6808,2.6691,2.6691,2.628,2.5465,2.5259,2.4697,2.3882,2.4672,2.5241,2.5674,2.7052,2.8311,2.9451,2.9848,3.0518,3.119,3.119,3.1545,3.2057,3.2384,3.2872,3.3419,3.3707,3.4192,3.4908,3.6303,3.6707,3.6872,3.801,3.7936,3.7606,3.8193,3.8175,3.7798,3.7007,3.6975,3.7366,3.84,3.9202,4.0239,4.197,4.2758,4.3585,4.4951,4.5201,4.5297,4.5547,4.6105,4.6509,4.6509,4.7432,4.8336,4.8933,4.9471,4.9912,5.0256,4.9924,4.9504,4.9108,4.8728,4.8421,4.8306,4.8991,4.9817,5.0768,5.1991,5.3244,5.4491,5.4241,5.453,5.5338,5.5338,5.5568,5.5974,5.6141,5.6283,5.6465,5.6562,5.6601,5.6601,5.6601,5.6601,5.6601,5.6601,5.6601,5.6601,5.6601,5.6601,5.6601,2.4536,2.5144,2.5689,2.6175,2.6505,2.6691,2.6691,2.6691,2.6691,2.6691,2.6691,2.6691,2.6691,2.6962,2.7148,2.7148,2.7148,2.7197,2.7289,2.8102,2.8281,2.7678,2.7811,2.7707,2.7303,2.7051,2.6873,2.6691,2.6691,2.628,2.5486,2.5297,2.4736,2.3952,2.4537,2.5093,2.5637,2.7103,2.8334,2.9356,3.0051,3.0658,3.119,3.119,3.1545,3.2092,3.2417,3.3118,3.3938,3.4183,3.5037,3.6174,3.7165,3.7367,3.7441,3.8414,3.8358,3.8065,3.8579,3.8707,3.8626,3.8427,3.8221,3.8404,3.9585,4.0436,4.1489,4.322,4.4239,4.497,4.549,4.5874,4.6105,4.6105,4.6567,4.7009,4.7336,4.8086,4.8817,4.9336,4.9546,4.9784,5.0078,4.9589,4.9094,4.8692,4.8421,4.8306,4.8306,4.9269,5.0296,5.125,5.2702,5.3956,5.4953,5.4972,5.5222,5.5703,5.5703,5.5761,5.5898,5.6029,5.6203,5.6406,5.6484,5.6543,5.6601,5.6601,5.6601,5.6601,5.6601,5.6601,5.6601,5.6601,5.6601,5.6601,2.5089,2.5615,2.6156,2.6624,2.6691,2.6691,2.6691,2.6691,2.6691,2.6691,2.6759,2.6793,2.6793,2.7469,2.7926,2.7926,2.7909,2.7794,2.7348,2.7754,2.7777,2.7272,2.7619,2.7648,2.7272,2.7241,2.7051,2.6691,2.6691,2.6436,2.5924,2.5411,2.4894,2.4389,2.394,2.4435,2.5625,2.6408,2.7732,2.9354,3.0071,3.0699,3.119,3.123,3.1839,3.2623,3.2657,3.3718,3.5119,3.5192,3.6248,3.7496,3.7569,3.8102,3.8707,3.8707,3.8707,3.8707,3.8707,3.8707,3.9036,4.0484,4.0278,4.0012,4.1186,4.1797,4.2566,4.4105,4.5163,4.5817,4.5817,4.6471,4.7009,4.7009,4.7067,4.7375,4.8105,4.8971,4.951,4.951,4.9857,5.0092,5.0043,4.9326,4.8674,4.8344,4.8306,4.8306,4.8306,4.9528,5.0777,5.1949,5.3261,5.4517,5.5684,5.5703,5.5703,5.5703,5.5703,5.5761,5.5876,5.5876,5.6088,5.638,5.6386,5.6484,5.6601,5.6601,5.6601,5.6601,5.6601,5.6601,5.6601,5.6601,5.6601,5.6601,2.5089,2.5615,2.6156,2.6624,2.6691,2.6691,2.6691,2.6691,2.6691,2.6691,2.7199,2.7571,2.7571,2.8264,2.8738,2.8738,2.899,2.8716,2.7743,2.8359,2.8172,2.6908,2.721,2.7241,2.6841,2.6841,2.6791,2.6691,2.6691,2.6229,2.5373,2.5259,2.4894,2.442,2.481,2.5726,2.6952,2.81,2.9165,3.012,3.0771,3.1095,3.123,3.1528,3.2405,3.3488,3.3852,3.4879,3.6119,3.6743,3.7184,3.7606,3.823,3.856,3.8707,3.8707,3.8707,3.8707,3.8707,3.8707,3.8994,4.0215,4.0566,4.0991,4.2391,4.3782,4.4874,4.524,4.6509,4.7567,4.7567,4.7721,4.7836,4.7836,4.8413,4.8913,4.9086,4.9875,5.0414,5.0414,5.0221,4.9974,4.9664,4.8897,4.8383,4.8306,4.8306,4.8306,4.8306,4.9818,5.1082,5.1967,5.3551,5.4789,5.5684,5.5703,5.5703,5.5703,5.5703,5.5722,5.5742,5.5838,5.6039,5.6253,5.6343,5.6484,5.6601,5.6601,5.6601,5.6601,5.6601,5.6601,5.6601,5.6601,5.6601,5.6699,2.5144,2.5835,2.6401,2.6657,2.6691,2.6691,2.6691,2.6996,2.7232,2.7232,2.7892,2.8383,2.8383,2.9059,2.9516,2.9516,2.9702,2.9397,2.8416,2.8589,2.8288,2.7284,2.7272,2.7115,2.6725,2.6691,2.6691,2.6691,2.6691,2.6419,2.5908,2.6048,2.5966,2.571,2.6129,2.686,2.7794,2.8812,2.9615,3.0256,3.092,3.119,3.1263,3.1842,3.2715,3.3771,3.4398,3.5584,3.7,3.779,3.8065,3.8138,3.8579,3.8707,3.8707,3.8707,3.8707,3.8781,3.9166,3.9276,3.9657,4.1165,4.1785,4.2314,4.3254,4.4266,4.522,4.6047,4.7221,4.8105,4.8105,4.8432,4.8721,4.8721,4.9106,4.9548,4.9952,5.0414,5.0624,5.0421,5.0068,4.9589,4.8996,4.855,4.8306,4.8306,4.8306,4.8567,4.9177,5.0398,5.1665,5.2855,5.4126,5.5061,5.5684,5.5703,5.5703,5.5703,5.5703,5.5703,5.5703,5.5761,5.5895,5.6074,5.6222,5.6387,5.6504,5.6562,5.6601,5.6601,5.6601,5.6601,5.6601,5.6601,5.6855,5.7344,2.5297,2.6016,2.6624,2.6691,2.6793,2.6894,2.6894,2.7537,2.8027,2.8027,2.8704,2.9178,2.9178,2.9854,3.0294,3.0294,3.0294,2.9973,2.9228,2.8887,2.8408,2.7841,2.7654,2.7362,2.6894,2.7012,2.6962,2.6691,2.6826,2.6843,2.6792,2.7122,2.7283,2.7316,2.7469,2.7891,2.8561,2.9175,2.9777,3.0345,3.0954,3.1336,3.1584,3.2298,3.3236,3.4317,3.5009,3.6317,3.7826,3.8634,3.8909,3.8927,3.9074,3.9111,3.9111,3.9111,3.9111,3.9258,3.9918,4.0147,4.0652,4.2611,4.3375,4.3777,4.4452,4.4786,4.5393,4.7009,4.799,4.8548,4.8548,4.9125,4.9625,4.9625,4.9625,4.9875,5.0587,5.0702,5.0544,5.0159,4.9673,4.9126,4.8364,4.8306,4.8306,4.8306,4.8434,4.8993,5.0126,5.1092,5.2301,5.3849,5.4669,5.5306,5.5703,5.5838,5.5838,5.5703,5.5992,5.5992,5.5703,5.5703,5.5761,5.5919,5.6083,5.6235,5.6406,5.6523,5.6582,5.6601,5.6601,5.6601,5.6621,5.6777,5.7363,5.8242,2.5689,2.5997,2.6227,2.6624,2.7232,2.7637,2.7637,2.8332,2.8822,2.8822,2.9482,2.9956,2.9956,3.0615,3.1055,3.1055,3.1055,3.0734,3.0006,2.9892,2.9231,2.784,2.8437,2.842,2.7689,2.8332,2.8027,2.6691,2.7351,2.7444,2.7044,2.7734,2.8064,2.8064,2.8069,2.8733,2.9842,2.9943,3.0386,3.1055,3.1157,3.1859,3.2902,3.3354,3.4725,3.6432,3.6929,3.7735,3.8652,3.946,3.9735,3.9863,4.0561,4.0799,4.0799,4.0799,4.0799,4.0818,4.0928,4.1157,4.1857,4.3853,4.4597,4.5333,4.7127,4.7568,4.7875,4.8856,4.974,5.0337,5.0337,5.0433,5.051,5.051,5.051,5.0567,5.0664,5.0702,5.0544,5.0159,4.9445,4.8813,4.8326,4.8306,4.8306,4.8306,4.8985,4.9638,5.0163,5.1633,5.2883,5.3868,5.4669,5.5306,5.5703,5.6434,5.6434,5.5722,5.7223,5.7165,5.5703,5.5703,5.5761,5.5917,5.5921,5.6122,5.6406,5.6426,5.6504,5.6601,5.6601,5.6601,5.6699,5.7441,5.8281,5.914,2.643,2.6842,2.719,2.7857,2.8247,2.8467,2.8467,2.9127,2.96,2.96,3.0615,3.1326,3.1326,3.1985,3.2256,3.1833,3.1799,3.1495,3.0768,3.0328,2.9803,2.9127,2.9025,2.8822,2.8484,2.8805,2.8689,2.7977,2.8298,2.8342,2.8176,2.8913,2.9264,2.9281,2.9683,3.0404,3.1326,3.1326,3.1749,3.2425,3.2425,3.2774,3.3362,3.4248,3.5313,3.6574,3.8232,3.9056,3.9496,4.0304,4.0579,4.0634,4.1001,4.1111,4.1111,4.1111,4.1111,4.1313,4.2194,4.2717,4.3434,4.5217,4.6076,4.686,4.8231,4.8701,4.8933,4.9317,4.9702,5.0106,5.0606,5.0702,5.0702,5.0702,5.0702,5.0702,5.0702,5.0702,5.0483,4.9827,4.9043,4.8477,4.8306,4.8306,4.8508,4.8985,4.937,5.0269,5.1785,5.2351,5.3314,5.4867,5.5021,5.5536,5.6415,5.6319,5.6319,5.6434,5.7203,5.7165,5.6415,5.6415,5.6453,5.6472,5.6069,5.6306,5.6928,5.6543,5.7051,5.7969,5.6973,5.6894,5.7422,5.8301,5.914,5.9922]},{"header":{"parameterUnit":"m.s-1","parameterCategory":1,"la1":30.6,"la2":28.766,"lo1":-90.7593,"lo2":-88.6598,"dy":0.0162,"dx":0.0183,"nx":116,"ny":114,"refTime":"2024-01-31T18:00:00:Z","depth":0,"parameterNumber":3,"parameterNumberName":"V-component_of_WINDS"},"data":[0.0,0.0,0.0,0.0,0.0,0.0,0.0,0.0,0.0,0.0,0.0,0.0,0.0,0.0,0.0,0.0,0.0,0.0,0.0,0.0,0.0,0.0,0.0,0.0,0.0,0.0,0.0,0.0,0.0,0.0,0.0,0.0,0.0,0.0,0.0,0.0,0.0,0.0,0.0,0.0,0.0,0.0,0.0,0.0,0.0,0.0,0.0,0.0,0.0,0.0,0.0,0.0,0.0,0.0,0.0,0.0,0.0,0.0,0.0,0.0,0.0,0.0,0.0,0.0,0.0,0.0,0.0,0.0,0.0,0.0,0.0,0.0,0.0,0.0,0.0,0.0,0.0,0.0,0.0,0.0,0.0,0.0,0.0,0.0,0.0,0.0,0.0,0.0,0.0,0.0,0.0,0.0,0.0,0.0,0.0,0.0,0.0,0.0,0.0,0.0,0.0,0.0,0.0,0.0,0.0,0.0,0.0,0.0,0.0,0.0,0.0,0.0,0.0,0.0,0.0,0.0,0.0,0.0,0.0,0.0,0.0,0.0,0.0,0.0,0.0,0.0,0.0,0.0,0.0,0.0,0.0,0.0,0.0,0.0,0.0,0.0,0.0,0.0,0.0,0.0,0.0,0.0,0.0,0.0,0.0,0.0,0.0,0.0,0.0,0.0,0.0,0.0,0.0,0.0,0.0,0.0,0.0,0.0,0.0,0.0,0.0,0.0,0.0,0.0,0.0,0.0,0.0,0.0,0.0,0.0,0.0,0.0,0.0,0.0,0.0,0.0,0.0,0.0,0.0,0.0,0.0,0.0,0.0,0.0,0.0,0.0,0.0,0.0,0.0,0.0,0.0,0.0,0.0,0.0,0.0,0.0,0.0,0.0,0.0,0.0,0.0,0.0,0.0,0.0,0.0,0.0,0.0,0.0,0.0,0.0,0.0,0.0,0.0,0.0,0.0,0.0,0.0,0.0,0.0,0.0,0.0,0.0,0.0,0.0,0.0,0.0,0.0,0.0,0.0,0.0,0.0,0.0,0.0,0.0,0.0,0.0,0.0,0.0,0.0,0.0,0.0,0.0,0.0,0.0,0.0,0.0,0.0,0.0,0.0,0.0,0.0,0.0,0.0,0.0,0.0,0.0,0.0,0.0,0.0,0.0,0.0,0.0,0.0,0.0,0.0,0.0,0.0,0.0,0.0,0.0,0.0,0.0,0.0,0.0,0.0,0.0,0.0,0.0,0.0,0.0,0.0,0.0,0.0,0.0,0.0,0.0,0.0,0.0,0.0,0.0,0.0,0.0,0.0,0.0,0.0,0.0,0.0,0.0,0.0,0.0,0.0,0.0,0.0,0.0,0.0,0.0,0.0,0.0,0.0,0.0,0.0,0.0,0.0,0.0,0.0,0.0,0.0,0.0,0.0,0.0,0.0,0.0,0.0,0.0,0.0,0.0,0.0,0.0,0.0,0.0,0.0,0.0,0.0,0.0,0.0,0.0,0.0,0.0,0.0,0.0,0.0,0.0,0.0,0.0,0.0,0.0,0.0,0.0,0.0,0.0,0.0,0.0,0.0,0.0,0.0,0.0,0.0,0.0,0.0,0.0,0.0,0.0,0.0,0.0,0.0,0.0,0.0,0.0,0.0,0.0,0.0,0.0,0.0,0.0,0.0,0.0,0.0,0.0,0.0,0.0,0.0,0.0,0.0,0.0,0.0,0.0,0.0,0.0,0.0,0.0,0.0,0.0,0.0,0.0,0.0,0.0,0.0,0.0,0.0,0.0,0.0,0.0,0.0,0.0,0.0,0.0,0.0,0.0,0.0,0.0,0.0,0.0,0.0,0.0,0.0,0.0,0.0,0.0,0.0,0.0,0.0,0.0,0.0,0.0,0.0,0.0,0.0,0.0,0.0,0.0,0.0,0.0,0.0,0.0,0.0,0.0,0.0,0.0,0.0,0.0,0.0,0.0,0.0,0.0,0.0,0.0,0.0,0.0,0.0,0.0,0.0,0.0,0.0,0.0,0.0,0.0,0.0,0.0,0.0,0.0,0.0,0.0,0.0,0.0,0.0,0.0,0.0,0.0,0.0,0.0,0.0,0.0,0.0,0.0,0.0,0.0,0.0,0.0,0.0,0.0,0.0,0.0,0.0,0.0,0.0,0.0,0.0,0.0,0.0,0.0,0.0,0.0,0.0,0.0,0.0,0.0,0.0,0.0,0.0,0.0,0.0,0.0,0.0,0.0,0.0,0.0,0.0,0.0,0.0,0.0,0.0,0.0,0.0,0.0,0.0,0.0,0.0,0.0,0.0,0.0,0.0,0.0,0.0,0.0,0.0,0.0,0.0,0.0,0.0,0.0,0.0,0.0,0.0,0.0,0.0,0.0,0.0,0.0,0.0,0.0,0.0,0.0,0.0,0.0,0.0,0.0,0.0,0.0,0.0,0.0,0.0,0.0,0.0,0.0,0.0,0.0,0.0,0.0,0.0,0.0,0.0,0.0,0.0,0.0,0.0,0.0,0.0,0.0,0.0,0.0,0.0,0.0,0.0,0.0,0.0,0.0,0.0,0.0,0.0,0.0,0.0,0.0,0.0,0.0,0.0,0.0,0.0,0.0,0.0,0.0,0.0,0.0,0.0,0.0,0.0,0.0,0.0,0.0,0.0,0.0,0.0,0.0,0.0,0.0,0.0,0.0,0.0,0.0,0.0,0.0,0.0,0.0,0.0,0.0,0.0,0.0,0.0,0.0,0.0,0.0,0.0,0.0,0.0,0.0,0.0,0.0,0.0,0.0,0.0,0.0,0.0,0.0,0.0,0.0,0.0,0.0,0.0,0.0,0.0,0.0,0.0,0.0,0.0,0.0,0.0,0.0,0.0,0.0,0.0,0.0,0.0,0.0,0.0,0.0,0.0,0.0,0.0,0.0,0.0,0.0,0.0,0.0,0.0,0.0,0.0,0.0,0.0,0.0,0.0,0.0,0.0,0.0,0.0,0.0,0.0,0.0,0.0,0.0,0.0,0.0,0.0,0.0,0.0,0.0,0.0,0.0,0.0,0.0,0.0,0.0,0.0,0.0,0.0,0.0,0.0,0.0,0.0,0.0,0.0,0.0,0.0,0.0,0.0,0.0,0.0,0.0,0.0,0.0,0.0,0.0,0.0,0.0,0.0,0.0,0.0,0.0,0.0,0.0,0.0,0.0,0.0,0.0,0.0,0.0,0.0,0.0,0.0,0.0,0.0,0.0,0.0,0.0,0.0,0.0,0.0,0.0,0.0,0.0,0.0,0.0,0.0,0.0,0.0,0.0,0.0,0.0,0.0,0.0,0.0,0.0,0.0,0.0,0.0,0.0,0.0,0.0,0.0,0.0,0.0,0.0,0.0,0.0,0.0,0.0,0.0,0.0,0.0,0.0,0.0,0.0,0.0,0.0,0.0,0.0,0.0,0.0,0.0,0.0,0.0,0.0,0.0,0.0,0.0,0.0,0.0,0.0,0.0,0.0,0.0,0.0,0.0,0.0,0.0,0.0,0.0,0.0,0.0,0.0,0.0,0.0,0.0,0.0,0.0,0.0,0.0,0.0,0.0,0.0,0.0,0.0,0.0,0.0,0.0,0.0,0.0,0.0,0.0,0.0,0.0,0.0,0.0,0.0,0.0,0.0,0.0,0.0,0.0,0.0,0.0,0.0,0.0,0.0,0.0,0.0,0.0,0.0,0.0,0.0,0.0,0.0,0.0,0.0,0.0,0.0,0.0,0.0,0.0,0.0,0.0,0.0,0.0,0.0,0.0,0.0,0.0,0.0,0.0,0.0,0.0,0.0,0.0,0.0,0.0,0.0,0.0,0.0,0.0,0.0,0.0,0.0,0.0,0.0,0.0,0.0,0.0,0.0,0.0,0.0,0.0,0.0,0.0,0.0,0.0,0.0,0.0,0.0,0.0,0.0,0.0,0.0,0.0,0.0,0.0,0.0,0.0,0.0,0.0,0.0,0.0,0.0,0.0,0.0,0.0,0.0,0.0,0.0,0.0,0.0,0.0,0.0,0.0,0.0,0.0,0.0,0.0,0.0,0.0,0.0,0.0,0.0,0.0,0.0,0.0,0.0,0.0,0.0,0.0,0.0,0.0,0.0,0.0,0.0,0.0,0.0,0.0,0.0,0.0,0.0,0.0,0.0,0.0,0.0,0.0,0.0,0.0,0.0,0.0,0.0,0.0,0.0,0.0,0.0,0.0,0.0,0.0,0.0,0.0,0.0,0.0,0.0,0.0,0.0,0.0,0.0,0.0,0.0,0.0,0.0,0.0,0.0,0.0,0.0,0.0,0.0,0.0,0.0,0.0,0.0,0.0,0.0,0.0,0.0,0.0,0.0,0.0,0.0,0.0,0.0,0.0,0.0,0.0,0.0,0.0,0.0,0.0,0.0,0.0,0.0,0.0,0.0,0.0,0.0,0.0,0.0,0.0,0.0,0.0,0.0,0.0,0.0,0.0,0.0,0.0,0.0,0.0,0.0,0.0,0.0,0.0,0.0,0.0,0.0,0.0,0.0,0.0,0.0,0.0,0.0,0.0,0.0,0.0,0.0,0.0,0.0,0.0,0.0,0.0,0.0,0.0,0.0,0.0,0.0,0.0,0.0,0.0,0.0,0.0,0.0,0.0,0.0,0.0,0.0,0.0,0.0,0.0,0.0,0.0,0.0,0.0,0.0,0.0,0.0,0.0,0.0,0.0,0.0,0.0,0.0,0.0,0.0,0.0,0.0,0.0,0.0,0.0,0.0,0.0,0.0,0.0,0.0,0.0,0.0,0.0,0.0,0.0,0.0,0.0,0.0,0.0,0.0,0.0,0.0,0.0,0.0,0.0,0.0,0.0,0.0,0.0,0.0,0.0,0.0,0.0,0.0,0.0,0.0,0.0,0.0,0.0,0.0,0.0,0.0,0.0,0.0,0.0,0.0,0.0,0.0,0.0,0.0,0.0,0.0,0.0,0.0,0.0,0.0,0.0,0.0,0.0,0.0,0.0,0.0,0.0,0.0,0.0,0.0,0.0,0.0,0.0,0.0,0.0,0.0,0.0,0.0,0.0,0.0,0.0,0.0,0.0,0.0,0.0,0.0,0.0,0.0,0.0,0.0,0.0,0.0,0.0,0.0,0.0,0.0,0.0,0.0,0.0,0.0,0.0,0.0,0.0,0.0,0.0,0.0,0.0,0.0,0.0,0.0,0.0,0.0,0.0,0.0,0.0,0.0,0.0,0.0,0.0,0.0,0.0,0.0,0.0,0.0,0.0,0.0,0.0,0.0,0.0,0.0,0.0,0.0,0.0,0.0,0.0,0.0,0.0,0.0,0.0,0.0,0.0,0.0,0.0,0.0,0.0,0.0,0.0,0.0,0.0,0.0,0.0,0.0,0.0,0.0,0.0,0.0,0.0,0.0,0.0,0.0,0.0,0.0,0.0,0.0,0.0,0.0,0.0,0.0,0.0,0.0,0.0,0.0,0.0,0.0,0.0,0.0,0.0,0.0,0.0,0.0,0.0,0.0,0.0,0.0,0.0,0.0,0.0,0.0,0.0,0.0,0.0,0.0,0.0,0.0,0.0,0.0,0.0,0.0,0.0,0.0,0.0,0.0,0.0,0.0,0.0,0.0,0.0,0.0,0.0,0.0,0.0,0.0,0.0,0.0,0.0,0.0,0.0,0.0,0.0,0.0,0.0,0.0,0.0,0.0,0.0,0.0,0.0,0.0,0.0,0.0,0.0,0.0,0.0,0.0,0.0,0.0,0.0,0.0,0.0,0.0,0.0,0.0,0.0,0.0,0.0,0.0,0.0,0.0,0.0,0.0,0.0,0.0,0.0,0.0,0.0,0.0,0.0,0.0,0.0,0.0,0.0,0.0,0.0,0.0,0.0,0.0,0.0,0.0,0.0,0.0,0.0,0.0,0.0,0.0,0.0,0.0,0.0,0.0,0.0,0.0,0.0,0.0,0.0,0.0,0.0,0.0,0.0,0.0,0.0,0.0,0.0,0.0,0.0,0.0,0.0,0.0,0.0,0.0,0.0,0.0,0.0,0.0,0.0,0.0,0.0,0.0,0.0,0.0,0.0,0.0,0.0,0.0,0.0,0.0,-0.7801,0.0,0.0,0.0,0.0,0.0,0.0,0.0,0.0,0.0,0.0,0.0,0.0,0.0,0.0,0.0,0.0,0.0,0.0,0.0,0.0,0.0,0.0,0.0,0.0,0.0,0.0,0.0,-0.6338,-0.6338,-0.6338,-0.6338,-0.6338,-0.6338,-0.6338,-0.6338,-0.6338,-0.6183,-0.6179,-0.6338,-0.6247,-0.6627,0.0,0.0,0.0,0.0,0.0,0.0,0.0,0.0,0.0,0.0,0.0,0.0,0.0,0.0,0.0,0.0,0.0,0.0,0.0,0.0,0.0,0.0,0.0,0.0,0.0,0.0,0.0,0.0,0.0,0.0,0.0,0.0,0.0,0.0,0.0,0.0,0.0,0.0,0.0,0.0,0.0,0.0,0.0,0.0,0.0,0.0,0.0,0.0,0.0,0.0,0.0,0.0,0.0,0.0,0.0,0.0,0.0,0.0,0.0,0.0,0.0,0.0,0.0,0.0,0.0,0.0,0.0,0.0,0.0,0.0,0.0,0.0,0.0,0.0,0.0,-0.7879,0.0,0.0,0.0,0.0,0.0,0.0,0.0,0.0,0.0,0.0,0.0,0.0,0.0,0.0,0.0,0.0,0.0,0.0,0.0,0.0,0.0,0.0,0.0,0.0,-0.6338,-0.6338,-0.6338,-0.6338,-0.6338,-0.6338,-0.6338,-0.6338,-0.6338,-0.6338,-0.6338,-0.6338,-0.6274,-0.6298,-0.6676,-0.7373,0.0,0.0,0.0,0.0,0.0,0.0,0.0,0.0,0.0,0.0,0.0,0.0,0.0,0.0,0.0,0.0,0.0,0.0,0.0,0.0,0.0,0.0,0.0,0.0,0.0,0.0,0.0,0.0,0.0,0.0,0.0,0.0,0.0,0.0,0.0,0.0,0.0,0.0,0.0,0.0,0.0,0.0,0.0,0.0,0.0,0.0,0.0,0.0,0.0,0.0,0.0,0.0,0.0,0.0,0.0,0.0,0.0,0.0,0.0,0.0,0.0,0.0,0.0,0.0,0.0,0.0,0.0,0.0,-1.2242,-1.0771,-0.9229,-0.8715,-0.8617,-0.8831,-0.7878,-0.7895,-0.8674,-0.8329,0.0,0.0,0.0,0.0,0.0,0.0,0.0,0.0,0.0,0.0,0.0,0.0,0.0,0.0,0.0,0.0,0.0,0.0,0.0,0.0,0.0,-0.6338,-0.6338,-0.6338,-0.6338,-0.6338,-0.6338,-0.6338,-0.6338,-0.6338,-0.6338,-0.6338,-0.6338,-0.6338,-0.6322,-0.6444,-0.7631,-0.8212,0.0,0.0,0.0,0.0,0.0,0.0,0.0,0.0,0.0,0.0,0.0,0.0,0.0,0.0,0.0,0.0,0.0,0.0,0.0,0.0,0.0,0.0,0.0,0.0,0.0,0.0,0.0,0.0,0.0,0.0,0.0,0.0,0.0,0.0,0.0,0.0,0.0,0.0,0.0,0.0,0.0,0.0,0.0,0.0,0.0,0.0,0.0,0.0,-1.037,-1.2081,0.0,0.0,0.0,0.0,0.0,0.0,0.0,0.0,0.0,0.0,0.0,0.0,0.0,-1.286,-1.3892,-1.5635,-1.5844,-1.4548,-1.3508,-1.2224,-1.0754,-0.9468,-0.8821,-0.8927,-0.8703,0.0,-0.817,-0.8574,0.0,0.0,0.0,0.0,0.0,0.0,0.0,0.0,0.0,0.0,0.0,0.0,0.0,0.0,0.0,0.0,0.0,0.0,0.0,0.0,0.0,-0.641,-0.6474,-0.6386,-0.661,-0.6647,-0.6396,-0.6461,-0.6434,-0.6345,-0.6338,-0.6338,-0.6338,-0.6338,-0.6373,-0.66,-0.7899,0.0,0.0,0.0,0.0,0.0,0.0,0.0,0.0,0.0,0.0,0.0,0.0,0.0,0.0,0.0,0.0,0.0,0.0,0.0,0.0,0.0,0.0,0.0,0.0,0.0,0.0,0.0,0.0,0.0,0.0,0.0,0.0,0.0,0.0,0.0,0.0,0.0,0.0,0.0,0.0,0.0,0.0,0.0,0.0,0.0,0.0,0.0,0.0,-1.0126,-1.1624,-1.379,-1.2558,-1.1335,0.0,0.0,0.0,0.0,0.0,0.0,0.0,0.0,0.0,-1.0556,-1.1655,-1.3143,-1.5072,-1.6475,-1.6918,-1.6358,-1.4276,-1.2512,-1.0996,-0.9592,-0.894,-0.8937,-0.8869,-0.9414,-1.0122,-0.9271,-0.8709,-0.8431,0.0,0.0,0.0,0.0,-0.7056,-0.7167,0.0,0.0,0.0,0.0,0.0,0.0,0.0,0.0,0.0,0.0,0.0,0.0,-0.6314,-0.676,-0.7076,-0.7075,-0.7395,-0.7517,-0.7435,-0.7204,-0.6962,-0.6729,-0.6374,-0.6203,-0.6203,-0.6278,-0.6424,-0.6644,0.0,0.0,0.0,0.0,0.0,0.0,0.0,0.0,0.0,0.0,0.0,0.0,0.0,0.0,0.0,0.0,0.0,0.0,0.0,0.0,0.0,0.0,0.0,0.0,0.0,0.0,0.0,0.0,0.0,0.0,0.0,0.0,0.0,0.0,0.0,0.0,0.0,0.0,0.0,0.0,0.0,0.0,0.0,0.0,0.0,0.0,0.0,0.0,0.0,-1.1347,-1.2632,-1.516,-1.4314,-1.3267,0.0,0.0,0.0,0.0,0.0,0.0,-0.6904,-1.0623,-1.2709,-1.2666,-1.3111,-1.4254,-1.624,-1.7127,-1.7595,-1.7516,-1.5405,-1.3398,-1.1612,-0.9776,-0.892,-0.8934,-0.8934,-0.9675,-1.1035,-1.0265,-0.9602,-0.8841,-0.8436,-0.7994,-0.7556,-0.7537,-0.7572,-0.7652,0.0,0.0,0.0,0.0,0.0,0.0,0.0,0.0,0.0,0.0,0.0,-0.7009,-0.6381,-0.7396,-0.8309,-0.872,-0.8683,-0.9034,-0.9958,-0.8696,-0.7872,-0.7706,-0.664,-0.604,-0.604,-0.6318,-0.6468,-0.6485,0.0,0.0,0.0,0.0,0.0,0.0,0.0,0.0,0.0,0.0,0.0,0.0,0.0,0.0,0.0,0.0,0.0,0.0,0.0,0.0,0.0,0.0,0.0,0.0,0.0,0.0,0.0,0.0,0.0,0.0,0.0,0.0,0.0,0.0,0.0,0.0,0.0,0.0,0.0,0.0,0.0,0.0,0.0,0.0,0.0,0.0,0.0,0.0,0.0,0.0,0.0,-1.5481,-1.5275,0.0,0.0,0.0,0.0,-0.9881,-0.8411,-0.7171,-0.6429,-1.326,-1.7225,-1.7279,-1.7319,-1.7365,-1.7528,-1.7569,-1.7566,-1.764,-1.7445,-1.5915,-1.308,-1.0219,-0.8884,-0.8937,-0.8937,-0.8971,-0.9301,-1.193,-1.1379,-0.892,-0.8834,-0.8816,-0.8776,-0.8792,-0.8849,-0.8786,0.0,0.0,0.0,0.0,0.0,0.0,0.0,0.0,0.0,-0.5583,-0.6885,-0.7622,-0.7383,-0.8805,-0.9757,-0.9858,-1.0057,-1.0265,-1.0362,-0.899,-0.8233,-0.8038,-0.6764,-0.6074,-0.6176,-0.6373,-0.6788,0.0,0.0,0.0,0.0,0.0,0.0,0.0,0.0,0.0,0.0,0.0,0.0,0.0,0.0,0.0,0.0,0.0,0.0,0.0,0.0,0.0,0.0,0.0,0.0,0.0,0.0,0.0,0.0,0.0,0.0,0.0,0.0,0.0,0.0,0.0,0.0,0.0,0.0,0.0,0.0,0.0,0.0,0.0,0.0,0.0,0.0,0.0,0.0,0.0,0.0,0.0,0.0,-1.5763,-1.5778,0.0,-1.4817,-1.2997,-1.1385,-1.021,-0.8881,-0.8094,-0.7962,-1.4128,-1.7599,-1.7562,-1.7555,-1.7604,-1.7599,-1.7599,-1.7597,-1.7589,-1.7216,-1.6467,-1.5289,-1.078,-0.8639,-0.8668,-0.8603,-0.8692,-0.8693,-1.0003,-1.2083,-1.408,-1.0359,-0.8927,-0.887,-0.8888,-0.8927,-0.8916,0.0,0.0,0.0,0.0,0.0,0.0,0.0,0.0,-0.5532,-0.5583,-0.7227,-0.8326,-0.8082,-0.9878,-1.1064,-1.1074,-1.1314,-1.1374,-1.1241,-0.9607,-0.8581,-0.8313,-0.6798,-0.6051,-0.6331,0.0,0.0,0.0,0.0,0.0,0.0,0.0,0.0,0.0,0.0,0.0,0.0,0.0,0.0,0.0,0.0,0.0,-1.6213,0.0,0.0,0.0,0.0,0.0,0.0,0.0,0.0,0.0,0.0,0.0,0.0,0.0,0.0,0.0,0.0,0.0,0.0,0.0,0.0,0.0,0.0,0.0,0.0,0.0,0.0,0.0,0.0,0.0,0.0,0.0,0.0,0.0,0.0,0.0,-1.3194,-1.5959,-1.6334,-1.6249,-1.5725,-1.4943,-1.3382,-1.0865,-0.9432,-0.8762,-0.8853,-1.4036,-1.6945,-1.7025,-1.7021,-1.7014,-1.7004,-1.6959,-1.7023,-1.7001,-1.8303,-1.7823,-1.5725,-1.2089,-0.9493,-0.803,-0.8076,-0.8179,-0.8486,-1.0431,-1.3469,-1.664,-1.3195,-1.0464,-0.8604,-0.8594,-0.8591,-0.8584,0.0,0.0,0.0,0.0,0.0,0.0,0.0,-0.5428,-0.5413,-0.5562,-0.7757,-0.904,-0.8308,-1.0611,-1.2225,-1.2304,-1.2225,-1.2324,-1.2799,-1.0689,-0.9139,-0.8564,-0.6797,-0.5949,0.0,0.0,0.0,0.0,0.0,0.0,0.0,0.0,0.0,0.0,0.0,0.0,0.0,0.0,0.0,0.0,0.0,0.0,-2.0093,0.0,0.0,0.0,0.0,0.0,0.0,0.0,0.0,0.0,0.0,0.0,0.0,0.0,0.0,0.0,0.0,0.0,0.0,0.0,0.0,0.0,0.0,0.0,0.0,0.0,0.0,0.0,0.0,0.0,0.0,0.0,0.0,0.0,-1.1284,-1.2031,-1.3374,-1.6009,-1.7129,-1.7463,-1.6968,-1.7295,-1.5968,-1.2187,-1.0042,-0.8862,-0.8937,-1.3255,-1.5828,-1.5771,-1.5708,-1.579,-1.5751,-1.5738,-1.5817,-1.6009,-2.0799,-1.9961,-1.4313,-1.4115,-1.1607,-0.7246,-0.7253,-0.758,-0.8529,-1.3671,-1.5734,-1.5889,-1.7066,-1.3663,-0.7965,-0.7982,-0.8027,-0.8007,0.0,0.0,0.0,0.0,0.0,0.0,0.0,-0.5428,-0.5442,-0.542,-0.7667,-0.9218,-0.9045,-1.1318,-1.2949,-1.2943,-1.3567,-1.3601,-1.2849,-1.1853,-1.0113,-0.765,0.0,0.0,0.0,0.0,0.0,0.0,0.0,0.0,0.0,0.0,0.0,0.0,0.0,0.0,0.0,0.0,0.0,0.0,0.0,0.0,-2.2206,0.0,0.0,0.0,0.0,0.0,0.0,0.0,0.0,0.0,0.0,0.0,0.0,0.0,0.0,0.0,0.0,0.0,0.0,0.0,0.0,0.0,0.0,0.0,0.0,0.0,0.0,0.0,0.0,0.0,0.0,0.0,0.0,-1.1139,-1.1921,-1.2402,-1.3474,-1.5427,-1.7984,-1.9861,-2.0599,-1.8461,-1.5919,-1.3178,-1.0468,-0.8781,-0.8578,-1.316,-1.5404,-1.4608,-1.4569,-1.4588,-1.4576,-1.5434,-1.6965,-1.9332,-2.068,-2.0402,-1.8673,-1.5553,-1.2942,-1.0856,-0.996,-1.0216,-1.1327,-1.3608,-1.4583,-1.4649,-1.5832,-1.286,-0.8025,-0.8014,-0.7967,-0.7953,0.0,0.0,0.0,0.0,0.0,0.0,0.0,-0.5428,-0.5452,-0.545,-0.7685,-0.9348,-0.9374,-1.1542,-1.2966,-1.2839,-1.3341,-1.3173,-1.2116,-1.1013,0.0,0.0,0.0,0.0,0.0,0.0,0.0,0.0,0.0,0.0,0.0,0.0,0.0,0.0,0.0,0.0,0.0,0.0,0.0,0.0,0.0,0.0,-2.5825,-2.5813,-2.4026,-2.1497,-2.104,-2.0566,-1.9993,-1.8149,0.0,0.0,0.0,0.0,0.0,0.0,0.0,0.0,0.0,0.0,0.0,0.0,0.0,0.0,0.0,0.0,0.0,0.0,0.0,0.0,0.0,0.0,0.0,0.0,-1.1991,-1.2147,-1.2278,-1.2133,-1.2668,-1.456,-1.7763,-2.0108,-2.0632,-1.9956,-1.8028,-1.4658,-1.189,-0.9769,-0.8543,-1.2733,-1.4315,-1.2726,-1.2624,-1.3982,-1.6814,-1.7504,-1.8735,-2.0593,-1.987,-1.9485,-1.9385,-1.6919,-1.535,-1.4641,-1.3977,-1.3141,-1.2346,-1.3068,-1.4748,0.0,0.0,0.0,0.0,0.0,-0.7662,-0.7354,0.0,0.0,0.0,0.0,0.0,0.0,0.0,-0.5335,-0.5393,-0.5545,-0.7637,-0.9103,-0.934,-1.1214,-1.2417,-1.2225,-1.2278,-1.1999,0.0,0.0,0.0,0.0,0.0,0.0,0.0,0.0,0.0,0.0,0.0,0.0,0.0,0.0,0.0,0.0,0.0,0.0,0.0,0.0,0.0,0.0,0.0,0.0,-2.972,-2.9858,-2.7959,-2.5269,-2.5427,-2.4657,-2.3356,-2.2301,0.0,0.0,0.0,0.0,0.0,0.0,0.0,0.0,0.0,0.0,0.0,0.0,0.0,0.0,0.0,0.0,0.0,0.0,0.0,0.0,0.0,0.0,0.0,0.0,-1.3463,-1.3069,-1.2856,-1.1969,-1.2045,-1.3502,-1.6861,-1.8974,-1.8813,-2.1501,-2.1284,-1.6621,-1.4019,-1.1515,-0.8861,0.0,0.0,0.0,0.0,-1.4104,-2.0222,-2.0306,-2.028,-2.0303,-1.8576,-1.7881,-1.817,-1.8175,-1.8207,-1.8197,-1.8177,-1.6202,-1.2945,-1.2935,-1.5889,-1.9898,-1.5701,-1.4128,-1.3628,-0.9423,-0.7244,-0.6504,0.0,0.0,0.0,0.0,0.0,0.0,0.0,-0.5176,-0.523,-0.5386,-0.6643,-0.7818,-0.8659,-0.9865,-1.0879,-1.1534,-1.2351,-1.2571,0.0,0.0,0.0,0.0,0.0,0.0,0.0,0.0,0.0,0.0,0.0,0.0,0.0,0.0,0.0,0.0,0.0,0.0,0.0,0.0,0.0,0.0,0.0,0.0,-3.1212,-3.1212,-3.0632,-2.977,-3.0233,-2.9422,-2.8093,-2.803,-2.6869,-2.5232,-2.3117,0.0,0.0,0.0,0.0,0.0,0.0,0.0,0.0,0.0,0.0,0.0,0.0,0.0,0.0,0.0,0.0,0.0,0.0,0.0,0.0,-1.3672,-1.4034,-1.4731,-1.5113,-1.5006,-1.4298,-1.2867,-1.5332,-1.8155,-2.0537,-2.2781,-2.2522,-1.8449,-1.6301,-1.3592,-1.007,-1.1621,-1.386,-1.651,-1.5179,-1.5776,-1.8481,-1.8492,-1.8469,-1.8495,0.0,0.0,-1.9432,-1.9438,-1.9441,-1.9457,-1.9436,-1.8462,-1.6911,-1.6884,-1.7544,-1.8197,-1.5255,-1.4138,-1.358,-0.8946,-0.7135,-0.7485,0.0,0.0,0.0,0.0,0.0,0.0,0.0,-0.5023,-0.5053,-0.5128,-0.6169,-0.7131,-0.7662,-0.8527,-0.9371,-1.0242,-1.1623,0.0,0.0,0.0,0.0,0.0,0.0,0.0,0.0,0.0,0.0,0.0,0.0,0.0,0.0,0.0,0.0,0.0,0.0,0.0,0.0,0.0,0.0,0.0,0.0,0.0,-3.2105,-3.28,-3.2861,-3.2634,-3.3595,-3.283,-3.1381,-3.1035,-2.9971,-2.8264,-2.5668,-2.4135,-2.2869,0.0,0.0,0.0,0.0,0.0,0.0,0.0,0.0,0.0,0.0,0.0,0.0,0.0,0.0,-1.4241,0.0,0.0,-1.6255,-1.403,-1.4606,-1.528,-1.4953,-1.4991,-1.4164,-1.1971,-1.5113,-1.8192,-2.0236,-2.2471,-2.2758,-2.0504,-1.8984,-1.6418,-1.2348,-1.2262,-1.4301,-1.8733,-1.9105,-1.9681,-2.0523,-1.9448,-1.8873,-1.8866,-1.8029,-1.8921,-2.1465,-2.1455,-2.0831,-1.9865,-2.0937,-2.1108,-2.0563,-2.0532,-2.0521,-2.0447,-1.9142,-1.6363,-1.3015,-1.1266,-1.0637,-1.0904,0.0,0.0,0.0,0.0,0.0,0.0,0.0,0.0,-0.4894,-0.4952,-0.5771,-0.6463,-0.6785,-0.7322,-0.8094,-0.9168,0.0,0.0,0.0,0.0,0.0,0.0,0.0,0.0,0.0,0.0,0.0,0.0,0.0,0.0,0.0,0.0,0.0,0.0,0.0,0.0,0.0,0.0,0.0,0.0,0.0,0.0,-3.2853,-3.4032,-3.4438,-3.4519,-3.5794,-3.5266,-3.3887,-3.2965,-3.2072,-3.0976,-2.8356,-2.7338,-2.6576,-2.3819,-2.0744,0.0,0.0,0.0,0.0,0.0,0.0,0.0,0.0,0.0,-1.3497,-1.3461,-1.4434,-1.5268,-1.5183,-1.6708,-1.759,-1.6118,-1.6617,-1.671,-1.5057,-1.4843,-1.4266,-1.265,-1.6167,-1.8946,-1.9659,-2.1441,-2.2548,-2.2503,-2.1635,-1.9418,-1.5553,-1.4355,-1.5841,-2.0394,-2.2283,-2.3453,-2.3947,-2.2185,-2.1317,-2.1335,-2.1319,-2.2258,-2.3975,-2.3951,-2.2986,-2.1396,-2.2588,-2.3077,-2.3103,-2.3121,-2.3131,-2.3091,-2.3079,-1.9536,-1.4402,-1.4736,-1.437,-1.3726,0.0,0.0,0.0,0.0,0.0,0.0,0.0,0.0,0.0,-0.5074,-0.5071,-0.5424,-0.6337,-0.6432,-0.7118,0.0,0.0,0.0,0.0,0.0,0.0,0.0,0.0,0.0,0.0,0.0,0.0,0.0,0.0,0.0,0.0,0.0,0.0,0.0,0.0,0.0,0.0,0.0,0.0,0.0,0.0,0.0,-3.3455,-3.4191,-3.4868,-3.5528,-3.6311,-3.6328,-3.5755,-3.4773,-3.3031,-3.1524,-3.2145,-3.2272,-3.1393,-2.6701,0.0,-2.1322,-2.1136,-1.7541,0.0,-1.3939,-1.3539,-1.3464,0.0,0.0,-1.4969,-1.5396,-1.7712,-1.9521,-1.8966,-1.9153,-1.9925,-2.1808,-2.2192,-2.1189,-1.8043,-1.7524,-1.7488,-1.727,-1.9093,-2.0337,-2.0505,-2.0682,-2.1886,-2.426,-2.3464,-2.1946,-1.9987,-1.9306,-2.0237,-2.3097,-2.3393,-2.4688,-2.7078,-2.6826,-2.6718,-2.6747,-2.6762,-2.6872,-2.7098,-2.7115,-2.6977,-2.658,-2.416,-2.3109,-2.3093,-2.3115,-2.3109,-2.3081,-2.3075,-2.2616,-2.1532,-1.8664,-1.5414,-1.2478,0.0,0.0,0.0,0.0,0.0,0.0,0.0,0.0,0.0,0.0,-0.4823,-0.4959,-0.5478,-0.6371,0.0,0.0,0.0,0.0,0.0,0.0,0.0,0.0,0.0,0.0,0.0,0.0,0.0,0.0,0.0,0.0,0.0,0.0,0.0,0.0,0.0,0.0,0.0,0.0,0.0,0.0,0.0,0.0,-3.3589,-3.4318,-3.4787,-3.5043,-3.4981,-3.4578,0.0,0.0,-3.2622,-3.2429,-3.1461,-3.2071,-3.271,-3.0596,-2.724,0.0,-2.041,0.0,0.0,0.0,-1.3915,-1.479,-1.4963,-1.5219,-1.5518,-1.5784,-1.9052,-2.1887,-2.1642,-2.0795,-2.1241,0.0,-2.3944,-2.2616,-2.1194,-2.0992,-2.096,-2.0953,-2.1592,-2.1648,-2.0728,-2.27,-2.4518,-2.5698,-2.4149,-2.2787,-2.2088,-2.2029,-2.2525,-2.3554,-2.3594,-2.4126,-2.5277,-2.6808,-2.7597,-2.7643,-2.9014,-2.8117,-2.5336,-2.6886,-2.7622,-2.752,-2.6244,-2.573,-2.573,-2.5729,-2.5695,-2.5544,-2.3785,-2.3078,-2.2948,-2.1485,-1.8705,-1.5641,0.0,0.0,0.0,0.0,0.0,0.0,0.0,0.0,0.0,0.0,-0.4718,-0.4748,-0.4901,0.0,0.0,0.0,0.0,0.0,0.0,0.0,0.0,0.0,0.0,0.0,0.0,0.0,0.0,0.0,0.0,0.0,0.0,0.0,0.0,0.0,0.0,0.0,0.0,0.0,0.0,0.0,0.0,0.0,-3.383,-3.4393,-3.4454,-3.4073,-3.3571,-3.2504,0.0,0.0,-3.0205,-3.0457,-2.9249,-3.0013,-3.1063,-2.9817,-2.6674,-2.2637,-1.8461,0.0,0.0,-1.3224,-1.4553,-1.5673,-1.5286,-1.661,-1.7793,-1.777,-2.1597,-2.4988,-2.496,-2.348,-2.3198,-2.6042,-2.5259,-2.4316,-2.4339,-2.4359,-2.3828,-2.238,-2.1888,-2.1027,-1.9318,-2.1733,-2.402,-2.5435,-2.4037,-2.2859,-2.2234,-2.311,-2.3612,-2.3584,-2.358,-2.3885,-2.446,-2.7198,-2.8613,-2.863,-3.0348,-2.9275,-2.5719,-2.7046,-2.7605,-2.7609,-2.7608,-2.7617,-2.7578,-2.7602,-2.7512,-2.7041,-2.4229,-2.3069,-2.3083,-2.3065,-2.1506,-1.9253,0.0,0.0,0.0,0.0,0.0,0.0,0.0,0.0,0.0,0.0,0.0,0.0,0.0,0.0,0.0,0.0,0.0,0.0,0.0,0.0,0.0,0.0,0.0,0.0,0.0,0.0,0.0,0.0,0.0,0.0,0.0,0.0,0.0,0.0,0.0,0.0,0.0,0.0,0.0,0.0,0.0,0.0,-3.4442,-3.4505,-3.3771,-3.2664,-3.2713,0.0,0.0,0.0,-2.512,-2.3768,-2.5915,-2.6674,0.0,-2.1453,-1.9281,0.0,0.0,0.0,-1.2888,-1.5111,-1.5711,-1.5813,-1.5812,-1.9488,-2.2849,-2.2924,-2.6435,-2.9622,-2.9564,-2.78,-2.6345,-2.6465,-2.7023,-2.746,-2.744,-2.7484,-2.5608,-2.0475,-1.8892,-1.7492,0.0,-1.5649,-1.78,-2.2847,-2.3142,-2.2154,-2.0014,-2.2237,-2.3607,-2.3596,-2.3603,-2.4579,-2.657,-2.9587,-3.1074,-3.1099,-3.1181,-3.1102,-3.0875,-2.8611,-2.761,-2.759,-2.7604,-2.7604,-2.7604,-2.7619,-2.7171,-2.6323,-2.399,-2.3122,-2.3083,-2.3094,-2.3021,-2.2486,0.0,0.0,0.0,0.0,0.0,0.0,0.0,0.0,0.0,0.0,0.0,0.0,0.0,0.0,0.0,0.0,0.0,0.0,0.0,0.0,0.0,0.0,0.0,0.0,0.0,0.0,0.0,0.0,0.0,0.0,0.0,0.0,0.0,0.0,0.0,0.0,0.0,0.0,0.0,0.0,0.0,0.0,-3.3104,-3.2184,-3.1154,-3.0029,0.0,0.0,0.0,0.0,0.0,0.0,-2.3735,0.0,-2.2067,-2.2007,-1.9273,-1.641,-1.6976,0.0,-1.8902,-1.6403,-1.5212,-1.5405,-1.8355,-2.0296,-2.2567,-2.667,-2.8774,-2.8524,-2.4413,-2.5247,-2.6013,-2.4478,-2.6159,-2.7581,-2.7599,-2.6079,-2.3371,-1.9122,-1.6036,0.0,0.0,0.0,0.0,-1.7962,-1.9796,-2.0612,-1.9838,-2.2199,-2.3598,-2.3581,-2.3579,-2.4589,-2.6675,-2.9671,-3.121,-3.1168,-2.9578,-2.8791,-2.8779,-2.7944,-2.7625,-2.7625,-2.7625,-2.7625,-2.759,-2.758,-2.6866,-2.5659,-2.4646,-2.3768,-2.3106,-2.3115,-2.308,-2.2764,0.0,0.0,0.0,0.0,0.0,0.0,0.0,0.0,0.0,0.0,0.0,0.0,0.0,0.0,0.0,0.0,0.0,0.0,0.0,0.0,0.0,0.0,0.0,0.0,0.0,0.0,0.0,0.0,0.0,0.0,0.0,0.0,0.0,0.0,0.0,0.0,0.0,0.0,0.0,0.0,0.0,0.0,-3.0999,-2.9794,-2.8743,0.0,0.0,0.0,0.0,0.0,0.0,0.0,0.0,-2.0933,-2.0084,-2.1492,-2.0159,-1.8744,-2.1479,-2.2226,-2.1439,-1.8263,-1.7445,-1.8609,-2.3421,-2.4472,-2.5302,-2.8075,-2.8625,-2.6936,-2.1352,-2.2379,-2.3617,-2.2179,-2.5122,-2.7263,-2.6306,-2.4675,-2.1525,-1.5999,-1.2431,-1.1108,0.0,0.0,0.0,-1.5457,-1.7177,-1.8696,-1.9725,-2.2207,-2.3608,-2.3614,-2.3614,-2.5107,-2.8296,-2.9156,-3.0146,-3.119,-2.8759,-2.7581,-2.7595,-2.7605,-2.7056,-2.6189,-2.6708,-2.7175,-2.7603,-2.7244,-2.6472,-2.5451,-2.5116,-2.4379,-2.3427,-2.3153,-2.3078,-2.2871,0.0,0.0,0.0,0.0,0.0,0.0,0.0,0.0,0.0,0.0,0.0,0.0,0.0,0.0,0.0,0.0,0.0,0.0,0.0,0.0,0.0,0.0,0.0,0.0,0.0,0.0,0.0,0.0,0.0,0.0,0.0,0.0,0.0,0.0,0.0,0.0,0.0,0.0,0.0,0.0,0.0,0.0,-2.813,-2.7464,0.0,0.0,0.0,0.0,0.0,0.0,0.0,0.0,0.0,-1.9768,-1.9732,-1.9746,-2.1451,-2.4229,-2.849,-2.5338,-2.0845,-2.0793,-2.2073,-2.473,-3.0263,-3.1453,-3.0559,-2.7248,-2.6503,-2.5145,0.0,0.0,-1.9629,-1.9668,-2.3934,-2.6351,-2.3955,-2.3607,-2.044,0.0,0.0,0.0,0.0,0.0,0.0,-1.5167,0.0,-1.6697,-1.9481,-2.2021,-2.3462,-2.3611,-2.3601,-2.5925,-3.0767,-2.807,-2.8122,-3.0849,-2.8522,-2.7457,-2.7535,-2.747,-2.6071,-2.3725,-2.5014,-2.6318,-2.744,-2.6606,-2.6002,-2.5636,-2.5396,-2.4784,-2.3891,-2.3339,-2.3078,-2.2932,0.0,0.0,0.0,0.0,0.0,0.0,0.0,0.0,0.0,0.0,0.0,0.0,0.0,0.0,0.0,0.0,0.0,0.0,0.0,0.0,0.0,0.0,0.0,0.0,0.0,0.0,0.0,0.0,0.0,0.0,0.0,0.0,0.0,0.0,0.0,0.0,0.0,0.0,0.0,0.0,0.0,0.0,-2.4487,0.0,0.0,0.0,0.0,0.0,0.0,0.0,0.0,0.0,0.0,-1.921,-1.8659,-1.955,-2.2557,-2.5881,-2.7025,-2.6219,-2.4566,-2.2895,-2.4445,-2.729,-3.0543,-3.1287,-3.0499,-2.7866,-2.685,-2.5621,0.0,0.0,0.0,-1.8272,-2.0329,0.0,-2.3447,-2.3366,0.0,0.0,0.0,-1.1436,-1.262,-1.2045,0.0,0.0,-1.5434,-1.6479,-1.7312,-1.9536,-2.1634,-2.3536,-2.358,-2.423,-2.551,-2.6286,-2.6727,-2.67,-2.5315,-2.5304,-2.66,-2.5971,-2.5272,-2.4687,-2.5261,-2.5712,-2.6009,-2.5759,-2.5246,-2.4669,-2.4607,-2.4093,-2.3339,-2.3188,-2.3078,-2.2944,0.0,0.0,0.0,0.0,0.0,0.0,0.0,0.0,0.0,0.0,0.0,0.0,0.0,0.0,0.0,0.0,0.0,0.0,0.0,0.0,0.0,0.0,0.0,0.0,0.0,0.0,0.0,0.0,0.0,0.0,0.0,0.0,0.0,0.0,0.0,0.0,0.0,0.0,0.0,0.0,0.0,0.0,0.0,0.0,0.0,0.0,0.0,0.0,0.0,0.0,0.0,-1.8773,-1.892,-1.8878,-1.8825,-1.8952,0.0,-2.5211,-2.6257,-2.5764,-2.5038,-2.5082,-2.7164,-2.9505,-3.0877,-3.0373,-2.8869,-2.6175,-2.3502,0.0,0.0,0.0,0.0,0.0,0.0,0.0,-2.3176,-2.2395,-2.0949,0.0,-1.4533,0.0,-1.1579,-1.1369,-1.1767,0.0,-1.4878,-1.6534,-1.7873,-1.9145,-2.0955,-2.3543,-2.36,-2.3576,-2.3611,-2.5672,-2.5951,-2.4508,-2.39,-2.4328,-2.5721,-2.5203,-2.4616,-2.4034,0.0,-2.474,-2.4253,-2.4785,-2.4706,-2.4292,-2.4292,-2.3826,-2.3078,-2.3078,-2.3078,-2.3005,0.0,0.0,0.0,0.0,0.0,0.0,0.0,0.0,0.0,0.0,0.0,0.0,0.0,0.0,0.0,0.0,0.0,0.0,0.0,0.0,0.0,0.0,0.0,0.0,0.0,0.0,0.0,0.0,0.0,0.0,0.0,0.0,0.0,0.0,0.0,0.0,0.0,0.0,0.0,0.0,0.0,0.0,0.0,0.0,0.0,0.0,0.0,0.0,0.0,0.0,-1.8954,-1.8716,-1.8193,-1.8914,-1.9833,-1.9616,-2.149,-2.399,-2.5983,-2.4862,-2.3837,-2.683,-2.8915,-3.0114,-2.9777,-2.7965,-2.5543,-2.2531,0.0,0.0,-1.5415,0.0,-1.5632,-1.7396,0.0,-2.2392,-2.2828,-2.123,-1.992,-1.9561,-1.4585,-1.1076,-1.0881,-1.0962,-1.1391,-1.2166,-1.3865,-1.6197,-1.9066,-1.9611,-2.0984,-2.3497,-2.3606,-2.3584,-2.3611,-2.537,-2.5377,-2.3616,-2.3618,-2.3999,-2.4707,-2.4707,-2.3958,-2.2744,-2.3772,0.0,-2.2779,-2.3796,-2.4184,-2.4118,-2.4118,-2.3708,-2.3078,-2.3078,-2.3005,-2.2823,0.0,0.0,0.0,0.0,0.0,0.0,0.0,0.0,0.0,0.0,-0.544,-0.5428,0.0,0.0,0.0,0.0,0.0,0.0,0.0,0.0,0.0,0.0,0.0,0.0,0.0,0.0,0.0,0.0,0.0,0.0,0.0,0.0,0.0,0.0,0.0,0.0,0.0,0.0,0.0,0.0,0.0,0.0,0.0,0.0,0.0,0.0,0.0,0.0,0.0,0.0,-1.934,-1.8128,-1.8053,-1.9126,-2.1417,-2.6335,-2.6892,-2.5983,-2.6419,-2.4872,-2.3844,-2.6846,-2.6236,-2.4384,-2.2288,-2.0813,0.0,0.0,0.0,-1.5409,-1.5371,-1.4333,0.0,-1.5566,0.0,0.0,0.0,0.0,-2.0409,0.0,0.0,0.0,0.0,0.0,0.0,0.0,0.0,-1.3494,-1.6032,-1.849,-2.0983,-2.3533,-2.358,-2.3584,-2.3611,-2.3971,-2.396,-2.3605,-2.3601,-2.3422,-2.312,-2.312,-2.2908,-2.2623,-2.2731,0.0,-2.3186,-2.327,-2.3323,-2.3305,-2.3305,-2.3185,-2.3078,-2.3078,-2.2702,-2.2002,0.0,0.0,0.0,0.0,0.0,0.0,0.0,-0.5428,-0.5416,-0.5569,-0.5528,-0.5481,-0.5481,-0.5481,0.0,0.0,0.0,0.0,0.0,0.0,0.0,0.0,0.0,0.0,0.0,0.0,0.0,0.0,0.0,0.0,0.0,0.0,0.0,0.0,0.0,0.0,0.0,0.0,0.0,0.0,0.0,0.0,0.0,0.0,0.0,0.0,0.0,0.0,0.0,0.0,-1.9899,-2.0676,-2.0643,-2.2804,-2.5744,-2.7555,-2.7339,-2.6259,-2.5045,-2.5079,-2.5785,-2.724,-2.5595,-2.2987,-2.0523,0.0,0.0,0.0,0.0,-1.5235,-1.4802,-1.3544,0.0,0.0,0.0,0.0,0.0,0.0,0.0,0.0,0.0,0.0,0.0,0.0,0.0,0.0,0.0,-1.2763,-1.4914,-1.809,-2.0364,-2.1567,-2.2916,-2.3585,-2.3595,-2.3595,-2.3591,-2.3595,-2.3606,-2.3275,-2.2694,-2.2694,-2.2465,-2.2089,-2.2326,0.0,-2.2416,-2.2905,-2.2962,-2.2736,-2.2965,-2.3078,-2.3042,-2.2874,-2.2522,-2.2004,0.0,0.0,0.0,0.0,0.0,0.0,0.0,-0.541,-0.5477,-0.5661,-0.5684,-0.5684,-0.5684,-0.5654,-0.5586,0.0,0.0,0.0,0.0,0.0,0.0,0.0,0.0,0.0,0.0,0.0,0.0,0.0,0.0,0.0,0.0,0.0,0.0,0.0,0.0,0.0,0.0,0.0,0.0,0.0,0.0,0.0,0.0,0.0,0.0,0.0,0.0,0.0,0.0,0.0,-1.978,-2.1932,-2.1551,-2.4359,-2.7582,-2.6208,-2.5774,-2.5547,-2.4408,-2.5807,-2.771,-2.8263,-2.6111,-2.3327,-2.1105,-1.864,0.0,0.0,0.0,-1.4816,-1.4204,0.0,0.0,0.0,0.0,0.0,0.0,0.0,0.0,0.0,0.0,0.0,0.0,0.0,0.0,0.0,0.0,0.0,-1.4879,-1.7669,-1.9384,-1.9787,-2.1732,-2.3025,-2.3596,-2.3437,-2.3333,-2.3333,-2.3406,-2.3009,-2.2282,-2.2409,-2.213,-2.1629,-2.2148,0.0,0.0,-2.2736,-2.2811,-2.2385,-2.3062,-2.3192,-2.2924,-2.2743,-2.2402,-2.1852,0.0,0.0,0.0,0.0,0.0,0.0,0.0,-0.5569,-0.5671,-0.5952,-0.5989,-0.5989,-0.5989,-0.5864,-0.5776,0.0,0.0,0.0,0.0,0.0,0.0,0.0,0.0,0.0,0.0,0.0,0.0,0.0,0.0,0.0,0.0,0.0,0.0,0.0,0.0,0.0,0.0,0.0,0.0,0.0,0.0,0.0,0.0,0.0,0.0,0.0,0.0,0.0,0.0,0.0,0.0,-1.8184,-1.6607,-1.8587,-2.1707,-2.3001,0.0,0.0,-2.6507,-2.741,-2.8129,-3.0321,-2.7829,-2.4442,-2.2688,0.0,0.0,0.0,-1.4695,-1.3763,-1.4072,0.0,0.0,0.0,0.0,0.0,0.0,0.0,0.0,0.0,0.0,0.0,0.0,0.0,0.0,0.0,0.0,0.0,-1.5664,-1.6693,-1.8024,-1.9736,-2.0051,-2.1233,-2.3596,-2.2857,-2.2505,-2.2505,-2.2696,-2.2128,-2.1006,-2.1488,-2.1642,-2.1542,-2.211,0.0,0.0,-2.2887,-2.2811,-2.2422,-2.3502,-2.3378,-2.2626,-2.3084,-2.2185,-2.0677,0.0,0.0,0.0,0.0,0.0,0.0,-0.5454,-0.5464,-0.5638,-0.594,-0.5978,-0.6081,-0.6268,-0.6166,-0.6003,-0.5817,0.0,0.0,0.0,0.0,0.0,0.0,0.0,0.0,0.0,0.0,0.0,0.0,0.0,0.0,0.0,0.0,0.0,0.0,0.0,0.0,0.0,0.0,0.0,0.0,0.0,0.0,0.0,0.0,0.0,0.0,0.0,0.0,0.0,0.0,0.0,0.0,-1.2753,-1.4765,0.0,0.0,-2.1513,-2.3728,-2.6764,-2.8767,-2.9796,-2.9221,-2.737,-2.515,-2.2778,0.0,0.0,-1.5715,-1.4359,-1.3477,-1.3389,0.0,0.0,0.0,0.0,0.0,0.0,0.0,0.0,0.0,0.0,0.0,0.0,0.0,0.0,0.0,0.0,0.0,-1.4757,-1.5521,-1.6699,-1.8401,-1.9327,-2.0492,-2.1883,-2.1722,-2.1732,-2.1997,-2.2072,-2.1629,-2.0809,-2.1046,-2.0962,-2.0722,-2.0928,0.0,0.0,-2.2019,-2.2184,-2.1875,-2.2482,-2.263,-2.2427,-2.1868,-2.1398,-2.0834,0.0,0.0,0.0,0.0,0.0,-0.5452,-0.5507,-0.4965,-0.478,-0.5403,-0.5812,-0.619,-0.651,-0.6346,-0.619,-0.6013,-0.5827,0.0,0.0,0.0,0.0,0.0,0.0,0.0,0.0,0.0,0.0,0.0,0.0,0.0,0.0,0.0,0.0,0.0,0.0,0.0,0.0,0.0,0.0,0.0,0.0,0.0,0.0,0.0,0.0,0.0,0.0,0.0,0.0,0.0,0.0,0.0,0.0,0.0,0.0,0.0,-1.9475,-2.2578,-2.5493,-2.7818,-2.9055,-2.7491,-2.6474,-2.5272,0.0,0.0,0.0,-1.528,-1.3955,-1.3242,-1.2929,0.0,0.0,0.0,0.0,0.0,0.0,0.0,0.0,0.0,0.0,0.0,0.0,0.0,0.0,0.0,0.0,0.0,-1.393,-1.4651,-1.5796,-1.7544,-1.8797,-1.9914,-2.0795,-2.093,-2.1145,-2.1424,-2.1424,-2.1019,-2.0276,-2.0386,-2.0279,-1.9956,-2.0088,0.0,0.0,-2.1374,-2.1656,-2.142,-2.1945,-2.2221,-2.2189,-2.1188,-2.0949,-2.0876,0.0,0.0,0.0,0.0,0.0,0.0,-0.5652,-0.398,-0.3054,-0.4108,-0.5432,-0.6311,-0.652,-0.6346,-0.6315,-0.6454,-0.6196,0.0,0.0,0.0,0.0,0.0,0.0,0.0,0.0,0.0,0.0,0.0,0.0,0.0,0.0,0.0,0.0,0.0,0.0,0.0,0.0,0.0,0.0,0.0,0.0,0.0,0.0,0.0,0.0,0.0,0.0,0.0,0.0,0.0,0.0,0.0,0.0,0.0,0.0,0.0,-1.7269,-1.9923,-2.247,-2.3891,-2.4861,-2.5629,-2.5322,-2.4611,0.0,0.0,0.0,-1.543,-1.3752,-1.292,-1.2889,-1.2874,-1.2413,0.0,0.0,0.0,0.0,0.0,0.0,0.0,0.0,0.0,0.0,0.0,0.0,0.0,0.0,0.0,-1.3691,-1.4287,-1.5553,-1.7544,-1.8328,-1.9386,-2.0795,-2.0795,-2.0795,-2.0795,-2.0795,-2.0174,-1.9021,-1.9437,-1.9523,-1.9403,0.0,0.0,0.0,-2.1269,-2.1556,-2.1104,-2.2234,-2.2356,-2.1896,-2.1538,-2.1063,-2.0575,0.0,0.0,0.0,0.0,0.0,0.0,0.0,-0.4922,-0.4309,-0.3576,-0.5091,-0.6368,-0.6513,-0.6346,-0.6318,-0.6461,-0.62,0.0,0.0,0.0,0.0,0.0,0.0,0.0,0.0,0.0,0.0,0.0,0.0,0.0,0.0,0.0,0.0,0.0,0.0,0.0,0.0,0.0,0.0,0.0,0.0,0.0,0.0,0.0,0.0,0.0,0.0,0.0,0.0,0.0,0.0,0.0,0.0,0.0,0.0,0.0,0.0,0.0,-1.9771,-2.2027,-2.3461,-2.2991,-2.4685,-2.6002,-2.409,0.0,0.0,0.0,0.0,-1.2871,-1.2908,-1.2104,-1.131,-1.0871,0.0,0.0,0.0,0.0,0.0,0.0,0.0,0.0,0.0,0.0,0.0,0.0,0.0,0.0,-1.4342,-1.4523,-1.5321,-1.6789,-1.7578,-1.8382,-1.9347,-1.9876,-2.0105,-2.0105,-2.0105,-1.951,-1.8408,-1.8773,-1.8421,0.0,0.0,0.0,0.0,-1.9312,-1.9861,-2.0143,-2.03,-2.066,-2.0896,-2.0205,-2.0232,-2.0547,0.0,0.0,0.0,0.0,0.0,0.0,0.0,-0.4252,-0.3008,-0.2061,-0.4491,-0.63,-0.6431,-0.6315,-0.6397,-0.6541,-0.6254,0.0,0.0,0.0,0.0,0.0,0.0,0.0,0.0,0.0,0.0,0.0,0.0,0.0,0.0,0.0,0.0,0.0,0.0,0.0,0.0,0.0,0.0,0.0,0.0,0.0,-1.3373,0.0,0.0,0.0,0.0,0.0,0.0,0.0,0.0,0.0,0.0,0.0,0.0,0.0,-1.3184,-1.4228,0.0,-1.9738,-2.1638,-2.1536,-2.3622,0.0,0.0,0.0,0.0,0.0,0.0,0.0,-1.2918,-1.1336,-1.0044,-1.003,-0.9715,0.0,0.0,0.0,0.0,0.0,0.0,0.0,0.0,0.0,0.0,0.0,0.0,0.0,-1.5735,-1.521,-1.5275,-1.6073,-1.681,-1.7688,-1.8715,-1.915,-1.9527,-1.9798,-1.9798,-1.9191,-1.8017,-1.8213,-1.7633,0.0,0.0,0.0,0.0,-1.8176,-1.8859,-1.9499,-1.9178,-1.9603,-2.0222,-1.9571,-1.9727,-2.0342,0.0,0.0,0.0,0.0,0.0,0.0,0.0,-0.2155,0.0,0.0,-0.365,-0.6257,-0.6294,-0.6331,-0.6393,-0.6527,0.0,0.0,0.0,0.0,0.0,0.0,0.0,0.0,0.0,0.0,0.0,0.0,-1.2289,-1.2836,-1.3851,0.0,0.0,0.0,0.0,0.0,0.0,0.0,0.0,0.0,0.0,-1.2337,0.0,0.0,0.0,0.0,0.0,0.0,0.0,0.0,0.0,0.0,0.0,0.0,0.0,0.0,0.0,0.0,0.0,-1.699,-1.9362,-2.0712,-2.1844,0.0,0.0,0.0,0.0,0.0,0.0,0.0,-1.3053,-1.0897,-0.9037,-0.8829,-0.9764,0.0,0.0,0.0,0.0,0.0,0.0,0.0,0.0,0.0,0.0,0.0,0.0,0.0,-1.7376,-1.6119,-1.5371,-1.54,-1.6036,-1.709,-1.8555,-1.8661,-1.902,-1.9697,-1.9722,-1.9064,-1.7792,-1.7603,-1.7069,0.0,0.0,0.0,0.0,-1.7749,-1.8406,-1.9135,-1.8762,-1.9062,-1.9758,-1.9399,-1.9551,-1.998,0.0,0.0,0.0,0.0,0.0,0.0,0.0,0.0,0.0,0.0,-0.3289,-0.5762,-0.6225,-0.627,-0.6352,0.0,0.0,0.0,0.0,0.0,0.0,0.0,0.0,0.0,0.0,0.0,0.0,-1.2306,-1.2317,-1.2434,-1.264,-0.8886,0.0,0.0,0.0,0.0,0.0,0.0,0.0,0.0,-1.2634,-1.2302,0.0,0.0,0.0,0.0,-1.2325,-1.2158,0.0,0.0,0.0,0.0,0.0,0.0,0.0,0.0,-1.1546,-1.0752,-1.1512,0.0,-1.6399,-1.6753,-1.7002,-1.7225,0.0,0.0,0.0,0.0,0.0,0.0,-1.458,-1.3262,-1.1236,-0.9161,0.0,0.0,0.0,0.0,0.0,0.0,0.0,0.0,0.0,0.0,0.0,0.0,0.0,-1.5571,-1.5878,-1.5605,-1.5412,-1.54,-1.5584,-1.6083,-1.7034,-1.8124,-1.8565,-1.8338,-1.8734,-1.8135,-1.6582,-1.671,-1.6182,0.0,0.0,0.0,-1.6875,-1.6957,-1.7551,-1.8327,-1.815,-1.8438,-1.8963,-1.9193,-1.9551,-1.998,0.0,0.0,0.0,0.0,0.0,0.0,0.0,0.0,0.0,0.0,0.0,0.0,0.0,0.0,0.0,0.0,0.0,0.0,0.0,0.0,0.0,0.0,0.0,0.0,0.0,0.0,0.0,0.0,0.0,-1.2337,0.0,0.0,0.0,0.0,0.0,0.0,0.0,0.0,0.0,0.0,-1.283,0.0,0.0,0.0,0.0,0.0,-1.231,-1.224,0.0,-1.1948,-1.1722,-1.1567,0.0,0.0,0.0,0.0,-1.1113,-1.0604,-1.06,-1.1897,-1.357,-1.5021,-1.5381,-1.5382,0.0,0.0,0.0,0.0,0.0,0.0,0.0,0.0,0.0,0.0,0.0,0.0,0.0,0.0,0.0,0.0,0.0,0.0,0.0,0.0,0.0,0.0,0.0,-1.4681,-1.465,-1.511,-1.5418,-1.541,-1.541,-1.5748,-1.6482,-1.7302,-1.7603,-1.7479,-1.7989,-1.7444,-1.6068,-1.6005,-1.5407,0.0,0.0,0.0,-1.6173,-1.6379,-1.7051,-1.7988,-1.7803,-1.7978,-1.8398,-1.8828,-1.9258,-1.9687,0.0,0.0,0.0,0.0,0.0,0.0,0.0,0.0,0.0,0.0,0.0,0.0,0.0,0.0,0.0,0.0,0.0,0.0,0.0,0.0,0.0,0.0,0.0,0.0,0.0,0.0,0.0,0.0,0.0,0.0,0.0,0.0,0.0,0.0,0.0,0.0,0.0,0.0,0.0,0.0,-1.2913,0.0,0.0,0.0,0.0,0.0,0.0,0.0,0.0,-1.1545,-1.1336,-1.1256,-1.13,0.0,0.0,0.0,0.0,0.0,-1.0624,-1.0571,-1.1219,-1.4018,-1.5261,-1.5723,0.0,0.0,0.0,0.0,0.0,0.0,0.0,0.0,0.0,0.0,0.0,0.0,0.0,0.0,0.0,0.0,0.0,0.0,0.0,0.0,0.0,0.0,0.0,-1.3468,-1.3844,-1.4728,-1.5284,-1.541,-1.541,-1.569,-1.6322,-1.6436,-1.6586,-1.6822,-1.7235,-1.6885,-1.5846,-1.5355,-1.4808,-1.4213,0.0,0.0,-1.556,-1.599,-1.6894,-1.7978,-1.7617,-1.7695,-1.8066,-1.8555,-1.8965,-1.9355,0.0,0.0,0.0,0.0,0.0,0.0,0.0,0.0,0.0,0.0,0.0,0.0,0.0,0.0,0.0,0.0,0.0,0.0,0.0,0.0,0.0,0.0,0.0,0.0,0.0,0.0,0.0,0.0,0.0,0.0,-1.2321,-1.1677,-0.9853,0.0,0.0,0.0,0.0,0.0,0.0,-1.3046,-1.2575,0.0,0.0,0.0,0.0,0.0,0.0,0.0,0.0,-1.1457,-1.1111,-1.0752,-1.0712,0.0,0.0,0.0,0.0,0.0,-1.0624,-1.058,-1.0712,-1.1182,-1.4497,-1.7236,0.0,0.0,0.0,0.0,0.0,0.0,0.0,0.0,0.0,0.0,0.0,0.0,0.0,0.0,0.0,0.0,0.0,0.0,0.0,0.0,0.0,0.0,0.0,-1.1905,-1.4016,-1.4264,-1.4688,-1.5352,-1.541,-1.5468,-1.5584,-1.6208,-1.6318,-1.5921,-1.643,-1.6353,-1.5704,-1.4773,-1.4323,-1.4213,0.0,-1.4716,-1.5579,-1.6316,-1.7178,-1.8008,-1.7939,-1.7959,-1.8105,-1.8896,-1.9228,-1.9165,0.0,0.0,0.0,0.0,0.0,0.0,0.0,0.0,0.0,0.0,0.0,0.0,0.0,0.0,0.0,0.0,0.0,0.0,0.0,0.0,0.0,0.0,0.0,0.0,0.0,0.0,0.0,0.0,0.0,-1.0534,-1.3267,-1.3287,-1.2382,-1.0768,0.0,0.0,0.0,0.0,-1.2454,-1.2719,0.0,0.0,0.0,0.0,0.0,0.0,0.0,0.0,0.0,0.0,-1.0809,-1.0428,-0.9482,0.0,0.0,0.0,0.0,0.0,-1.0575,-1.0584,-1.0848,-1.1796,-1.3447,0.0,0.0,0.0,0.0,0.0,0.0,0.0,0.0,0.0,0.0,0.0,0.0,0.0,0.0,0.0,0.0,0.0,0.0,0.0,0.0,0.0,0.0,0.0,0.0,0.0,-1.2158,-1.3045,-1.3726,-1.4085,-1.4085,-1.4085,-1.4085,-1.4855,-1.5233,-1.522,-1.5652,-1.5452,-1.4532,-1.3847,-1.3545,-1.3563,0.0,-1.4479,-1.5597,-1.6641,-1.7451,-1.8008,-1.8008,-1.8144,-1.8447,-1.9307,-1.9247,-1.8665,0.0,0.0,0.0,0.0,0.0,0.0,0.0,0.0,0.0,0.0,0.0,0.0,0.0,0.0,0.0,0.0,0.0,0.0,0.0,0.0,0.0,0.0,0.0,0.0,0.0,0.0,0.0,-0.6283,-0.6335,-0.9006,-1.4102,-1.4113,-1.342,0.0,0.0,0.0,0.0,-1.0153,-1.1707,-1.2244,0.0,0.0,0.0,0.0,0.0,0.0,0.0,0.0,0.0,0.0,0.0,0.0,0.0,0.0,0.0,-0.9005,-0.9988,-1.0611,-1.0608,-1.0283,-1.0425,0.0,0.0,0.0,0.0,0.0,0.0,0.0,0.0,0.0,0.0,0.0,0.0,0.0,0.0,0.0,0.0,0.0,0.0,0.0,0.0,0.0,0.0,0.0,0.0,0.0,0.0,0.0,-1.0481,-1.1742,-1.2565,-1.3009,-1.3009,-1.3009,-1.3009,-1.3606,-1.406,-1.4412,-1.4897,-1.4576,-1.3556,-1.2978,-1.2792,-1.2962,-1.3391,-1.4234,-1.5417,-1.6825,-1.7627,-1.8018,-1.8115,-1.8477,-1.9014,-1.9668,-1.9278,-1.8362,0.0,0.0,0.0,0.0,0.0,0.0,0.0,0.0,0.0,0.0,0.0,0.0,0.0,0.0,0.0,0.0,0.0,0.0,0.0,0.0,0.0,0.0,0.0,0.0,0.0,-0.6338,-0.6335,-0.6331,-0.6274,-0.8993,-1.4069,-1.4089,-1.1548,-0.6831,0.0,0.0,0.0,0.0,-1.0014,-1.2231,-1.1254,0.0,0.0,0.0,0.0,0.0,0.0,0.0,0.0,0.0,0.0,0.0,0.0,0.0,-0.5588,-0.5758,-0.8055,-1.0624,-1.0617,-0.9432,-0.8786,0.0,0.0,0.0,0.0,0.0,0.0,0.0,0.0,0.0,0.0,0.0,0.0,0.0,0.0,0.0,0.0,0.0,0.0,0.0,0.0,0.0,0.0,0.0,0.0,0.0,0.0,0.0,-1.0355,-1.0613,-1.1363,-1.2948,-1.3009,-1.3009,-1.3009,-1.307,-1.3114,-1.3149,-1.3897,-1.3961,-1.3391,-1.2336,-1.218,-1.2758,-1.3357,-1.4063,-1.4917,-1.6675,-1.7627,-1.8047,-1.8437,-1.9092,-1.9824,-1.9893,-1.9457,-1.8816,0.0,0.0,0.0,0.0,0.0,0.0,0.0,0.0,0.0,0.0,0.0,0.0,0.0,0.0,0.0,0.0,0.0,0.0,0.0,0.0,0.0,0.0,0.0,-0.6304,-0.6287,-0.63,-0.6271,-0.6271,-0.6329,-0.896,-1.4084,-1.3366,0.0,0.0,0.0,0.0,0.0,0.0,-0.9377,-1.0989,-1.0185,-0.99,0.0,0.0,0.0,0.0,0.0,0.0,0.0,0.0,-1.0238,-0.9588,0.0,0.0,-0.6197,-0.6213,-0.7158,-0.8317,-0.8846,-0.8479,-0.8307,0.0,0.0,0.0,0.0,0.0,0.0,0.0,0.0,0.0,0.0,0.0,0.0,0.0,0.0,0.0,0.0,0.0,0.0,0.0,0.0,0.0,0.0,0.0,0.0,0.0,0.0,0.0,-0.7265,-0.8377,-0.9488,-1.064,-1.0703,-1.0961,-1.1483,-1.2027,-1.2027,-1.1545,-1.2818,-1.3252,-1.2968,-1.2357,-1.2268,-1.2721,-1.3194,-1.3831,-1.4703,-1.6251,-1.7157,-1.7605,-1.8933,-1.9173,-1.8935,-1.9195,-1.8407,-1.7207,0.0,0.0,0.0,0.0,0.0,0.0,0.0,0.0,0.0,0.0,0.0,0.0,0.0,0.0,0.0,0.0,0.0,0.0,0.0,0.0,0.0,0.0,0.0,-0.5711,-0.4351,-0.4313,-0.4958,-0.6294,-0.6312,-0.875,-1.352,0.0,0.0,0.0,0.0,0.0,0.0,0.0,0.0,-1.084,-0.9362,-0.9081,0.0,0.0,0.0,0.0,0.0,0.0,0.0,0.0,-0.9588,0.0,0.0,0.0,0.0,0.0,-0.6412,-0.685,-0.7437,-0.7567,-0.7768,-0.8629,0.0,0.0,0.0,0.0,0.0,0.0,0.0,0.0,0.0,0.0,0.0,0.0,0.0,0.0,0.0,0.0,0.0,0.0,0.0,0.0,0.0,0.0,0.0,0.0,0.0,0.0,0.0,-0.651,-0.7692,-0.8877,-0.8877,-0.9332,-1.0174,-1.0812,-1.1035,-1.09,-1.1966,-1.2397,-1.2301,-1.2064,-1.2193,-1.2611,-1.3075,-1.3661,-1.4321,-1.5617,-1.6448,-1.7049,-1.8704,-1.8828,-1.804,-1.8434,-1.7573,-1.6156,0.0,0.0,0.0,0.0,0.0,0.0,0.0,0.0,0.0,0.0,0.0,0.0,0.0,0.0,0.0,0.0,0.0,0.0,0.0,0.0,0.0,0.0,0.0,-0.4273,-0.0078,0.0,-0.2039,-0.6317,-0.6308,-0.8351,-1.2303,-1.3488,0.0,0.0,0.0,0.0,0.0,0.0,0.0,-1.2003,-0.8988,-0.8389,-0.9221,0.0,0.0,0.0,0.0,0.0,0.0,0.0,-0.8549,0.0,0.0,0.0,0.0,0.0,-0.5876,-0.6719,-0.6719,-0.6719,-0.6941,0.0,0.0,0.0,0.0,0.0,0.0,0.0,0.0,0.0,0.0,0.0,0.0,0.0,0.0,0.0,0.0,0.0,0.0,0.0,0.0,0.0,0.0,0.0,0.0,0.0,0.0,0.0,0.0,-0.5394,-0.6183,-0.7897,-0.7962,-0.842,-0.9274,-0.9526,-1.0257,-1.1423,-1.1361,-1.143,-1.143,-1.143,-1.175,-1.2358,-1.2984,-1.3446,-1.3745,-1.4744,-1.5592,-1.6345,-1.774,-1.79,-1.7302,-1.7672,-1.7038,-1.6201,0.0,0.0,0.0,0.0,0.0,0.0,0.0,0.0,0.0,0.0,0.0,0.0,0.0,0.0,0.0,0.0,0.0,0.0,0.0,0.0,0.0,0.0,0.0,0.0,0.0,0.0,-0.2041,-0.6317,-0.6287,-0.7639,0.0,0.0,0.0,-1.0523,0.0,0.0,0.0,0.0,0.0,-1.1013,-0.8761,-0.8389,-0.9145,0.0,0.0,0.0,0.0,0.0,0.0,0.0,0.0,0.0,0.0,0.0,0.0,-0.5436,-0.5519,-0.5778,-0.5891,0.0,0.0,0.0,0.0,0.0,0.0,0.0,0.0,0.0,0.0,0.0,0.0,0.0,0.0,0.0,0.0,0.0,0.0,0.0,0.0,0.0,0.0,0.0,0.0,0.0,0.0,0.0,0.0,0.0,0.0,-0.401,-0.5617,-0.6183,-0.678,-0.7574,-0.8533,-0.8601,-0.9225,-1.0372,-1.056,-1.1184,-1.2037,-1.183,-1.1944,-1.2298,-1.2497,-1.2649,-1.284,-1.4313,-1.5586,-1.6649,-1.7347,-1.7147,-1.6469,-1.6569,-1.614,-1.5597,0.0,0.0,0.0,0.0,0.0,0.0,0.0,0.0,0.0,0.0,-0.3117,-0.5401,0.0,0.0,0.0,0.0,0.0,0.0,0.0,0.0,0.0,0.0,0.0,0.0,0.0,0.0,-0.168,0.0,0.0,0.0,0.0,0.0,0.0,-1.1313,0.0,-1.1204,0.0,0.0,-1.0198,-1.1016,-0.8727,-0.8389,-0.9069,0.0,0.0,0.0,0.0,0.0,0.0,0.0,0.0,0.0,0.0,0.0,0.0,-0.5203,-0.527,-0.5396,0.0,0.0,0.0,0.0,0.0,0.0,0.0,0.0,0.0,0.0,0.0,0.0,0.0,0.0,0.0,0.0,0.0,0.0,0.0,0.0,0.0,0.0,0.0,0.0,0.0,0.0,0.0,0.0,0.0,0.0,0.0,-0.2744,-0.4688,-0.5348,-0.594,-0.6693,-0.7686,-0.785,-0.8408,-0.9461,-0.9779,-1.0568,-1.1687,-1.1972,-1.2138,-1.2305,-1.2305,-1.2371,-1.2587,-1.4125,-1.5068,-1.5568,-1.6453,-1.6263,-1.5461,-1.5711,-1.5611,-1.5418,0.0,0.0,0.0,0.0,0.0,0.0,0.0,0.0,0.0,0.0,-0.3357,-0.5401,0.0,0.0,0.0,0.0,0.0,0.0,0.0,0.0,0.0,0.0,0.0,0.0,0.0,0.0,0.0,0.0,0.0,0.0,0.0,0.0,-1.1078,-1.256,0.0,-1.1958,0.0,-1.0318,-1.0398,-1.1631,-0.8926,-0.841,-0.901,-0.7053,0.0,0.0,0.0,0.0,0.0,0.0,0.0,0.0,0.0,0.0,0.0,-0.4979,-0.5008,0.0,0.0,0.0,0.0,0.0,0.0,0.0,0.0,0.0,0.0,0.0,0.0,0.0,0.0,0.0,0.0,0.0,0.0,0.0,0.0,0.0,0.0,0.0,0.0,0.0,0.0,0.0,0.0,0.0,0.0,0.0,0.0,-0.1547,-0.337,-0.5333,-0.5538,-0.6026,-0.6785,-0.7182,-0.779,-0.868,-0.9045,-0.9669,-1.0714,-1.1694,-1.2224,-1.2305,-1.2331,-1.2512,-1.2966,-1.4178,-1.428,-1.3857,-1.5375,-1.5382,-1.4663,-1.5197,-1.5418,-1.5471,0.0,0.0,0.0,0.0,0.0,0.0,0.0,0.0,0.0,0.0,0.0,0.0,0.0,0.0,0.0,0.0,0.0,0.0,0.0,0.0,0.0,0.0,0.0,0.0,0.0,0.0,0.0,0.0,0.0,0.0,0.0,0.0,0.0,-1.1259,0.0,-1.2362,-1.1964,-1.1526,-1.143,-1.1316,-0.9248,-0.8556,-0.8556,-0.6619,-0.5973,0.0,0.0,0.0,0.0,0.0,0.0,0.0,0.0,-0.5104,-0.5128,-0.5238,0.0,0.0,0.0,0.0,0.0,0.0,0.0,0.0,0.0,0.0,0.0,0.0,0.0,0.0,0.0,0.0,0.0,0.0,0.0,0.0,0.0,0.0,0.0,0.0,0.0,0.0,0.0,0.0,0.0,0.0,0.0,0.0,0.0,-0.035,-0.2052,-0.5306,-0.557,-0.583,-0.6162,-0.6293,-0.6903,0.0,-0.8062,-0.8613,-0.9669,-1.064,-1.1545,-1.2318,-1.2552,-1.2826,-1.3133,-1.3661,-1.4014,-1.4342,-1.4722,-1.4967,-1.5224,-1.5351,-1.5538,-1.5745,0.0,0.0,0.0,0.0,0.0,0.0,0.0,0.0,0.0,0.0,0.0,0.0,0.0,0.0,0.0,0.0,0.0,0.0,0.0,0.0,0.0,0.0,0.0,0.0,0.0,0.0,0.0,0.0,0.0,0.0,0.0,0.0,0.0,-1.0864,0.0,-1.1531,-1.1019,-1.1019,-1.0641,-0.9849,-0.8504,-0.7986,-0.7845,-0.6369,-0.585,-0.5891,-0.5671,0.0,0.0,0.0,0.0,0.0,0.0,0.0,-0.5106,-0.5241,-0.336,0.0,0.0,0.0,0.0,0.0,0.0,0.0,0.0,0.0,0.0,0.0,0.0,0.0,0.0,0.0,0.0,0.0,0.0,0.0,0.0,0.0,0.0,0.0,0.0,0.0,0.0,0.0,0.0,0.0,0.0,0.092,0.007,0.0,-0.0867,-0.2783,-0.4164,-0.5214,-0.5972,-0.6108,-0.6517,-0.7215,-0.7215,-0.7721,-0.8825,-1.0341,-1.1595,-1.2532,-1.2839,-1.314,-1.3427,-1.3499,-1.3908,-1.4342,-1.4623,-1.4923,-1.5224,-1.5504,-1.5698,-1.5852,0.0,0.0,0.0,0.0,0.0,0.0,0.0,0.0,0.0,0.0,0.0,0.0,0.0,0.0,0.0,0.0,0.0,0.0,0.0,0.0,0.0,0.0,0.0,0.0,0.0,0.0,0.0,0.0,0.0,0.0,0.0,0.0,0.0,-1.0315,0.0,0.0,-0.9817,-0.9794,-0.9225,-0.8245,-0.7536,-0.7185,-0.7115,-0.6075,-0.5742,-0.5745,-0.5603,-0.5566,-0.5566,-0.5413,0.0,0.0,0.0,0.0,-0.4969,-0.4439,-0.2271,0.0,0.0,0.0,0.0,0.0,0.0,0.0,0.0,0.0,0.0,0.0,0.0,0.0,0.0,0.0,0.0,0.0,0.0,0.0,0.0,0.0,0.0,0.0,0.0,0.0,0.0,0.0,0.0,0.0,0.0,0.1897,0.0073,0.0,0.0,0.0,-0.2843,-0.4947,-0.6129,-0.6244,-0.6373,-0.6512,-0.6512,-0.7138,-0.8246,-0.9961,-1.1456,-1.2601,-1.2824,-1.3172,-1.3566,-1.3701,-1.3921,-1.4289,-1.4776,-1.5023,-1.517,-1.5651,-1.5832,-1.5872,0.0,0.0,0.0,0.0,0.0,0.0,0.0,0.0,0.0,0.0,-0.3435,-0.5413,0.0,0.0,0.0,0.0,0.0,0.0,-0.5428,0.0,0.0,-0.3089,-0.1109,0.0,0.0,0.0,0.0,0.0,0.0,0.0,0.0,0.0,0.0,0.0,0.0,0.0,0.0,-0.8415,-0.8163,-0.8007,-0.7113,-0.6792,-0.6664,-0.5814,-0.5501,-0.5599,-0.5447,-0.5477,-0.5566,-0.5413,-0.5415,0.0,0.0,0.0,0.0,-0.1787,0.0,0.0,0.0,0.0,0.0,0.0,0.0,0.0,0.0,0.0,0.0,0.0,0.0,0.0,0.0,0.0,0.0,0.0,0.0,0.0,0.0,0.0,0.0,0.0,0.0,0.0,0.0,0.0,0.0,0.0,0.3923,0.1932,0.0073,0.0,0.0,0.0,-0.4099,-0.6428,-0.6624,-0.6551,-0.6623,-0.6671,-0.6671,-0.717,-0.8254,-0.88,-1.0008,-1.1688,-1.195,-1.2675,-1.3579,-1.3921,-1.4349,-1.4856,-1.4937,-1.5271,-1.5725,-1.5798,-1.5832,-1.5872,0.0,0.0,0.0,0.0,0.0,0.0,0.0,0.0,0.0,0.0,0.0,-0.3151,0.0,0.0,0.0,-0.5428,-0.5428,-0.5432,-0.5369,-0.4685,-0.3285,-0.1255,-0.0442,0.0,0.0,0.0,0.0,0.0,0.0,0.0,0.0,-0.702,-0.76,0.0,0.0,0.0,0.0,0.0,0.0,-0.6535,-0.6141,-0.6003,-0.6007,-0.5589,-0.5457,-0.5569,-0.5416,0.0,0.0,0.0,-0.5428,-0.5428,-0.5428,0.0,0.0,0.0,0.0,0.0,0.0,0.0,0.0,0.0,0.0,0.0,0.0,0.0,0.0,0.0,0.0,0.0,0.0,0.0,0.0,0.0,0.0,0.0,0.0,0.0,0.0,0.0,0.0,0.0,0.0,0.0,0.0,0.0,0.5176,0.3375,0.0152,0.0,0.0,0.0,-0.319,-0.495,-0.4966,-0.6135,-0.6785,-0.6827,-0.6827,-0.7119,-0.7621,-0.7692,-0.8813,-1.081,-1.1042,-1.1488,-1.2012,-1.2808,-1.3349,-1.3812,-1.4711,-1.5217,-1.5605,-1.5765,-1.5939,-1.6119,0.0,0.0,0.0,0.0,0.0,0.0,0.0,0.0,0.0,0.0,0.0,0.0,0.0,0.0,0.0,0.0,-0.5369,-0.5369,-0.5372,-0.5423,-0.4018,-0.0829,-0.0219,0.0,0.0,0.0,0.0,0.0,0.0,0.0,-0.5608,-0.6354,-0.7104,0.0,-0.7426,0.0,0.0,0.0,0.0,-0.5474,-0.5477,-0.5525,-0.5583,-0.5511,-0.5532,-0.5576,-0.5467,0.0,0.0,0.0,-0.5432,-0.5425,-0.5315,-0.5364,0.0,0.0,0.0,0.0,0.0,0.0,0.0,0.0,0.0,0.0,0.0,0.0,0.0,0.0,0.0,0.0,0.0,0.0,0.0,0.0,0.0,0.0,0.0,0.0,0.0,0.0,0.0,0.0,0.0,0.0,0.0,0.0,0.622,0.4704,0.1017,0.0315,0.0,0.0,-0.1718,-0.3233,-0.4489,-0.6057,-0.6892,-0.6983,-0.6983,-0.7037,-0.7136,-0.7031,-0.783,-0.9441,-0.9943,-1.0351,-1.0702,-1.1537,-1.2139,-1.2572,-1.3658,-1.4308,-1.4578,-1.5164,-1.5326,-1.5306,0.0,0.0,0.0,0.0,0.0,0.0,0.0,0.0,0.0,0.0,0.0,0.0,0.0,0.0,-0.5393,-0.5393,-0.5382,-0.5372,-0.5428,-0.5389,-0.4582,-0.2616,-0.0921,0.0,0.0,0.0,0.0,0.0,0.0,0.0,-0.2924,-0.5463,-0.6698,-0.6854,-0.6648,-0.6455,-0.6294,0.0,0.0,0.0,-0.5728,-0.5647,-0.5606,0.0,0.0,0.0,0.0,0.0,0.0,0.0,0.0,-0.5352,-0.5192,-0.5216,-0.4706,0.0,0.0,0.0,0.0,0.0,0.0,0.0,0.0,0.0,0.0,0.0,0.0,0.0,0.0,0.0,0.0,0.0,0.0,0.0,0.0,0.0,0.0,0.0,0.0,0.0,0.0,0.0,0.0,0.0,0.0,0.0,0.6268,0.5326,0.3046,0.1039,0.0,0.0,-0.0083,-0.2378,-0.6897,-0.7007,-0.7058,-0.7129,-0.7129,-0.7132,-0.7139,-0.7132,-0.7129,-0.7302,-0.8448,-0.9579,-1.0626,-1.0843,-1.106,-1.1375,-1.1589,-1.1818,-1.2221,-1.3488,-1.335,-1.2599,0.0,0.0,0.0,0.0,0.0,0.0,0.0,0.0,0.0,0.0,0.0,0.0,0.0,-0.2954,-0.3694,-0.3689,-0.47,-0.5372,-0.5428,-0.5382,-0.4573,-0.2811,-0.0975,0.0,0.0,0.0,0.0,0.0,0.0,-0.2166,-0.2693,-0.3689,-0.4974,-0.6529,-0.7148,-0.7204,-0.6842,-0.6895,0.0,0.0,0.0,0.0,0.0,0.0,0.0,0.0,0.0,0.0,0.0,0.0,0.0,-0.5362,-0.5328,-0.5357,-0.4341,0.1204,0.4783,0.0,0.0,0.0,0.0,0.0,0.0,0.0,0.0,0.0,0.0,0.0,0.0,0.0,0.0,0.0,0.0,0.0,0.0,0.0,0.0,0.0,0.0,0.0,0.0,0.0,0.0,0.0,0.0,0.0,0.0,0.5962,0.5162,0.1871,0.0,0.0,0.0,-0.1562,-0.4782,-0.634,-0.7074,-0.7139,-0.7139,-0.7139,-0.7139,-0.7139,-0.7139,-0.7139,-0.7577,-0.8013,-0.8456,-0.9344,-0.9899,-1.0278,-1.1135,-1.1642,-1.1965,-1.2588,-1.2689,-1.2506,0.0,0.0,0.0,0.0,0.0,0.0,0.0,0.0,0.0,0.0,0.0,0.0,0.0,0.0,-0.1812,-0.1806,-0.4028,-0.5382,-0.5369,-0.5389,-0.4576,-0.2811,-0.0966,0.0,0.0,0.0,0.0,0.0,0.0,0.0,0.0,0.0,-0.3903,-0.6065,-0.6881,0.0,0.0,0.0,0.0,-0.7182,0.0,0.0,-0.5953,0.0,0.0,0.0,0.0,0.0,0.0,0.0,0.0,-0.5297,-0.4708,-0.4047,-0.242,0.3474,0.5878,0.0,0.0,0.0,0.0,0.0,0.0,0.0,0.0,0.0,0.0,0.0,0.0,0.0,0.0,0.0,0.0,0.0,0.0,0.0,0.0,0.0,0.0,0.0,0.0,0.0,0.0,0.0,0.0,0.0,0.0,0.0,0.6312,0.2916,0.076,0.0,0.0,-0.0795,-0.241,-0.5549,-0.7081,-0.7064,-0.7143,-0.7139,-0.7139,-0.7139,-0.7139,-0.7143,-0.7193,-0.7217,-0.7227,-0.8189,-0.8717,-0.8981,-0.9918,-1.0502,-1.0798,-1.132,-1.1439,-1.1381,0.0,0.0,0.0,0.0135,0.0135,0.0135,0.0,0.0,0.0,0.0,0.0,0.0,0.0,0.0,0.0,0.0,-0.3226,-0.5266,-0.5312,-0.5399,-0.4584,-0.288,-0.0966,0.0,0.0,0.0,0.0,0.0,0.0,0.0,0.0,0.0,-0.3567,0.0,-0.556,-0.6503,-0.7757,0.0,-0.7871,-0.7932,0.0,-0.6301,-0.5761,0.0,0.0,0.0,-0.6683,-0.6376,0.0,0.0,0.0,-0.4982,-0.3175,-0.1384,0.0941,0.5261,0.0,0.0,0.0,0.0,0.0,0.0,0.0,0.0,0.0,0.0,0.0,0.0,0.0,0.0,0.0,0.0,0.0,0.0,0.0,0.0,0.0,0.0,0.0,0.0,0.0,0.0,0.0,0.0,0.0,0.0,0.662,0.6549,0.6334,0.4205,0.2103,0.009,0.0,0.0,0.0,-0.4567,-0.7005,-0.7084,-0.7064,-0.7139,-0.7139,-0.7139,-0.7143,-0.7156,-0.7305,-0.7377,-0.7397,-0.7546,-0.7689,-0.7828,-0.7984,-0.814,-0.8473,-0.9677,-0.9588,-0.8925,0.0,0.0,0.0815,0.3442,0.3914,0.3029,0.0,0.0,0.0,0.0,0.0,0.0,0.0,0.0,0.0,0.0,-0.0938,-0.2076,-0.3349,-0.4643,-0.5196,-0.4651,-0.169,0.0,0.0,0.0,0.0,0.0,0.0,0.0,0.0,0.0,0.0,0.0,-0.4849,-0.6139,-0.7336,-0.8335,0.0,0.0,-0.7828,-0.6218,0.0,0.0,0.0,0.0,0.0,-0.6167,0.0,0.0,-0.3626,-0.3152,0.0,0.0,0.0,0.0,0.0,0.0,0.7331,0.0,0.0,0.0,0.0,0.0,1.2556,1.383,1.4879,0.0,0.0,0.0,0.0,0.0,0.0,0.0,0.0,0.0,0.0,0.0,0.0,0.0,0.0,0.0,0.0,0.0,0.0,0.0,0.6739,0.6723,0.688,0.3011,0.0625,0.0,0.0,0.0,0.0,-0.1341,-0.3666,-0.7084,-0.7078,-0.7068,-0.7139,-0.7139,-0.72,-0.7309,-0.7353,-0.7492,-0.7692,-0.7736,-0.7777,-0.7838,-0.8102,-0.8235,-0.8398,-0.8923,-0.8955,-0.8726,0.0,0.1212,0.2898,0.5001,0.541,0.4721,0.0,0.0,0.0,0.0,0.0,0.0,0.0,0.0,0.0,0.0,0.0,-0.0469,-0.1472,-0.2551,-0.384,-0.5343,-0.1949,0.0,0.0,0.0,0.0,0.0,0.0,0.0,0.0,0.0,0.0,0.0,0.0,0.0,0.0,0.0,0.0,0.0,-0.7704,0.0,0.0,-0.5225,-0.3688,0.0,0.0,0.0,-0.6525,-0.5127,-0.3244,0.0,0.0,0.0,0.0,0.0,0.0,0.0,0.0,0.0,0.0,0.0,0.0,0.0,1.2209,1.3485,1.4696,0.0,0.0,0.0,0.0,0.0,0.0,0.0,0.0,0.0,0.0,0.0,0.0,0.0,0.0,0.0,0.0,0.6668,0.6831,0.6922,0.6909,0.69,0.7104,0.2602,0.0,0.0,0.0,0.0,0.0,0.0,-0.1429,-0.42,-0.6236,-0.7265,-0.7255,-0.7305,-0.738,-0.7468,-0.7529,-0.7651,-0.7818,-0.7879,-0.7906,-0.7929,-0.8174,-0.8306,-0.8387,-0.8625,-0.875,-0.8818,0.0,0.3167,0.5413,0.541,0.5399,0.0,0.0,0.0,0.0,0.0,0.0,0.0,0.0,0.0,0.0,0.0,0.0,0.0,0.0,0.0,0.0,-0.466,-0.2088,-0.0205,0.0,0.0,0.0,0.0,0.0,0.0,0.0,0.0,0.0,0.0,-0.4512,-0.5372,0.0,0.0,0.0,-0.7475,-0.6964,-0.6855,0.0,0.0,-0.3751,0.0,-0.3166,-0.4552,-0.6542,-0.6666,-0.4056,0.0,0.0,0.0,0.0,0.0,0.49,0.0,0.0,0.0,0.0,0.0,0.0,0.0,1.1979,1.3531,1.4964,1.5513,0.0,0.0,0.0,0.0,0.0,0.0,0.0,0.0,0.0,0.0,0.0,0.0,0.0,0.0,0.6522,0.6783,0.6959,0.6893,0.7048,0.7055,0.7072,0.262,0.0,0.0,0.0,0.0,0.0,0.0,0.0,-0.0089,-0.4749,-0.7126,-0.7411,-0.7539,-0.7607,-0.7631,-0.7756,-0.7821,-0.7845,-0.7984,-0.8038,-0.8058,-0.8228,-0.837,-0.8503,-0.8672,-0.8821,-0.894,0.3775,0.4934,0.5406,0.5389,0.0,0.0,0.0,0.0,0.0,0.0,0.0,0.0,0.0,0.0,0.0,0.0,0.0,0.0,0.0,0.0,-0.0336,-0.101,-0.3167,-0.1632,0.4217,0.0,0.0,0.0,0.0,0.0,0.0,0.0,0.0,0.0,0.0,0.0,0.0,0.0,0.0,-0.6115,-0.723,0.0,-0.6641,-0.6282,-0.6121,-0.5769,-0.3826,-0.5303,-0.8016,0.0,-0.5894,-0.4455,0.0,0.0,0.0,0.0,0.0,0.0,0.0,0.0,0.0,0.0,0.0,0.0,1.0527,1.0989,1.163,0.0,0.0,0.0,0.0,0.0,0.0,0.0,0.0,0.0,0.0,0.0,0.0,0.0,0.0,0.0,0.6922,0.6997,0.7068,0.7024,0.7102,0.706,0.7135,0.2617,0.0,0.0,0.0,0.0,0.0,0.0,0.0,-0.0,-0.3193,-0.5723,-0.7601,-0.7636,-0.7662,-0.777,-0.7797,-0.7882,-0.7997,-0.8028,-0.8038,-0.8065,-0.8336,-0.8459,-0.8516,-0.8794,-0.8913,-0.894,0.4701,0.5428,0.56,0.618,0.0,0.0,0.0,0.0,0.0,0.0,0.0,0.0,0.0,0.0,0.0,0.0,0.0,0.0,0.0,0.0,0.0,0.0,-0.1752,-0.0135,0.5313,0.5388,0.0,0.0,0.0,0.0,0.0,0.0,0.0,0.0,0.0,0.0,0.0,0.0,-0.545,-0.5599,-0.717,0.0,-0.7277,-0.7971,-0.7605,-0.6548,-0.5779,-0.6265,-0.7246,-0.6978,-0.6557,0.0,0.0,-0.1662,0.0127,0.0,0.2691,0.3535,0.0,0.0,0.0,0.7392,0.0,0.0,0.0,1.0886,1.1471,1.2472,1.2339,0.0,0.0,0.0,0.0,0.0,0.0,0.0,0.0,0.0,0.0,0.0,0.0,0.0,0.6926,0.7058,0.6576,0.5433,0.5368,0.4843,0.3668,0.1327,0.0,0.0,0.0,0.0,0.0,0.0,0.0,-0.0,-0.2728,-0.5327,-0.7844,-0.7863,-0.7858,-0.7926,-0.7926,-0.797,-0.8038,-0.8038,-0.8038,-0.8069,-0.8367,-0.8482,-0.852,-0.8825,-0.894,-0.894,0.4232,0.5301,0.5975,0.6846,0.0,0.0,0.0,0.0,0.0,0.0,0.0,0.0,0.0,0.0,0.0,0.0,0.0,0.0,0.0,0.0,0.0,0.0538,0.0538,0.2085,0.5336,0.5406,0.5399,0.0,0.0,0.0,0.0,0.0,0.0,0.0,0.0,0.0,0.0,0.0,0.0,-0.5477,0.0,-0.7389,-0.774,-0.8699,-0.797,-0.6514,-0.748,-0.7171,-0.6331,-0.6901,0.0,-0.5595,-0.5727,-0.3766,0.0,0.0,0.0,0.0,0.0,0.0,0.0,0.0,0.0,0.9307,0.0,0.0,0.0,1.2352,0.0,0.0,0.0,0.0,0.0,0.0,0.0,0.0,0.0,0.0,0.0,0.0,0.0,0.0,0.0,0.7044,0.6308,0.4508,0.3485,0.2098,0.0095,0.0,0.0,0.0,0.0,0.0,0.0,0.0,0.0,-0.0,-0.223,-0.4897,-0.7986,-0.7997,-0.8041,-0.8038,-0.8038,-0.8038,-0.8038,-0.8038,-0.8058,-0.8109,-0.8377,-0.8482,-0.852,-0.8825,-0.894,-0.894,0.2582,0.4907,0.6794,0.653,0.0,0.0,0.0,0.0,0.0,0.0,0.0,0.0,0.0,0.0,0.0,0.0,0.0,0.0,0.468,0.0,0.0,0.0,0.241,0.3351,0.5382,0.5382,0.5376,0.0,0.0,0.0,0.0,0.0,0.0,0.0,0.0,0.0,0.0,0.0,-0.5375,0.0,-0.5782,-0.6417,0.0,-0.6821,-0.6271,-0.5842,-0.6964,-0.7212,-0.7015,0.0,-0.5634,-0.4066,0.0,-0.5298,-0.4221,0.0,0.0,0.0,0.0,0.0,0.0,0.0,0.7711,0.0,0.0,0.0,0.9907,0.9701,0.0,0.0,0.0,0.0,0.0,0.0,0.0,0.0,0.0,0.0,0.0,0.0,0.0,0.0,0.0,0.691,0.7055,0.7018,0.2864,0.0291,0.0,0.0,0.0,0.0,0.0,0.0,0.0,0.0,0.0,-0.0,-0.0291,-0.3129,-0.7986,-0.8014,-0.7959,-0.8038,-0.8038,-0.8038,-0.8038,-0.8038,-0.8123,-0.8258,-0.8421,-0.8482,-0.852,-0.8825,-0.894,-0.894,0.3749,0.5288,0.6702,0.0,0.0,0.0,0.0,0.0,0.0,0.0,0.0,0.0,0.0,0.0,0.0,0.0,0.0,0.5036,0.0,0.0,0.0,0.0,0.0,0.0,0.5379,0.5379,0.5372,0.5428,0.5432,0.0,0.0,0.0,0.0,0.0,0.1726,0.0,0.1929,0.0,0.0,0.0,0.0,0.0,0.0,-0.8056,-0.8119,-0.7294,-0.6941,-0.6563,-0.6352,0.0,-0.5859,0.0,0.0,0.0,0.0,0.0,0.0,0.0,0.0,0.0,0.0,0.0,0.0,0.0,0.9321,0.0,0.9486,0.0,0.0,0.0,0.0,0.0,0.0,0.0,1.0608,0.0,0.0,0.0,0.0,0.0,0.0,0.0,0.0,0.0,0.0,0.0,0.531,0.303,0.019,0.0,0.0,0.0,0.0,0.0,0.0,0.0,0.0,0.0,0.0,-0.1192,-0.3482,-0.6625,-0.7969,-0.7959,-0.8045,-0.8038,-0.8038,-0.8038,-0.813,-0.8286,-0.8428,-0.8537,-0.8638,-0.8859,-0.894,-0.894,0.4958,0.0,0.0,0.0,0.0,0.0,0.6607,0.5992,0.5575,0.0,0.0,0.0,0.6044,0.5982,0.0,0.0,0.0,0.6012,0.0,0.0,0.5563,0.0,0.0,0.0,0.0,0.0,0.5369,0.5428,0.0,0.0,0.0,0.0,0.0,0.0,0.0,0.3975,0.4227,0.0,0.0,0.1288,-0.1022,-0.3455,-0.592,-0.8132,-0.8638,-0.7929,-0.6584,-0.5758,-0.5203,-0.5155,-0.4423,0.0,-0.3671,0.0,0.0,0.0,0.0,0.0,0.2983,0.0,0.0,0.0,0.0,0.0,0.0,0.0,0.0,0.0,0.0,0.0,0.0,0.0,0.0,0.0,0.0,0.0,0.0,0.0,0.0,0.0,0.0,0.0,0.0,0.0,0.0,0.0,0.0,0.5639,0.2166,0.0676,0.0,0.0,0.0,0.0,0.0,0.0,0.0,0.0,0.0,0.0,-0.0101,-0.4021,-0.6648,-0.7972,-0.7955,-0.8045,-0.8038,-0.8038,-0.813,-0.8286,-0.8428,-0.8574,-0.873,-0.8882,-0.894,-0.894,0.5496,0.6514,0.0,0.0,0.0,0.0,0.5639,0.5566,0.6007,0.0,0.0,0.0,0.0,0.0,0.0,0.0,0.0,0.6088,0.6321,0.0,0.5949,0.0,0.0,0.5433,0.0,0.0,0.0,0.0,0.0,0.0,0.0,0.0,0.0,0.0,0.0,0.5637,0.6237,0.6399,0.514,0.2885,0.0777,-0.233,-0.5641,0.0,-0.5997,-0.6788,-0.5773,0.0,0.0,-0.1091,-0.0127,0.0,0.0,0.0,0.0,0.0,0.0,0.0,0.0,0.0,0.0,0.6984,0.0,0.0,0.0,0.0,0.9753,0.0,0.0,0.0,0.0,0.0,0.0,0.0,0.0,0.0,0.0,0.0,0.0,0.0,0.0,0.0,0.0,0.0,0.0,0.0,0.0,0.0,0.6857,0.2496,0.0,0.0,0.0,0.0,0.0,0.0,0.0,0.0,0.0,0.0,-0.0,-0.0201,-0.3114,-0.7972,-0.7972,-0.7959,-0.8038,-0.8038,-0.813,-0.8286,-0.8428,-0.8574,-0.873,-0.8882,-0.894,-0.894,0.0,0.0,0.0,0.0,0.0,0.0,0.6164,0.6183,0.0,0.0,0.0,0.0,0.0,0.0,0.7005,0.0,0.0,0.6257,0.6331,0.62,0.0,0.0,0.0,0.572,0.0,0.0,0.0,0.0,0.0,0.0,0.0,0.0,0.0,0.0,0.0,0.6032,0.0,0.0,0.0,0.0,0.0,0.058,-0.0908,0.0,0.0,-0.6706,-0.3954,-0.2332,0.0,0.0643,0.2265,0.3563,0.3177,0.1305,-0.0908,-0.1621,-0.0983,0.0,0.0,0.0,0.7124,0.739,0.0,0.0,0.0,0.0,0.0,0.0,0.0,0.0,0.0,0.0,0.0,0.0,0.0,0.0,0.0,0.0,0.0,0.0,0.0,0.0,0.0,0.0,0.0,0.0,0.6602,0.0,0.4509,0.3131,0.1626,0.0099,0.0,0.0,0.0,0.0,0.0,0.0,0.0,0.0,0.0,0.0,-0.1005,-0.2913,-0.645,-0.7975,-0.7969,-0.8163,-0.8286,-0.8425,-0.8574,-0.8726,-0.8869,-0.892,-0.894,-0.894,0.7818,0.0,0.0,0.0,0.0,0.0,0.0,0.0,0.0,0.0,0.8806,0.0,0.9104,0.0,0.7573,0.0,0.6528,0.6362,0.6408,0.5764,0.0,0.5002,0.5619,0.0,0.0,0.0,0.0,0.0,0.0,0.5456,0.0,0.0,0.0,0.0,0.0,0.0,0.0,0.0,0.8038,0.0,0.0,0.3186,0.0,0.0,-0.2956,-0.4191,0.0,0.0532,0.1655,0.3191,0.4674,0.5841,0.5522,0.3381,0.0855,0.0205,0.093,0.2168,0.3307,0.5517,0.0,0.7985,0.9186,0.0,1.0577,0.0,0.0,0.0,0.0,0.0,0.0,0.0,0.0,0.0,0.0,0.0,0.0,0.6768,0.0,0.0,0.0,0.0,0.0,0.0,0.0,0.6474,0.6448,0.5753,0.0,0.0,0.1597,0.0098,0.0,0.0,0.0,0.0,0.0,0.0,0.0,0.0,0.0,0.0,0.0,-0.0201,-0.3621,-0.566,-0.6718,-0.7833,-0.837,-0.8509,-0.8655,-0.8771,-0.8866,-0.892,-0.894,-0.894,0.862,0.0,0.0,0.0,0.9405,0.0,0.0,0.0,0.8205,0.0,1.0666,1.0578,1.1787,0.9991,0.8427,0.7774,0.6855,0.0,0.6288,0.426,0.0,0.0,0.4502,0.5638,0.6156,0.0,0.0,0.0,0.0,0.0,0.0,0.0,0.0,0.0,0.0,0.0,0.7074,0.8175,0.8745,0.8679,0.6638,0.5193,0.4406,0.5196,0.3396,0.0597,0.2336,0.3456,0.4486,0.6474,0.6946,0.6584,0.5657,0.4201,0.2476,0.0669,0.2618,0.5399,0.5484,0.7204,0.8947,0.8889,0.0,0.0,0.0,0.0,1.2606,0.0,0.0,0.0,0.0,0.0,0.0,0.0,0.0,0.0,0.0,0.0,0.0,0.0,0.0,0.0,0.0,0.0,0.6627,0.6474,0.6371,0.6282,0.0,0.0,0.0094,0.0,0.0,0.0,0.0,0.0,0.0,0.0,0.0,0.0,0.0,0.0,0.0,0.0,0.0,-0.1421,-0.4025,-0.7044,-0.8394,-0.8649,-0.8672,-0.8723,-0.8737,-0.8882,-0.894,-0.894,0.934,1.1413,1.2752,0.0,1.0555,0.9505,0.0,0.0,0.0,0.0,1.2021,1.2454,1.1009,1.0659,0.9548,0.7177,0.6537,0.0,0.0,0.0,0.0,0.0639,0.0233,0.1216,0.3856,0.2147,0.0,0.545,0.0,0.0,0.5416,0.0,0.0,0.0,0.0,0.0,0.8739,0.9428,0.982,0.9852,0.8186,0.7428,0.0,0.0,0.6729,0.5952,0.5939,0.6086,0.647,0.7456,0.7712,0.7372,0.5855,0.5061,0.4334,0.2539,0.3611,0.5686,0.7381,0.9566,1.115,1.0302,1.0595,1.1052,0.0,0.0,0.0,0.0,0.0,0.0,0.0,0.0,0.0,0.0,0.0,0.0,0.0,0.0,0.0,0.6409,0.0,0.0,0.0,0.6541,0.6572,0.6329,0.6468,0.6592,0.6675,0.0,0.0,0.0,0.0,0.0,0.0,0.0,0.0,0.0,0.0,0.0,0.0,0.0,0.0,0.0,0.0,-0.0407,-0.1448,-0.6427,-0.8581,-0.8592,-0.8739,-0.8893,-0.8882,-0.8923,-0.894,-0.894,1.0864,0.0,0.0,1.2909,0.0,0.0,1.0656,0.0,0.0,1.2513,1.3572,0.0,1.2233,1.1458,1.0146,0.7735,0.6539,0.0,0.1395,0.0,0.0,-0.2867,-0.2594,-0.2003,-0.0829,-0.045,0.0,0.3193,0.0,0.0,0.5292,0.0,0.0,0.0,0.0,0.8095,0.0,1.0239,1.0816,1.0945,0.9502,0.0,0.0,0.8166,0.7935,0.8027,0.8057,0.8067,0.8127,0.8431,0.8549,0.8415,0.7428,0.6637,0.5909,0.492,0.5661,0.7204,0.9062,1.0245,1.0876,1.0604,1.0871,1.1164,1.1142,1.2076,1.3119,0.0,0.0,0.0,0.0,0.0,0.0,0.0,0.0,0.0,0.0,0.0,0.0,0.0,0.6854,0.0,0.0,0.6527,0.6548,0.6363,0.6651,0.6773,0.0,0.0,0.0,0.0097,0.0,0.0,0.0,0.0,0.0,0.0,0.0,0.0,0.0,0.0,0.0,0.0,0.0,0.0,-0.021,-0.3529,-0.6428,-0.8763,-0.8846,-0.8856,-0.894,-0.895,-0.8947,-0.894,1.2822,0.0,0.0,0.0,0.0,0.0,0.0,1.3444,0.0,1.5241,0.0,1.4622,1.3972,1.2365,1.0553,0.8631,0.0,0.4891,0.2959,-0.2362,-0.5682,-0.6247,-0.4428,-0.4222,-0.5748,-0.2709,0.0,0.0,0.0,0.0,0.0,0.0,0.0,0.0,0.0,0.0,0.0,1.083,1.1764,1.1952,1.0866,1.044,1.0368,0.8972,0.8526,0.8726,0.9512,0.9588,0.9338,0.9402,0.9466,0.9466,0.9338,0.8409,0.7349,0.7219,0.7977,0.915,1.029,1.0104,0.9843,1.0548,1.0934,1.1147,1.1349,1.2408,1.3528,1.4386,1.4617,1.4665,0.0,0.0,0.0,0.0,0.0,0.0,0.0,0.0,0.0,0.0,0.0,0.0,0.0,0.0,0.6589,0.6502,0.6864,0.7042,0.0,0.0,0.0,0.0668,0.0198,0.0,0.0,0.0,0.0,0.0,0.0,0.0,0.0,0.0,0.0,0.0,0.0,0.0,0.0,0.0,-0.3308,-0.8335,-0.8782,-0.887,-0.8944,-0.8856,-0.885,-0.8944,0.0,0.0,0.0,0.0,0.0,1.7029,1.8684,1.7446,1.6006,1.4974,1.5948,1.5702,1.299,1.2704,1.1358,0.8122,0.7663,0.0,0.0,0.0,0.0,-0.5775,-0.5612,-0.5599,-0.5818,-0.5303,-0.3377,0.0,0.0,0.0,0.0,0.0,0.0,0.0,0.0,0.0,1.0712,1.1775,0.0,1.3068,1.2979,1.2988,1.2924,1.2328,1.2066,1.212,1.232,1.1017,0.9402,1.011,1.0364,1.0238,0.953,0.9139,0.8742,0.8021,0.849,0.9408,1.0275,1.0961,1.1392,1.1524,1.163,1.1638,1.1431,1.2477,1.339,1.3209,1.4,1.4259,1.2795,0.0,0.0,0.0,0.0,0.0,0.0,0.0,0.0,0.0,0.0,0.6566,0.0,0.0,0.6634,0.6654,0.6925,0.7083,0.0,0.0,0.0,0.0,0.1178,0.0,0.0,0.0,0.0,0.0,0.0,0.0,0.0,0.0,0.0,0.0,0.0,0.0,0.0,0.0,-0.2096,-0.5487,-0.7979,-0.887,-0.8944,-0.8873,-0.8863,-0.8954,0.0,0.0,0.0,0.0,0.0,0.0,0.0,1.9447,0.0,1.668,1.7016,1.6206,1.3076,1.291,1.1613,0.818,0.7953,0.6266,0.2245,-0.0136,-0.2228,-0.4143,-0.5306,0.0,-0.6339,-0.6799,-0.5679,-0.2986,0.0,0.0,0.0,0.0,0.0,0.0,0.0,1.0139,0.0,0.0,0.0,1.4655,1.4504,1.4473,1.4475,1.3839,1.3339,1.3009,1.3009,1.2258,1.1267,1.1717,1.16,1.1163,1.071,1.0281,0.9913,0.9454,0.9652,1.004,1.0465,1.0843,1.1163,1.1163,1.1163,1.1206,1.1357,1.1937,1.2473,1.2743,1.3307,1.3169,1.1201,0.9519,0.0,0.0,0.0,0.0,0.0,0.0,0.0,0.0,0.0,0.0,0.0,0.0,0.0,0.0,0.0,0.7149,0.0,0.0,0.0,0.0,0.0,0.0,0.0,0.0,0.0,0.0,0.0,0.0,0.0,0.0,0.0,0.0,0.0,0.0,0.0,0.0,-0.0889,-0.257,-0.7086,-0.7979,-0.6818,-0.832,-0.797,-0.6829,0.0,2.0418,0.0,0.0,2.0889,0.0,2.0626,2.0696,2.0143,1.8249,1.7768,1.6419,1.3356,1.3009,1.165,0.8206,0.7858,0.6338,0.2916,-0.0336,-0.245,-0.3254,-0.4841,-0.6088,-0.6941,-0.7575,-0.7313,0.0,0.0,0.0,0.0,0.0,0.0,0.0,0.0,0.0,0.0,0.0,1.5146,1.6666,1.6175,1.6103,1.6081,1.5021,1.4269,1.3717,1.3545,1.3485,1.3485,1.3304,1.2634,1.1764,1.1586,1.1108,1.0624,1.0624,1.0624,1.0624,1.0624,1.0624,1.0624,1.0624,1.0624,1.0759,1.1216,1.1383,1.1643,1.2479,1.2394,1.1636,0.9827,0.8759,0.0,0.0,0.0,0.0,0.0,0.0,0.0,0.0,0.0,0.0,0.0,0.0,0.0,0.0,0.0,0.7217,0.7027,0.739,0.632,0.0,0.0,0.0,0.0,0.0,0.0,0.0,0.0,0.0,0.0,0.0,0.0,0.0,0.0,0.0,0.0,0.0,0.0,-0.0447,-0.517,-0.5956,-0.481,-0.7768,-0.7078,-0.4933,0.0,0.0,0.0,0.0,0.0,0.0,2.3003,2.1808,2.0053,1.7927,1.76,1.6419,1.3356,1.3009,1.1561,0.8037,0.7423,0.5901,0.2871,0.0847,-0.1725,-0.5036,-0.5359,-0.5951,-0.7078,-0.728,-0.7513,0.0,0.0,0.0,0.0,0.0,0.0,0.0,0.0,0.0,0.0,1.6541,1.774,1.8864,1.8754,1.872,1.8561,1.6932,1.6244,1.6073,1.54,1.5167,1.505,1.4323,1.3053,1.1648,1.0926,1.0681,1.0624,1.0624,1.0624,1.0624,1.0624,1.0624,1.0624,1.0624,1.0624,1.0705,1.0962,1.1236,1.1523,1.1877,1.0889,0.968,0.8565,0.7644,0.7278,0.0,0.0,0.0,0.0,0.0,0.0,0.0,0.0,0.0,0.0,0.6641,0.0,0.0,0.6888,0.72,0.7322,0.7394,0.6225,0.371,0.0,0.0,0.0,0.0,0.0,0.0,0.0,0.0,0.0,0.0,0.0,0.0,0.0,0.0,0.0,0.0,0.0,-0.0,-0.056,-0.2351,-0.481,-0.7782,-0.6977,-0.4944,0.0,0.0,0.0,0.0,0.0,0.0,0.0,2.1832,2.0571,1.849,1.7872,1.6419,1.3356,1.3009,1.1628,0.8207,0.7302,0.6185,0.4426,0.1585,-0.113,-0.3697,-0.4812,-0.5914,-0.6937,-0.7189,-0.7438,0.0,0.0,0.0,0.0,0.0,0.0,0.0,0.0,1.6148,1.8205,1.9306,2.0432,2.1431,2.0722,2.0179,1.9657,1.7845,1.6866,1.6368,1.5633,1.5108,1.4569,1.3726,1.3061,1.2389,1.1593,1.0989,1.0624,1.0624,1.0624,1.0624,1.0624,1.0624,1.0624,1.0624,1.0624,1.0698,1.0929,1.1216,1.151,1.1804,1.0634,0.9168,0.8371,0.7405,0.7381,0.0,0.0,0.0,0.0,0.0,0.0,0.0,0.0,0.0,0.0,0.6851,0.6885,0.7004,0.0,0.7166,0.7227,0.7437,0.7146,0.6268,0.0,0.1654,0.0,0.0,0.0,0.0,0.0,0.0,0.0,0.0,0.0,0.0,0.0,0.0,0.0,0.0,0.0,0.0,0.0,-0.0784,-0.1905,-0.3178,-0.3989,-0.4462,2.7875,0.0,2.6609,0.0,2.5026,2.4154,2.2044,2.1693,2.0806,1.8394,1.7824,1.6419,1.3356,1.3009,1.1643,0.8175,0.7589,0.675,0.5332,0.2922,0.0533,-0.1787,-0.4146,0.0,-0.6443,-0.669,-0.7107,-0.7555,-0.3611,0.0,0.0,0.7932,1.1818,0.0,1.7006,1.9017,2.1117,2.186,2.2568,2.3038,2.2069,2.1058,1.9975,1.8237,1.7135,1.6368,1.5633,1.4874,1.4085,1.3243,1.2826,1.2512,1.171,1.1045,1.0624,1.0624,1.0624,1.0624,1.0624,1.0624,1.0624,1.0624,1.0624,1.0678,1.0822,1.1156,1.1322,1.1188,1.0209,0.9038,0.7947,0.7228,0.7548,0.9839,0.0,0.0,0.0,0.0,0.0,0.0,0.8582,0.6833,0.6977,0.694,0.6991,0.0,0.0,0.0,0.7275,0.753,0.0,0.0,0.0,0.0,0.0,0.0762,0.0,0.0,0.0,0.0,0.0,0.0,0.0,0.0,0.0,0.0,0.0,0.0,0.0,0.0,0.0,0.0,0.0,0.0,-0.138,-0.2891,2.9639,2.8972,2.8094,2.723,2.6354,2.4847,2.21,2.1682,2.0527,1.7254,1.7276,1.6419,1.3356,1.3009,1.1546,0.8005,0.8388,0.7654,0.5098,0.5178,0.3725,0.0,0.0,-0.5383,-0.5395,-0.5698,-0.652,-0.7982,0.0,0.0,0.5487,1.1612,1.5701,1.8104,1.9632,2.1643,2.4024,2.4037,2.3817,2.3342,2.2802,2.1419,1.9476,1.81,1.7135,1.6368,1.5633,1.4874,1.4085,1.3243,1.2451,1.1648,1.0863,1.0624,1.0624,1.0624,1.0624,1.0624,1.0624,1.0624,1.0624,1.0624,1.0624,1.0624,1.0624,1.1009,1.1026,0.9649,0.9386,0.889,0.7076,0.6824,0.7599,0.9868,0.0,0.0,0.0,0.0,0.0,0.0,0.8388,0.6682,0.6579,0.6883,0.0,0.0,0.0,0.0,0.0,0.0,0.0,0.7952,0.8202,0.0,0.7934,0.266,0.0,0.0,0.0,0.0,0.0,0.0,0.0,0.0,0.0,0.0,0.0,0.0,0.0,0.0,0.0,0.0,0.0,0.0,-0.0,-0.0,2.7913,2.7725,2.7225,2.5678,2.473,2.3834,2.2585,2.1647,2.0354,1.8289,1.777,1.6419,1.3356,1.3009,1.1636,0.0,0.798,0.6917,0.0,0.3723,0.2487,0.0132,-0.1114,-0.2309,-0.3513,-0.3269,-0.2228,-0.0506,0.0,0.0,0.0,1.4039,1.6837,1.9886,2.1608,2.3323,2.5149,2.6064,2.5576,2.4082,2.3587,2.1863,1.9476,1.81,1.7135,1.6312,1.5031,1.4085,1.3243,1.2451,1.1655,1.0926,1.0681,1.0624,1.0624,1.0624,1.0624,1.0624,1.0624,1.0624,1.0624,1.0624,1.0624,1.0624,1.0624,1.0466,1.0166,0.943,0.8818,0.8038,0.6898,0.6742,0.7552,0.9839,1.0469,0.0,0.0,0.0,0.0,0.0,0.8406,0.6704,0.6956,0.5363,0.0,0.0,0.0,0.0,0.0,0.0,0.0,0.0,0.8488,0.0,0.8397,0.4676,0.1853,0.0,0.0,0.0,0.0,0.0,0.0,0.0,0.0,0.0,0.0,0.0,0.0,0.0,0.0,0.0,0.0,0.0,0.0,0.0,2.7774,2.741,2.6874,2.5531,2.4404,2.3368,2.2439,2.1213,1.98,1.8148,1.7476,1.6146,1.3295,1.3009,0.0,0.8275,0.7693,0.651,0.4278,0.3893,0.2896,0.1068,0.0987,0.0394,-0.1,-0.0404,0.0,0.3797,0.7653,1.1338,1.4866,1.6197,1.8286,2.0916,2.2884,2.4549,2.5994,2.6806,2.6015,2.4124,2.3241,2.1281,1.8739,1.759,1.6754,1.5968,1.4982,1.3965,1.2948,1.2451,1.1538,1.0624,1.0624,1.0624,1.0624,1.0624,1.0624,1.0624,1.0624,1.0624,1.0624,1.0624,1.0624,1.0678,1.0835,1.0486,0.9927,0.9445,0.8466,0.7586,0.6808,0.6702,0.7511,0.9936,1.052,1.1419,1.388,0.0,0.0,0.0,0.0,0.0,0.0,0.4221,0.4071,0.0,0.0,0.0,0.0,0.0,0.0,0.9365,0.8815,0.0,0.8549,0.6694,0.3736,0.0,0.0,0.0,0.0,0.0,0.0,0.0,0.0,0.0,0.0,0.0,0.0,0.0,0.0,0.0,0.0,0.0,0.0,0.0,2.8507,2.7609,2.6828,0.0,2.4922,0.0,2.1859,2.05,1.8958,1.7059,1.6599,1.5603,1.3243,1.3009,1.168,0.8345,0.0,0.0,0.0,0.5309,0.4631,0.2947,0.2874,0.2599,0.206,0.2666,0.3856,0.5568,1.2712,1.5965,1.5505,1.7859,1.9807,2.1306,2.3447,2.5169,2.6449,2.6418,2.5336,2.3529,2.2111,1.9946,1.7523,1.681,1.6093,1.541,1.5284,1.4264,1.3009,1.2887,1.1849,1.0624,1.0624,1.0624,1.0624,1.0624,1.0638,1.0651,1.0651,1.0651,1.0651,1.0651,1.0651,1.0742,1.1323,1.0872,1.0115,0.9401,0.8466,0.7508,0.6795,0.6695,0.7537,1.0091,1.0514,1.1375,1.3883,0.0,0.0,0.0,0.0,0.0,0.0,0.3291,0.3525,0.0,0.0,0.0,0.0,0.0,0.9214,1.0429,0.9265,0.8697,0.8645,0.856,0.5623,0.0,0.0,0.0,0.0,0.0,0.0,0.0,0.0,0.0,0.0,0.0,0.0,0.0,0.0,0.0,0.0,0.0,0.0,0.0,0.0,0.0,2.5204,2.4227,2.3071,2.1917,2.1003,1.9775,1.8389,1.6772,1.6532,1.5603,1.3243,1.3009,1.1943,0.9198,0.8117,0.7194,0.6388,0.5582,0.5058,0.4761,0.4742,0.4687,0.4552,0.5553,0.7529,1.0588,1.3603,1.5855,1.74,1.7752,1.9214,2.1498,2.26,2.3835,2.509,2.5126,2.4269,2.287,2.2032,2.006,1.7578,1.7413,1.6518,1.5235,1.4034,1.3312,1.2826,1.16,1.0933,1.0624,1.0624,1.0624,1.0624,1.0624,1.0715,1.0895,1.0895,1.0895,1.0895,1.0895,1.0895,1.1042,1.163,1.0432,0.9228,0.9251,0.7859,0.6624,0.6572,0.662,0.7257,0.8887,0.9221,0.9803,1.1212,1.0152,0.0,0.0,0.8018,0.607,0.3681,0.1879,0.1691,0.0,0.0,0.0,0.0,1.1976,1.1595,1.0902,1.0629,0.9926,0.8889,0.8803,0.5793,0.0,0.0,0.0,0.0,0.0,0.0,0.0,0.0,0.0,0.0,0.0,0.0,0.0,0.0,0.0,0.0,0.0,0.0,0.0,2.4154,2.408,2.3998,2.3096,2.2235,2.1335,2.0367,1.9077,1.7797,1.6652,1.6208,1.5206,1.3243,1.3009,1.2143,1.0104,0.9006,0.8085,0.7363,0.6763,0.6306,0.6017,0.6005,0.6024,0.6024,0.6971,0.9133,1.2554,1.424,1.5619,1.6808,1.7329,1.853,2.0231,2.1961,2.3405,2.4643,2.4339,2.3786,2.2986,2.1078,1.9209,1.7523,1.6856,1.6073,1.5235,1.3965,1.3304,1.285,1.1699,1.107,1.0782,1.0915,1.0955,1.0955,1.0955,1.0975,1.1022,1.1156,1.1189,1.1189,1.1189,1.1296,1.1408,1.1217,1.0059,0.8916,0.8666,0.7403,0.6325,0.6536,0.6644,0.7184,0.852,0.8822,0.9283,1.0359,0.9593,0.0,0.9029,0.788,0.6266,0.4048,0.1502,0.1104,0.3764,0.9481,0.0,1.2734,1.3577,1.3456,1.2181,1.1428,1.0347,0.894,0.885,0.5924,0.0,0.0,0.0,0.0,0.0,0.0,0.0,0.0,0.0,0.0,0.0,0.0,0.0,0.0,0.0,0.0,0.0,0.0,0.0,2.4231,2.3439,2.2873,2.2337,2.1792,2.1,1.9736,1.8454,1.7302,1.6436,1.569,1.4628,1.3191,1.2887,1.2212,1.0744,0.9913,0.9139,0.8221,0.8091,0.7697,0.6915,0.6915,0.6915,0.6915,0.7916,0.9963,1.3074,1.465,1.541,1.541,1.6912,1.7958,1.8701,2.1255,2.3154,2.4324,2.3492,2.3252,2.3084,1.9836,1.8137,1.7468,1.6083,1.5566,1.539,1.4602,1.3787,1.3091,1.2493,1.176,1.1102,1.1349,1.1423,1.143,1.1483,1.1316,1.1176,1.143,1.149,1.149,1.149,1.1613,1.1436,1.0671,0.975,0.8841,0.8008,0.7042,0.6369,0.662,0.6705,0.7151,0.8368,0.8611,0.8973,0.9918,0.0,0.8833,0.9068,0.7967,0.6365,0.4239,0.1621,0.1114,0.3848,0.947,1.2771,1.2854,1.4544,1.4884,1.3367,1.2077,1.0676,0.894,0.885,0.6374,0.1341,0.0447,0.0,0.0,0.0,0.0,0.0,0.0,0.0,0.0,0.0,0.0,0.0,0.0,0.0,0.0,0.0,0.0,0.0,2.2236,2.158,2.1278,2.1147,2.0647,1.9934,1.8903,1.812,1.7135,1.5748,1.4864,1.4025,1.313,1.2389,1.1593,1.0681,1.0498,1.004,0.9139,0.842,0.7962,0.7832,0.7832,0.7832,0.7832,1.0002,1.2058,1.4007,1.4923,1.541,1.541,1.6912,1.7958,1.8689,2.0372,2.1794,2.2859,2.1722,2.1502,2.1732,1.9572,1.8247,1.7523,1.6652,1.6212,1.5897,1.5087,1.4423,1.3794,1.3076,1.2162,1.1369,1.141,1.1423,1.1476,1.1724,1.177,1.1744,1.179,1.1797,1.1797,1.1797,1.1249,1.0683,1.0751,0.9336,0.8012,0.7859,0.7051,0.6454,0.6498,0.6719,0.6909,0.7211,0.732,0.7401,0.7573,0.0,0.7868,0.8041,0.7932,0.6816,0.4199,0.1561,0.1246,0.4205,0.9669,1.2822,1.297,1.5644,1.6025,1.3372,1.3048,1.1647,0.8937,0.885,0.8415,0.7413,0.2458,0.0,0.0,0.0,0.0,0.0,0.0,0.0,0.0,0.0,0.0,0.0,0.0,0.0,0.0,0.0,0.0,0.0,2.1273,2.0994,2.0783,1.9999,1.983,1.9384,1.8235,1.7446,1.6641,1.5526,1.505,1.4569,1.3726,1.294,1.2143,1.1351,1.0863,1.0428,1.0047,0.9652,0.9198,0.8742,0.8683,0.9111,0.9951,1.1589,1.321,1.4874,1.5235,1.541,1.541,1.6912,1.7775,1.8163,1.9991,2.1486,2.2517,2.1329,2.131,2.1904,1.9485,1.8316,1.7912,1.6804,1.6314,1.6138,1.5405,1.4668,1.3916,1.277,1.2075,1.169,1.185,1.1897,1.1924,1.2064,1.2104,1.2104,1.2104,1.2104,1.2025,1.143,1.0979,1.0341,0.9412,0.8461,0.7654,0.7211,0.6821,0.6522,0.6688,0.6834,0.6983,0.7143,0.7221,0.0,0.0,0.7648,0.7862,0.7926,0.8123,0.7171,0.4239,0.3056,0.368,0.6556,1.119,1.3959,1.4195,1.6354,1.6287,1.3372,1.1755,1.0241,0.894,0.895,0.8856,0.8876,0.4509,0.1591,0.0,0.0,0.0,0.0,0.0,0.0,0.0,0.0,0.0,0.0,0.0,0.0,0.0,0.0,0.0,0.0,2.0734,2.0514,2.0223,1.8955,1.9006,1.879,1.7544,1.6866,1.6265,1.5526,1.5235,1.4874,1.4273,1.3485,1.2757,1.2143,1.1538,1.1052,1.0863,1.0863,1.0485,0.9658,0.9779,1.0564,1.1951,1.2854,1.3965,1.541,1.541,1.541,1.541,1.6912,1.7578,1.7677,1.9697,2.1237,2.2297,2.1237,2.1355,2.1988,1.9527,1.8389,1.8141,1.6897,1.6329,1.6168,1.559,1.4823,1.3839,1.2727,1.2179,1.2011,1.2231,1.2305,1.2318,1.2385,1.2405,1.2392,1.2318,1.2305,1.207,1.1087,1.0634,0.9959,0.8237,0.7629,0.7297,0.66,0.6502,0.6617,0.6922,0.7007,0.7119,0.738,0.0,0.0,0.0,0.7875,0.8065,0.8133,0.8394,0.7715,0.5369,0.4708,0.5873,0.9206,1.2745,1.4872,1.5246,1.6708,1.6287,1.3372,1.0457,0.894,0.894,0.894,0.8967,0.8913,0.6719,0.3674,0.0,0.0,0.0,0.0,0.0,0.0,0.0,0.0,0.0,0.0,0.0,0.0,0.0,0.0,0.0,0.0,2.0384,1.9561,1.8895,1.8101,1.7993,1.7728,1.6746,1.6539,1.6265,1.5526,1.4746,1.4273,1.4213,1.3485,1.3009,1.2948,1.2887,1.2512,1.1772,1.171,1.1344,1.0555,1.1219,1.2012,1.2879,1.3726,1.451,1.541,1.541,1.541,1.541,1.6912,1.7578,1.7688,1.9202,2.0532,2.1554,2.0961,2.0872,2.1021,1.9604,1.8578,1.7749,1.6951,1.6354,1.5918,1.5869,1.493,1.3678,1.3628,1.299,1.2271,1.2291,1.2305,1.2358,1.2708,1.2788,1.2728,1.2378,1.2305,1.207,1.1087,1.0115,0.9145,0.8008,0.7099,0.6454,0.6524,0.6583,0.6773,0.7068,0.7241,0.7394,0.7556,0.0,0.0,0.7777,0.7936,0.8143,0.8418,0.8508,0.8563,0.8585,0.6044,0.6448,1.1223,1.349,1.4947,1.5382,1.681,1.6287,1.3372,1.0457,0.894,0.894,0.894,0.9018,0.9171,0.895,0.57,0.0,0.0,0.0,0.0,0.0,0.0,0.0,0.0,0.0,0.0,0.0,0.0,0.0,0.0,0.0,0.0,2.0274,1.9255,1.8454,1.8005,1.7022,1.6374,1.6451,1.6093,1.57,1.541,1.5108,1.4932,1.4932,1.4213,1.3726,1.3726,1.3312,1.2634,1.1834,1.1834,1.1469,1.0624,1.1344,1.2205,1.3009,1.3795,1.4569,1.541,1.541,1.5633,1.6093,1.7135,1.7841,1.8352,1.9728,2.0765,2.1481,2.1267,2.1129,2.0925,1.9871,1.9018,1.8217,1.774,1.7407,1.6973,1.542,1.4771,1.445,1.3237,1.2586,1.2305,1.2305,1.2425,1.2639,1.2946,1.2899,1.2842,1.2846,1.2585,1.207,1.1087,1.004,0.9027,0.8151,0.7171,0.6485,0.6817,0.6932,0.7068,0.737,0.7472,0.756,0.7706,0.0,0.7784,0.7933,0.8085,0.8258,0.8459,0.8625,0.8679,0.8846,0.8763,0.9941,1.3376,1.4561,1.5577,1.6711,1.6393,1.531,1.3372,1.1431,0.995,0.9072,0.9069,0.915,0.931,0.9415,0.8095,0.566,0.1821,0.0,0.0,0.0,0.0,0.0,0.0,0.0,0.0,0.0,0.0,0.0,0.0,0.0,0.0,1.9817,1.8998,1.83,1.7558,1.6531,1.5864,1.6093,1.5748,1.541,1.541,1.541,1.541,1.541,1.4932,1.4569,1.4569,1.4085,1.3416,1.2626,1.2074,1.1469,1.0624,1.1344,1.2205,1.3009,1.3795,1.4569,1.541,1.541,1.5748,1.6549,1.7246,1.8004,1.8738,1.9883,2.0803,2.1493,2.1493,2.1238,2.0819,2.0189,1.9329,1.8379,1.8093,1.7647,1.6862,1.5143,1.4387,1.4091,1.2732,1.2305,1.2318,1.2412,1.2712,1.3066,1.328,1.3193,1.3073,1.3287,1.2973,1.2277,1.0871,1.0028,0.915,0.7868,0.7024,0.6658,0.7058,0.7139,0.7248,0.76,0.7665,0.7712,0.7858,0.7882,0.7919,0.8024,0.8211,0.8374,0.8469,0.8659,0.8828,0.884,1.0253,1.1996,1.412,1.4922,1.6062,1.7477,1.6174,1.4809,1.3371,1.1966,1.065,0.9296,0.9249,0.9303,0.9456,0.9456,0.955,0.9382,0.4039,0.0979,0.0,0.0,0.0,0.0,0.0,0.0,0.0,0.0,0.0,0.0,0.0,0.0,0.0,1.898,1.8715,1.8221,1.6765,1.6492,1.6255,1.5526,1.541,1.541,1.541,1.541,1.541,1.541,1.541,1.541,1.541,1.541,1.505,1.4264,1.2679,1.1469,1.0618,1.1406,1.2205,1.3009,1.3786,1.4628,1.541,1.541,1.5748,1.6539,1.7246,1.8015,1.8715,1.9488,2.0439,2.1493,2.1493,2.1151,2.059,2.059,1.9562,1.8008,1.8008,1.6872,1.5234,1.5234,1.3947,1.2305,1.2305,1.2305,1.2358,1.2735,1.316,1.3641,1.3566,1.3559,1.3559,1.3566,1.344,1.2638,1.0428,0.9938,0.9375,0.7191,0.6702,0.679,0.7082,0.7146,0.7282,0.7729,0.7814,0.7862,0.8014,0.8041,0.8041,0.8041,0.8296,0.8482,0.8482,0.8754,0.8937,0.8937,1.0241,1.1755,1.3161,1.4663,1.6062,1.7477,1.6174,1.478,1.3487,1.2042,1.0768,0.9605,0.9459,0.9459,0.9612,0.9612,0.9713,0.9658,0.6403,0.3077,0.0,0.0,0.0,0.0,0.0,0.0,0.0,0.0,0.0,0.0,0.0,0.0,0.0,1.898,1.8274,1.7633,1.6652,1.6093,1.5642,1.541,1.541,1.541,1.541,1.541,1.541,1.541,1.541,1.541,1.541,1.541,1.505,1.4264,1.2143,1.1351,1.2282,1.2512,1.3,1.3846,1.4628,1.5167,1.541,1.541,1.6026,1.7257,1.7523,1.8274,1.9512,2.0519,2.1179,2.1543,2.1712,2.1334,2.0526,1.9944,1.8977,1.8008,1.8008,1.7217,1.607,1.5446,1.4378,1.3164,1.2519,1.2445,1.2705,1.3213,1.336,1.342,1.3834,1.3808,1.3687,1.3901,1.3895,1.3385,1.1491,1.0428,0.9577,0.8162,0.7443,0.7095,0.74,0.7539,0.7685,0.7926,0.797,0.7987,0.8031,0.813,0.8201,0.8201,0.8364,0.8523,0.8628,0.8723,0.9251,1.0339,1.1755,1.3264,1.4663,1.6068,1.7147,1.7582,1.7349,1.6066,1.3603,1.3325,1.2048,0.9608,0.9564,0.9615,0.9758,0.9758,0.9798,0.9744,0.6396,0.3073,0.0,0.0,0.0,0.0,0.0,0.0,0.0,0.0,0.0,0.0,0.0,0.0,0.0,1.8489,1.7688,1.6922,1.6197,1.569,1.541,1.541,1.541,1.541,1.541,1.541,1.541,1.541,1.5566,1.5674,1.5674,1.5674,1.5231,1.4282,1.2512,1.2151,1.3425,1.3191,1.3364,1.4213,1.4688,1.505,1.541,1.541,1.6026,1.7191,1.7468,1.8221,1.9396,2.0407,2.0777,2.076,2.108,2.068,1.9801,1.9422,1.8787,1.8008,1.8008,1.7217,1.6,1.5376,1.44,1.3283,1.2696,1.2752,1.3166,1.3527,1.3601,1.3627,1.3981,1.3961,1.3854,1.4041,1.4088,1.3678,1.1657,1.0689,0.9932,0.8867,0.7952,0.7316,0.7621,0.7801,0.7929,0.8021,0.8089,0.813,0.813,0.8211,0.8289,0.8347,0.8479,0.8608,0.8699,0.9295,1.0016,1.0988,1.294,1.4776,1.6174,1.7147,1.7582,1.7582,1.7326,1.5979,1.3613,1.3385,1.2085,0.969,0.9693,0.9737,0.9822,0.9822,0.9832,0.9731,0.775,0.43,0.0,0.0,0.0,0.0,0.0,0.0,0.0,0.0,0.0,0.0,0.0,0.0,0.0,1.7731,1.7034,1.6265,1.5526,1.541,1.541,1.541,1.541,1.541,1.541,1.5449,1.5469,1.5469,1.5859,1.6123,1.6123,1.6113,1.5565,1.4465,1.3536,1.3398,1.4273,1.3545,1.3485,1.4273,1.4332,1.4688,1.541,1.541,1.5806,1.6595,1.7302,1.8004,1.8715,1.9473,1.9699,1.9574,1.99,1.9508,1.8701,1.9065,1.8721,1.8008,1.794,1.6751,1.5213,1.5141,1.4139,1.2869,1.2896,1.3193,1.3647,1.3674,1.3868,1.4088,1.4088,1.4088,1.4088,1.4088,1.4088,1.3632,1.1513,1.0793,1.0348,0.9225,0.8219,0.7506,0.7777,0.7963,0.8079,0.8079,0.8194,0.8289,0.8289,0.8299,0.8353,0.8482,0.8635,0.873,0.873,1.0144,1.1105,1.1324,1.3911,1.6168,1.7477,1.7582,1.7582,1.7582,1.6572,1.5282,1.3798,1.2664,1.1339,0.9819,0.9822,0.9822,0.9822,0.9822,0.9832,0.9852,0.9852,0.6514,0.0861,0.0246,0.0,0.0,0.0,0.0,0.0,0.0,0.0,0.0,0.0,0.0,0.0,1.7731,1.7034,1.6265,1.5526,1.541,1.541,1.541,1.541,1.541,1.541,1.5703,1.5918,1.5918,1.6318,1.6592,1.6592,1.5987,1.5673,1.5696,1.4294,1.3969,1.5069,1.4392,1.4332,1.5108,1.5108,1.5235,1.541,1.541,1.6073,1.7357,1.7523,1.8004,1.8738,1.9384,1.9474,1.9224,1.9043,1.903,1.9097,1.8489,1.8134,1.794,1.7207,1.6334,1.5438,1.4719,1.3827,1.3146,1.3373,1.3534,1.3687,1.3915,1.4035,1.4088,1.4088,1.4088,1.4088,1.4088,1.4088,1.3809,1.2487,1.1441,1.022,0.8336,0.7917,0.7913,0.7977,0.8201,0.8387,0.8387,0.8414,0.8435,0.8435,0.8537,0.8625,0.8655,0.8794,0.8889,0.8889,1.0218,1.1538,1.2729,1.5417,1.7252,1.7582,1.7582,1.7582,1.7582,1.7764,1.6598,1.3803,1.3849,1.2649,0.9819,0.9822,0.9822,0.9822,0.9822,0.9825,0.9829,0.9846,0.9001,0.7406,0.2214,0.0,0.0,0.0,0.0,0.0,0.0,0.0,0.0,0.0,0.0,0.0,1.7688,1.6698,1.5864,1.5468,1.541,1.541,1.541,1.5586,1.5723,1.5723,1.6103,1.6387,1.6387,1.6777,1.7041,1.7041,1.6634,1.6379,1.6406,1.5041,1.4648,1.5673,1.4731,1.4569,1.5352,1.541,1.541,1.541,1.541,1.5796,1.6585,1.7159,1.7597,1.8003,1.8897,1.8983,1.8484,1.8533,1.8506,1.836,1.8123,1.8008,1.7959,1.765,1.6759,1.5569,1.5225,1.4377,1.3467,1.3754,1.3854,1.3881,1.4041,1.4088,1.4088,1.4088,1.4088,1.4115,1.4255,1.4295,1.4043,1.3177,1.208,1.0648,0.8898,0.8204,0.7974,0.8119,0.8326,0.8482,0.8482,0.854,0.8591,0.8591,0.8659,0.8737,0.8808,0.8889,0.9154,0.9915,1.1214,1.294,1.5097,1.6717,1.7582,1.7582,1.7582,1.7318,1.6693,1.7108,1.5919,1.2933,1.3244,1.2333,0.9819,0.9822,0.9822,0.9822,0.9822,0.9822,0.9822,0.9832,0.9856,0.9509,0.4548,0.1477,0.0,0.0,0.0,0.0,0.0,0.0,0.0,0.0,0.0,0.0,1.7468,1.6415,1.5526,1.541,1.5469,1.5527,1.5527,1.5898,1.6182,1.6182,1.6572,1.6846,1.6846,1.7236,1.749,1.749,1.749,1.7305,1.6875,1.5848,1.5585,1.6074,1.5172,1.4934,1.5527,1.5596,1.5566,1.541,1.5488,1.5576,1.5703,1.6783,1.7298,1.7319,1.8267,1.8373,1.776,1.8142,1.7981,1.7519,1.7871,1.791,1.787,1.7995,1.7026,1.5549,1.5679,1.4857,1.3768,1.4062,1.4162,1.4168,1.4222,1.4235,1.4235,1.4235,1.4235,1.4289,1.4529,1.4414,1.4097,1.3333,1.2131,1.0915,0.9652,0.8604,0.8004,0.8289,0.8462,0.856,0.856,0.8662,0.875,0.875,0.875,0.8794,0.892,0.894,0.9482,1.0891,1.2615,1.4669,1.7364,1.7582,1.7582,1.7582,1.7629,1.7109,1.5805,1.5987,1.4874,1.1938,1.212,1.1378,0.9822,0.9846,0.9846,0.9822,0.9873,0.9873,0.9822,0.9822,0.9832,0.9609,0.6886,0.3563,0.0,0.0,0.0,0.0,0.0,0.0,0.0,0.0,0.0,0.0,1.6922,1.6482,1.6151,1.5526,1.5723,1.6037,1.6037,1.6357,1.6641,1.6641,1.7021,1.7295,1.7295,1.7676,1.793,1.793,1.793,1.7744,1.7324,1.7171,1.6792,1.6154,1.6253,1.6243,1.5986,1.6357,1.6182,1.541,1.5791,1.6327,1.6981,1.7499,1.7707,1.7707,1.7882,1.778,1.7491,1.755,1.7721,1.793,1.7988,1.766,1.7036,1.6268,1.5643,1.5091,1.4268,1.4015,1.4068,1.4362,1.4462,1.4509,1.4763,1.485,1.485,1.485,1.485,1.4856,1.4897,1.4071,1.2997,1.2161,1.1016,0.9739,0.8841,0.8495,0.8442,0.8615,0.8771,0.8876,0.8876,0.8893,0.8906,0.8906,0.8906,0.8916,0.8933,0.894,0.9482,1.0891,1.348,1.5743,1.747,1.7582,1.7582,1.7582,1.7829,1.7334,1.5816,1.6156,1.5039,1.1942,1.212,1.1378,0.9822,0.9951,0.9951,0.9825,1.009,1.008,0.9822,0.9822,0.9832,0.9734,0.9358,0.5651,0.0,0.0,0.0,0.0,0.0,0.0,0.0,0.0,0.0,0.0,1.7001,1.653,1.6257,1.6164,1.6309,1.6436,1.6436,1.6816,1.709,1.709,1.7676,1.8086,1.8086,1.8467,1.8623,1.8379,1.8359,1.8184,1.7764,1.751,1.7207,1.6816,1.6758,1.6641,1.6445,1.6631,1.648,1.6152,1.6338,1.6612,1.693,1.7372,1.7584,1.7594,1.7835,1.7999,1.8086,1.8086,1.833,1.8721,1.8721,1.8543,1.8209,1.745,1.6654,1.5808,1.458,1.4215,1.4376,1.4669,1.477,1.479,1.4923,1.4963,1.4963,1.4963,1.4963,1.5037,1.5357,1.4397,1.3383,1.3287,1.1702,1.0067,0.9813,0.9136,0.8628,0.8696,0.8764,0.8835,0.8923,0.894,0.894,0.894,0.894,0.894,0.894,0.894,0.9699,1.2077,1.4877,1.6929,1.7582,1.7582,1.7655,1.7829,1.7969,1.7064,1.4972,1.5881,1.466,1.0789,1.1695,1.1425,0.9947,0.993,0.993,0.9951,1.0086,1.008,0.9947,0.9947,0.9954,0.9958,0.9886,0.8164,0.5231,0.1481,0.0,0.0,0.0,0.0,0.0,0.0,0.0,0.0]}]]